<?xml version='1.0' encoding='UTF-8'?><gpx version="1.1" creator="JPX - https://github.com/jenetics/jpx" xmlns="http://www.topografix.com/GPX/1/1"><trk><trkseg><trkpt lat="44.325316493850906" lon="11.33133222846341"><ele>522.0</ele><time>2026-05-01T08:34:48.991Z</time></trkpt><trkpt lat="44.325303625398064" lon="11.331225544897864"><ele>522.0</ele><time>2026-05-01T08:34:53.991Z</time></trkpt><trkpt lat="44.32525222475995" lon="11.331136267521456"><ele>522.0</ele><time>2026-05-01T08:34:56.991Z</time></trkpt><trkpt lat="44.32519207188911" lon="11.331065690722378"><ele>522.0</ele><time>2026-05-01T08:34:59.991Z</time></trkpt><trkpt lat="44.3251429174302" lon="11.330936559087784"><ele>522.0</ele><time>2026-05-01T08:35:01.991Z</time></trkpt><trkpt lat="44.32503260476417" lon="11.330878004640313"><ele>522.0</ele><time>2026-05-01T08:35:03.991Z</time></trkpt><trkpt lat="44.324949646820194" lon="11.330908618075545"><ele>522.0</ele><time>2026-05-01T08:35:04.991Z</time></trkpt><trkpt lat="44.324853367525336" lon="11.33093017486733"><ele>522.0</ele><time>2026-05-01T08:35:05.991Z</time></trkpt><trkpt lat="44.324767530045555" lon="11.330941556507216"><ele>522.0</ele><time>2026-05-01T08:35:06.991Z</time></trkpt><trkpt lat="44.32462139635447" lon="11.330987084776682"><ele>522.0</ele><time>2026-05-01T08:35:07.991Z</time></trkpt><trkpt lat="44.3245284315429" lon="11.331042727572122"><ele>521.0</ele><time>2026-05-01T08:35:08.991Z</time></trkpt><trkpt lat="44.32442709008671" lon="11.331107087883742"><ele>520.0</ele><time>2026-05-01T08:35:09.991Z</time></trkpt><trkpt lat="44.32434521798874" lon="11.33124786196756"><ele>519.0</ele><time>2026-05-01T08:35:10.991Z</time></trkpt><trkpt lat="44.32431964997071" lon="11.331377512961359"><ele>518.0</ele><time>2026-05-01T08:35:11.991Z</time></trkpt><trkpt lat="44.32433291997705" lon="11.331555136872845"><ele>518.0</ele><time>2026-05-01T08:35:12.991Z</time></trkpt><trkpt lat="44.32426316967663" lon="11.331703015604102"><ele>518.0</ele><time>2026-05-01T08:35:13.991Z</time></trkpt><trkpt lat="44.32420161323912" lon="11.331867577333202"><ele>518.0</ele><time>2026-05-01T08:35:14.991Z</time></trkpt><trkpt lat="44.32414870485414" lon="11.332018941103478"><ele>518.0</ele><time>2026-05-01T08:35:15.991Z</time></trkpt><trkpt lat="44.32406399146129" lon="11.33214088505661"><ele>515.75</ele><time>2026-05-01T08:35:16.991Z</time></trkpt><trkpt lat="44.32396039928701" lon="11.33227066272583"><ele>513.5</ele><time>2026-05-01T08:35:17.991Z</time></trkpt><trkpt lat="44.323851047657705" lon="11.332360227375432"><ele>511.25</ele><time>2026-05-01T08:35:18.991Z</time></trkpt><trkpt lat="44.32375189601613" lon="11.332452286899208"><ele>509.0</ele><time>2026-05-01T08:35:19.991Z</time></trkpt><trkpt lat="44.323663115558325" lon="11.332487015788654"><ele>509.0</ele><time>2026-05-01T08:35:20.991Z</time></trkpt><trkpt lat="44.32358226918527" lon="11.332540415450236"><ele>509.0</ele><time>2026-05-01T08:35:21.991Z</time></trkpt><trkpt lat="44.32349505393749" lon="11.332643603418884"><ele>509.0</ele><time>2026-05-01T08:35:22.991Z</time></trkpt><trkpt lat="44.32342665155286" lon="11.332775903114486"><ele>509.0</ele><time>2026-05-01T08:35:23.991Z</time></trkpt><trkpt lat="44.323344189636174" lon="11.332914626423104"><ele>509.0</ele><time>2026-05-01T08:35:24.991Z</time></trkpt><trkpt lat="44.32325305770128" lon="11.333062409699926"><ele>505.0</ele><time>2026-05-01T08:35:25.991Z</time></trkpt><trkpt lat="44.323158633287214" lon="11.333214501648449"><ele>501.0</ele><time>2026-05-01T08:35:26.991Z</time></trkpt><trkpt lat="44.323067406323965" lon="11.333365169544804"><ele>497.0</ele><time>2026-05-01T08:35:27.991Z</time></trkpt><trkpt lat="44.32298791350486" lon="11.333532973755105"><ele>493.0</ele><time>2026-05-01T08:35:28.991Z</time></trkpt><trkpt lat="44.322925866309035" lon="11.333702886948737"><ele>493.0</ele><time>2026-05-01T08:35:29.991Z</time></trkpt><trkpt lat="44.322861385312855" lon="11.333857646972339"><ele>493.0</ele><time>2026-05-01T08:35:30.991Z</time></trkpt><trkpt lat="44.32278200547811" lon="11.333976116348017"><ele>493.0</ele><time>2026-05-01T08:35:31.991Z</time></trkpt><trkpt lat="44.322699928343184" lon="11.334096336451426"><ele>493.0</ele><time>2026-05-01T08:35:32.991Z</time></trkpt><trkpt lat="44.32259717979723" lon="11.334160969338894"><ele>493.79999999999995</ele><time>2026-05-01T08:35:33.991Z</time></trkpt><trkpt lat="44.32247885021631" lon="11.33416304854123"><ele>494.59999999999997</ele><time>2026-05-01T08:35:34.991Z</time></trkpt><trkpt lat="44.322362535332644" lon="11.33414509602943"><ele>495.40000000000003</ele><time>2026-05-01T08:35:35.989Z</time></trkpt><trkpt lat="44.32226352593584" lon="11.334151660778366"><ele>496.20000000000005</ele><time>2026-05-01T08:35:36.99Z</time></trkpt><trkpt lat="44.32217728076884" lon="11.334159061525979"><ele>497.0</ele><time>2026-05-01T08:35:37.99Z</time></trkpt><trkpt lat="44.322094405925" lon="11.334228267239794"><ele>497.0</ele><time>2026-05-01T08:35:38.989Z</time></trkpt><trkpt lat="44.321991057603306" lon="11.334312405297151"><ele>497.0</ele><time>2026-05-01T08:35:39.989Z</time></trkpt><trkpt lat="44.3218909536827" lon="11.334439713793682"><ele>497.0</ele><time>2026-05-01T08:35:40.989Z</time></trkpt><trkpt lat="44.321814717079945" lon="11.334546653249904"><ele>497.0</ele><time>2026-05-01T08:35:41.989Z</time></trkpt><trkpt lat="44.321737061401606" lon="11.334630628767474"><ele>497.0</ele><time>2026-05-01T08:35:42.989Z</time></trkpt><trkpt lat="44.321637594772746" lon="11.334692043421235"><ele>497.0</ele><time>2026-05-01T08:35:43.989Z</time></trkpt><trkpt lat="44.32151648227587" lon="11.334691599820177"><ele>497.0</ele><time>2026-05-01T08:35:44.989Z</time></trkpt><trkpt lat="44.32139127639174" lon="11.334705112590369"><ele>497.0</ele><time>2026-05-01T08:35:45.989Z</time></trkpt><trkpt lat="44.321264529703654" lon="11.334744196806852"><ele>496.0</ele><time>2026-05-01T08:35:46.989Z</time></trkpt><trkpt lat="44.321156229556806" lon="11.334777139200916"><ele>495.0</ele><time>2026-05-01T08:35:47.989Z</time></trkpt><trkpt lat="44.321039928353215" lon="11.334828749205988"><ele>494.0</ele><time>2026-05-01T08:35:48.989Z</time></trkpt><trkpt lat="44.3209083804153" lon="11.334824110109821"><ele>493.0</ele><time>2026-05-01T08:35:49.989Z</time></trkpt><trkpt lat="44.320760158810295" lon="11.334818601012751"><ele>493.0</ele><time>2026-05-01T08:35:50.989Z</time></trkpt><trkpt lat="44.320629257261274" lon="11.334740165975031"><ele>493.0</ele><time>2026-05-01T08:35:51.989Z</time></trkpt><trkpt lat="44.32049290480942" lon="11.33466836230459"><ele>493.0</ele><time>2026-05-01T08:35:52.989Z</time></trkpt><trkpt lat="44.320370818253885" lon="11.334561537153178"><ele>493.0</ele><time>2026-05-01T08:35:53.989Z</time></trkpt><trkpt lat="44.32025215657969" lon="11.334456614339581"><ele>491.5</ele><time>2026-05-01T08:35:54.989Z</time></trkpt><trkpt lat="44.32013380386856" lon="11.334350678339408"><ele>490.0</ele><time>2026-05-01T08:35:55.989Z</time></trkpt><trkpt lat="44.32001451450649" lon="11.334255720610862"><ele>488.5</ele><time>2026-05-01T08:35:56.989Z</time></trkpt><trkpt lat="44.31988389575339" lon="11.334192338721172"><ele>487.0</ele><time>2026-05-01T08:35:57.989Z</time></trkpt><trkpt lat="44.31975068847051" lon="11.334134027052057"><ele>487.25</ele><time>2026-05-01T08:35:58.989Z</time></trkpt><trkpt lat="44.31961486972275" lon="11.334096607203774"><ele>487.5</ele><time>2026-05-01T08:35:59.989Z</time></trkpt><trkpt lat="44.319481268602246" lon="11.334041296103626"><ele>487.75</ele><time>2026-05-01T08:36:00.989Z</time></trkpt><trkpt lat="44.319347076194276" lon="11.333985145167368"><ele>488.0</ele><time>2026-05-01T08:36:01.989Z</time></trkpt><trkpt lat="44.319221331084954" lon="11.333919052637953"><ele>488.25</ele><time>2026-05-01T08:36:02.989Z</time></trkpt><trkpt lat="44.319106590010364" lon="11.333850133834353"><ele>488.5</ele><time>2026-05-01T08:36:03.989Z</time></trkpt><trkpt lat="44.318975745344545" lon="11.333788614180726"><ele>488.75</ele><time>2026-05-01T08:36:04.989Z</time></trkpt><trkpt lat="44.31885602318131" lon="11.333712762941365"><ele>489.0</ele><time>2026-05-01T08:36:05.989Z</time></trkpt><trkpt lat="44.31873353259992" lon="11.333626347737576"><ele>490.0</ele><time>2026-05-01T08:36:06.989Z</time></trkpt><trkpt lat="44.31860023843266" lon="11.333543317938803"><ele>491.0</ele><time>2026-05-01T08:36:07.989Z</time></trkpt><trkpt lat="44.31846728181873" lon="11.3334650069042"><ele>492.0</ele><time>2026-05-01T08:36:08.989Z</time></trkpt><trkpt lat="44.318332866048564" lon="11.333385560492797"><ele>493.0</ele><time>2026-05-01T08:36:09.989Z</time></trkpt><trkpt lat="44.3181996034764" lon="11.33331035131949"><ele>493.0</ele><time>2026-05-01T08:36:10.989Z</time></trkpt><trkpt lat="44.318081279582245" lon="11.333218740388096"><ele>493.0</ele><time>2026-05-01T08:36:11.989Z</time></trkpt><trkpt lat="44.31795665743942" lon="11.333121491502746"><ele>493.0</ele><time>2026-05-01T08:36:12.989Z</time></trkpt><trkpt lat="44.31781579777593" lon="11.33301989173029"><ele>493.0</ele><time>2026-05-01T08:36:13.989Z</time></trkpt><trkpt lat="44.31766897079835" lon="11.332929317784364"><ele>492.6666666666667</ele><time>2026-05-01T08:36:14.989Z</time></trkpt><trkpt lat="44.31752850405667" lon="11.332819189691563"><ele>492.33333333333337</ele><time>2026-05-01T08:36:15.989Z</time></trkpt><trkpt lat="44.31738591288926" lon="11.332697316096947"><ele>492.0</ele><time>2026-05-01T08:36:16.989Z</time></trkpt><trkpt lat="44.317240754849166" lon="11.33258369991425"><ele>492.33333333333337</ele><time>2026-05-01T08:36:17.989Z</time></trkpt><trkpt lat="44.3170954252644" lon="11.332464392730397"><ele>492.6666666666667</ele><time>2026-05-01T08:36:18.989Z</time></trkpt><trkpt lat="44.31694203061189" lon="11.332347980943972"><ele>493.0</ele><time>2026-05-01T08:36:19.989Z</time></trkpt><trkpt lat="44.31678855574479" lon="11.332243877092303"><ele>493.6666666666667</ele><time>2026-05-01T08:36:20.989Z</time></trkpt><trkpt lat="44.31663134203783" lon="11.332134398790311"><ele>494.33333333333337</ele><time>2026-05-01T08:36:21.989Z</time></trkpt><trkpt lat="44.316463836865374" lon="11.332041436914643"><ele>495.0</ele><time>2026-05-01T08:36:22.989Z</time></trkpt><trkpt lat="44.31627916684074" lon="11.3319708437858"><ele>495.33333333333337</ele><time>2026-05-01T08:36:23.989Z</time></trkpt><trkpt lat="44.31610242168418" lon="11.331881328757742"><ele>495.6666666666667</ele><time>2026-05-01T08:36:24.989Z</time></trkpt><trkpt lat="44.31592940362802" lon="11.331786791972128"><ele>496.0</ele><time>2026-05-01T08:36:25.989Z</time></trkpt><trkpt lat="44.31576817404835" lon="11.3316387747511"><ele>496.0</ele><time>2026-05-01T08:36:26.989Z</time></trkpt><trkpt lat="44.315603502122975" lon="11.331488489512063"><ele>496.0</ele><time>2026-05-01T08:36:27.989Z</time></trkpt><trkpt lat="44.315452600504635" lon="11.33134221513844"><ele>496.0</ele><time>2026-05-01T08:36:28.989Z</time></trkpt><trkpt lat="44.31532798324191" lon="11.331189177259379"><ele>499.33333333333337</ele><time>2026-05-01T08:36:29.989Z</time></trkpt><trkpt lat="44.31520925514999" lon="11.331023310383463"><ele>502.66666666666663</ele><time>2026-05-01T08:36:30.989Z</time></trkpt><trkpt lat="44.31507133072839" lon="11.33085670839051"><ele>506.0</ele><time>2026-05-01T08:36:31.989Z</time></trkpt><trkpt lat="44.314953515897926" lon="11.330688043221302"><ele>506.66666666666663</ele><time>2026-05-01T08:36:32.989Z</time></trkpt><trkpt lat="44.31483781916083" lon="11.330515152874584"><ele>507.33333333333337</ele><time>2026-05-01T08:36:33.989Z</time></trkpt><trkpt lat="44.3147323061569" lon="11.330365807028599"><ele>508.0</ele><time>2026-05-01T08:36:34.989Z</time></trkpt><trkpt lat="44.31462718139922" lon="11.330234902026515"><ele>508.0</ele><time>2026-05-01T08:36:35.989Z</time></trkpt><trkpt lat="44.3145182395309" lon="11.330130782851235"><ele>508.0</ele><time>2026-05-01T08:36:36.989Z</time></trkpt><trkpt lat="44.31440719522118" lon="11.330041055043786"><ele>508.0</ele><time>2026-05-01T08:36:37.989Z</time></trkpt><trkpt lat="44.314280829277045" lon="11.329992517913315"><ele>508.0</ele><time>2026-05-01T08:36:38.989Z</time></trkpt><trkpt lat="44.31414776630974" lon="11.329956236488975"><ele>508.0</ele><time>2026-05-01T08:36:39.989Z</time></trkpt><trkpt lat="44.31401589148783" lon="11.329942277287401"><ele>507.99999999999994</ele><time>2026-05-01T08:36:40.989Z</time></trkpt><trkpt lat="44.313903766239385" lon="11.329936577811498"><ele>507.99999999999994</ele><time>2026-05-01T08:36:41.989Z</time></trkpt><trkpt lat="44.31380297249513" lon="11.32994002901282"><ele>508.0</ele><time>2026-05-01T08:36:42.989Z</time></trkpt><trkpt lat="44.313706603698186" lon="11.32993686836528"><ele>508.0</ele><time>2026-05-01T08:36:43.989Z</time></trkpt><trkpt lat="44.31362741417789" lon="11.329922304426985"><ele>508.6666666666667</ele><time>2026-05-01T08:36:44.989Z</time></trkpt><trkpt lat="44.31356037754318" lon="11.329901908060464"><ele>509.33333333333337</ele><time>2026-05-01T08:36:45.989Z</time></trkpt><trkpt lat="44.31349348769739" lon="11.32989574008544"><ele>510.0</ele><time>2026-05-01T08:36:46.989Z</time></trkpt><trkpt lat="44.313428363348464" lon="11.329891252948444"><ele>510.66666666666663</ele><time>2026-05-01T08:36:47.989Z</time></trkpt><trkpt lat="44.31336200261588" lon="11.329892768618343"><ele>511.3333333333333</ele><time>2026-05-01T08:36:48.989Z</time></trkpt><trkpt lat="44.31326240692074" lon="11.329857269482982"><ele>512.0</ele><time>2026-05-01T08:36:49.989Z</time></trkpt><trkpt lat="44.313150493215694" lon="11.329866900935489"><ele>515.75</ele><time>2026-05-01T08:36:50.989Z</time></trkpt><trkpt lat="44.31303244342239" lon="11.329842044681481"><ele>519.5</ele><time>2026-05-01T08:36:51.989Z</time></trkpt><trkpt lat="44.31291954927115" lon="11.329832728508054"><ele>523.25</ele><time>2026-05-01T08:36:52.989Z</time></trkpt><trkpt lat="44.31279006436221" lon="11.32984851323401"><ele>527.0</ele><time>2026-05-01T08:36:53.989Z</time></trkpt><trkpt lat="44.31265117256357" lon="11.329870020166812"><ele>527.0</ele><time>2026-05-01T08:36:54.989Z</time></trkpt><trkpt lat="44.31252067241651" lon="11.329911730366854"><ele>527.0</ele><time>2026-05-01T08:36:55.989Z</time></trkpt><trkpt lat="44.31237873432058" lon="11.329957239140464"><ele>527.0</ele><time>2026-05-01T08:36:56.989Z</time></trkpt><trkpt lat="44.31225926332426" lon="11.33000403713152"><ele>527.0</ele><time>2026-05-01T08:36:57.988Z</time></trkpt><trkpt lat="44.31212995114037" lon="11.330073595570465"><ele>531.0</ele><time>2026-05-01T08:36:58.988Z</time></trkpt><trkpt lat="44.31199053779841" lon="11.330151910164025"><ele>535.0</ele><time>2026-05-01T08:36:59.988Z</time></trkpt><trkpt lat="44.31186290685097" lon="11.33028043963918"><ele>539.0</ele><time>2026-05-01T08:37:00.988Z</time></trkpt><trkpt lat="44.31173809511485" lon="11.330411152459293"><ele>539.0</ele><time>2026-05-01T08:37:01.988Z</time></trkpt><trkpt lat="44.31159905785599" lon="11.330555710448484"><ele>539.0</ele><time>2026-05-01T08:37:02.988Z</time></trkpt><trkpt lat="44.31148927106439" lon="11.330715788706952"><ele>539.0</ele><time>2026-05-01T08:37:03.988Z</time></trkpt><trkpt lat="44.311360192671295" lon="11.330901552849433"><ele>538.0</ele><time>2026-05-01T08:37:04.988Z</time></trkpt><trkpt lat="44.31126366248405" lon="11.331087364467765"><ele>537.0</ele><time>2026-05-01T08:37:05.988Z</time></trkpt><trkpt lat="44.31118062919275" lon="11.331281241952034"><ele>536.0</ele><time>2026-05-01T08:37:06.988Z</time></trkpt><trkpt lat="44.31110643511204" lon="11.331453297110201"><ele>536.0</ele><time>2026-05-01T08:37:07.988Z</time></trkpt><trkpt lat="44.311042140803366" lon="11.331612733069672"><ele>536.0</ele><time>2026-05-01T08:37:08.988Z</time></trkpt><trkpt lat="44.31094086661687" lon="11.331727785584052"><ele>536.0</ele><time>2026-05-01T08:37:09.988Z</time></trkpt><trkpt lat="44.310832597783104" lon="11.331776984559506"><ele>536.0</ele><time>2026-05-01T08:37:10.988Z</time></trkpt><trkpt lat="44.31070122719474" lon="11.331832161378834"><ele>536.0</ele><time>2026-05-01T08:37:11.988Z</time></trkpt><trkpt lat="44.31057475896608" lon="11.331903129103093"><ele>536.0</ele><time>2026-05-01T08:37:12.988Z</time></trkpt><trkpt lat="44.31043774965415" lon="11.331939325196576"><ele>536.0</ele><time>2026-05-01T08:37:13.988Z</time></trkpt><trkpt lat="44.31033249811265" lon="11.331954874421687"><ele>536.0</ele><time>2026-05-01T08:37:14.988Z</time></trkpt><trkpt lat="44.31024964394518" lon="11.331912495090846"><ele>535.5</ele><time>2026-05-01T08:37:15.988Z</time></trkpt><trkpt lat="44.31019270976228" lon="11.33182260336706"><ele>535.0</ele><time>2026-05-01T08:37:16.988Z</time></trkpt><trkpt lat="44.31011885874802" lon="11.331697733367223"><ele>534.5</ele><time>2026-05-01T08:37:17.988Z</time></trkpt><trkpt lat="44.310054147543326" lon="11.331560975542246"><ele>534.0</ele><time>2026-05-01T08:37:18.988Z</time></trkpt><trkpt lat="44.309971031548045" lon="11.331411283853484"><ele>535.3333333333334</ele><time>2026-05-01T08:37:19.988Z</time></trkpt><trkpt lat="44.309867684179714" lon="11.331254392762132"><ele>536.6666666666667</ele><time>2026-05-01T08:37:20.988Z</time></trkpt><trkpt lat="44.30975326504596" lon="11.331106483226582"><ele>538.0</ele><time>2026-05-01T08:37:21.988Z</time></trkpt><trkpt lat="44.309594057361934" lon="11.330957783518285"><ele>538.0</ele><time>2026-05-01T08:37:22.988Z</time></trkpt><trkpt lat="44.30943948564028" lon="11.330815384399884"><ele>538.0</ele><time>2026-05-01T08:37:23.988Z</time></trkpt><trkpt lat="44.30926336984889" lon="11.330658466409679"><ele>538.0</ele><time>2026-05-01T08:37:24.988Z</time></trkpt><trkpt lat="44.30909281120078" lon="11.33050148478013"><ele>540.3333333333334</ele><time>2026-05-01T08:37:25.988Z</time></trkpt><trkpt lat="44.308921467990835" lon="11.330345330656234"><ele>542.6666666666666</ele><time>2026-05-01T08:37:26.988Z</time></trkpt><trkpt lat="44.308767156970035" lon="11.33019304490761"><ele>545.0</ele><time>2026-05-01T08:37:27.988Z</time></trkpt><trkpt lat="44.30861493940216" lon="11.330063023567092"><ele>545.0</ele><time>2026-05-01T08:37:28.988Z</time></trkpt><trkpt lat="44.30847811526526" lon="11.32995824774775"><ele>545.0</ele><time>2026-05-01T08:37:29.988Z</time></trkpt><trkpt lat="44.30833089688967" lon="11.329898450866562"><ele>545.0</ele><time>2026-05-01T08:37:30.988Z</time></trkpt><trkpt lat="44.308177193051144" lon="11.329868589842444"><ele>545.3333333333333</ele><time>2026-05-01T08:37:31.988Z</time></trkpt><trkpt lat="44.308009813927406" lon="11.329871304071451"><ele>545.6666666666666</ele><time>2026-05-01T08:37:32.988Z</time></trkpt><trkpt lat="44.30783685220527" lon="11.329866373981618"><ele>546.0</ele><time>2026-05-01T08:37:33.988Z</time></trkpt><trkpt lat="44.307670201394764" lon="11.329833778675686"><ele>546.0</ele><time>2026-05-01T08:37:34.988Z</time></trkpt><trkpt lat="44.30749798406263" lon="11.329782507427602"><ele>546.0</ele><time>2026-05-01T08:37:35.988Z</time></trkpt><trkpt lat="44.30732423226016" lon="11.32969143026471"><ele>546.0</ele><time>2026-05-01T08:37:36.988Z</time></trkpt><trkpt lat="44.307157497291485" lon="11.329585244875858"><ele>547.5</ele><time>2026-05-01T08:37:37.988Z</time></trkpt><trkpt lat="44.30701673289097" lon="11.3294850517626"><ele>549.0</ele><time>2026-05-01T08:37:38.988Z</time></trkpt><trkpt lat="44.30688686377892" lon="11.329401755913755"><ele>550.5</ele><time>2026-05-01T08:37:39.988Z</time></trkpt><trkpt lat="44.30677845589386" lon="11.329313495147431"><ele>552.0</ele><time>2026-05-01T08:37:40.988Z</time></trkpt><trkpt lat="44.306693229801255" lon="11.32920949559933"><ele>552.0</ele><time>2026-05-01T08:37:41.987Z</time></trkpt><trkpt lat="44.30663901256523" lon="11.329086660232766"><ele>552.0</ele><time>2026-05-01T08:37:42.986Z</time></trkpt><trkpt lat="44.306604801514105" lon="11.328939008437654"><ele>552.0</ele><time>2026-05-01T08:37:43.986Z</time></trkpt><trkpt lat="44.30658066150388" lon="11.328788704747797"><ele>552.0</ele><time>2026-05-01T08:37:44.986Z</time></trkpt><trkpt lat="44.3065494330356" lon="11.328662358539047"><ele>552.0</ele><time>2026-05-01T08:37:45.986Z</time></trkpt><trkpt lat="44.3064902121362" lon="11.328564682047615"><ele>554.8000000000001</ele><time>2026-05-01T08:37:46.986Z</time></trkpt><trkpt lat="44.3064122800051" lon="11.328491753418898"><ele>557.6</ele><time>2026-05-01T08:37:47.986Z</time></trkpt><trkpt lat="44.3063204192558" lon="11.328471139025478"><ele>560.4000000000001</ele><time>2026-05-01T08:37:48.986Z</time></trkpt><trkpt lat="44.30622620879784" lon="11.328503858073674"><ele>563.2</ele><time>2026-05-01T08:37:49.986Z</time></trkpt><trkpt lat="44.30615266984251" lon="11.328588283349815"><ele>566.0</ele><time>2026-05-01T08:37:50.986Z</time></trkpt><trkpt lat="44.30609077681371" lon="11.32870506125731"><ele>567.25</ele><time>2026-05-01T08:37:51.986Z</time></trkpt><trkpt lat="44.30603466136846" lon="11.328850142553211"><ele>568.5</ele><time>2026-05-01T08:37:52.986Z</time></trkpt><trkpt lat="44.3059529624867" lon="11.329008755934323"><ele>569.75</ele><time>2026-05-01T08:37:53.986Z</time></trkpt><trkpt lat="44.30588912313346" lon="11.32917628331499"><ele>571.0</ele><time>2026-05-01T08:37:54.986Z</time></trkpt><trkpt lat="44.30583133540095" lon="11.32932547910633"><ele>568.2</ele><time>2026-05-01T08:37:55.986Z</time></trkpt><trkpt lat="44.30577211694005" lon="11.329440873202008"><ele>565.4000000000001</ele><time>2026-05-01T08:37:56.986Z</time></trkpt><trkpt lat="44.30569975465005" lon="11.329524826970252"><ele>562.6</ele><time>2026-05-01T08:37:57.986Z</time></trkpt><trkpt lat="44.30561644316684" lon="11.329552157816197"><ele>559.8000000000001</ele><time>2026-05-01T08:37:58.986Z</time></trkpt><trkpt lat="44.30552902909821" lon="11.329522422127823"><ele>557.0</ele><time>2026-05-01T08:37:59.986Z</time></trkpt><trkpt lat="44.30544783237386" lon="11.329453514633736"><ele>556.5</ele><time>2026-05-01T08:38:00.986Z</time></trkpt><trkpt lat="44.30537882782656" lon="11.329335056899044"><ele>556.0</ele><time>2026-05-01T08:38:01.986Z</time></trkpt><trkpt lat="44.30534137883521" lon="11.329174683074108"><ele>555.5</ele><time>2026-05-01T08:38:02.986Z</time></trkpt><trkpt lat="44.30531275853384" lon="11.328985275389893"><ele>555.0</ele><time>2026-05-01T08:38:03.986Z</time></trkpt><trkpt lat="44.30529622335665" lon="11.328774860989567"><ele>556.8</ele><time>2026-05-01T08:38:04.986Z</time></trkpt><trkpt lat="44.30528213910839" lon="11.328584744807708"><ele>558.6</ele><time>2026-05-01T08:38:05.986Z</time></trkpt><trkpt lat="44.305247747118585" lon="11.328421993786788"><ele>560.4</ele><time>2026-05-01T08:38:06.986Z</time></trkpt><trkpt lat="44.30523434090026" lon="11.32828248691593"><ele>562.2</ele><time>2026-05-01T08:38:07.986Z</time></trkpt><trkpt lat="44.30521537671304" lon="11.3281754720661"><ele>564.0</ele><time>2026-05-01T08:38:08.986Z</time></trkpt><trkpt lat="44.30515047332562" lon="11.328102584783244"><ele>564.0</ele><time>2026-05-01T08:38:09.986Z</time></trkpt><trkpt lat="44.30504899129562" lon="11.328074511750023"><ele>564.0</ele><time>2026-05-01T08:38:10.986Z</time></trkpt><trkpt lat="44.30498049529927" lon="11.328032384816192"><ele>564.0</ele><time>2026-05-01T08:38:11.986Z</time></trkpt><trkpt lat="44.30488112703935" lon="11.328073807664243"><ele>564.0</ele><time>2026-05-01T08:38:12.986Z</time></trkpt><trkpt lat="44.30479611043511" lon="11.328129056353161"><ele>564.0</ele><time>2026-05-01T08:38:13.986Z</time></trkpt><trkpt lat="44.30473665217944" lon="11.3282534739043"><ele>566.75</ele><time>2026-05-01T08:38:14.986Z</time></trkpt><trkpt lat="44.30470027113655" lon="11.328380865371967"><ele>569.5</ele><time>2026-05-01T08:38:15.986Z</time></trkpt><trkpt lat="44.3046639118271" lon="11.328537475380726"><ele>572.25</ele><time>2026-05-01T08:38:16.986Z</time></trkpt><trkpt lat="44.304630749055256" lon="11.328724910974715"><ele>575.0</ele><time>2026-05-01T08:38:17.986Z</time></trkpt><trkpt lat="44.30458814506651" lon="11.328925709281801"><ele>575.0</ele><time>2026-05-01T08:38:18.986Z</time></trkpt><trkpt lat="44.30453070819999" lon="11.329144107745849"><ele>575.0</ele><time>2026-05-01T08:38:19.986Z</time></trkpt><trkpt lat="44.304464204535776" lon="11.3293468173084"><ele>575.0</ele><time>2026-05-01T08:38:20.986Z</time></trkpt><trkpt lat="44.30442315043105" lon="11.329596277634005"><ele>572.3333333333333</ele><time>2026-05-01T08:38:21.986Z</time></trkpt><trkpt lat="44.30437008951424" lon="11.32987195318477"><ele>569.6666666666666</ele><time>2026-05-01T08:38:22.986Z</time></trkpt><trkpt lat="44.30435553810807" lon="11.330140446397108"><ele>567.0</ele><time>2026-05-01T08:38:23.986Z</time></trkpt><trkpt lat="44.3043036012831" lon="11.330399039158833"><ele>565.5</ele><time>2026-05-01T08:38:24.986Z</time></trkpt><trkpt lat="44.30428285422037" lon="11.330617282233106"><ele>564.0</ele><time>2026-05-01T08:38:25.986Z</time></trkpt><trkpt lat="44.30426733151112" lon="11.33080421009447"><ele>562.5</ele><time>2026-05-01T08:38:26.986Z</time></trkpt><trkpt lat="44.304241473780934" lon="11.330954191458632"><ele>561.0</ele><time>2026-05-01T08:38:27.986Z</time></trkpt><trkpt lat="44.30419112118222" lon="11.33106672088809"><ele>561.0</ele><time>2026-05-01T08:38:28.986Z</time></trkpt><trkpt lat="44.304079776810056" lon="11.331117133286952"><ele>561.0</ele><time>2026-05-01T08:38:29.986Z</time></trkpt><trkpt lat="44.303975960572004" lon="11.33117724545817"><ele>561.0</ele><time>2026-05-01T08:38:30.986Z</time></trkpt><trkpt lat="44.30384772136869" lon="11.331234296447485"><ele>561.0</ele><time>2026-05-01T08:38:31.986Z</time></trkpt><trkpt lat="44.3037256557222" lon="11.331236217920994"><ele>559.25</ele><time>2026-05-01T08:38:32.986Z</time></trkpt><trkpt lat="44.30362545633903" lon="11.331189883977068"><ele>557.5</ele><time>2026-05-01T08:38:33.986Z</time></trkpt><trkpt lat="44.30353238856551" lon="11.331070934104636"><ele>555.75</ele><time>2026-05-01T08:38:34.986Z</time></trkpt><trkpt lat="44.3034634021322" lon="11.330941357892955"><ele>554.0</ele><time>2026-05-01T08:38:35.986Z</time></trkpt><trkpt lat="44.30340478849895" lon="11.330795136978638"><ele>554.0</ele><time>2026-05-01T08:38:36.986Z</time></trkpt><trkpt lat="44.30337606448116" lon="11.33060574149704"><ele>554.0</ele><time>2026-05-01T08:38:37.986Z</time></trkpt><trkpt lat="44.30339295162922" lon="11.330428484076412"><ele>554.0</ele><time>2026-05-01T08:38:38.986Z</time></trkpt><trkpt lat="44.303399408135846" lon="11.330220207075815"><ele>554.0</ele><time>2026-05-01T08:38:39.986Z</time></trkpt><trkpt lat="44.30341048863896" lon="11.33001029484997"><ele>556.3333333333333</ele><time>2026-05-01T08:38:40.986Z</time></trkpt><trkpt lat="44.30338559919247" lon="11.329779965857519"><ele>558.6666666666666</ele><time>2026-05-01T08:38:41.986Z</time></trkpt><trkpt lat="44.30333487550973" lon="11.329527061073115"><ele>561.0</ele><time>2026-05-01T08:38:42.986Z</time></trkpt><trkpt lat="44.30328806010681" lon="11.329260163994393"><ele>563.6666666666666</ele><time>2026-05-01T08:38:43.986Z</time></trkpt><trkpt lat="44.3032171165844" lon="11.32898991969418"><ele>566.3333333333333</ele><time>2026-05-01T08:38:44.986Z</time></trkpt><trkpt lat="44.303125109851976" lon="11.328735842795156"><ele>569.0</ele><time>2026-05-01T08:38:45.986Z</time></trkpt><trkpt lat="44.30303526092447" lon="11.328522226765514"><ele>572.25</ele><time>2026-05-01T08:38:46.986Z</time></trkpt><trkpt lat="44.30295629478137" lon="11.32835645523153"><ele>575.5</ele><time>2026-05-01T08:38:47.986Z</time></trkpt><trkpt lat="44.302878255487705" lon="11.32825003452399"><ele>578.75</ele><time>2026-05-01T08:38:48.986Z</time></trkpt><trkpt lat="44.3027912537828" lon="11.328154591558135"><ele>582.0</ele><time>2026-05-01T08:38:49.986Z</time></trkpt><trkpt lat="44.30270451432666" lon="11.328112892424356"><ele>582.0</ele><time>2026-05-01T08:38:50.986Z</time></trkpt><trkpt lat="44.30261599019573" lon="11.328136835706161"><ele>582.0</ele><time>2026-05-01T08:38:51.986Z</time></trkpt><trkpt lat="44.302535315835826" lon="11.328197795002188"><ele>582.0</ele><time>2026-05-01T08:38:52.986Z</time></trkpt><trkpt lat="44.302463477015344" lon="11.328293834362778"><ele>582.0</ele><time>2026-05-01T08:38:53.986Z</time></trkpt><trkpt lat="44.30242899190703" lon="11.328437879761138"><ele>582.0</ele><time>2026-05-01T08:38:54.986Z</time></trkpt><trkpt lat="44.30244646092833" lon="11.328617105231205"><ele>582.0</ele><time>2026-05-01T08:38:55.986Z</time></trkpt><trkpt lat="44.302479203554135" lon="11.328804542886854"><ele>582.0</ele><time>2026-05-01T08:38:56.986Z</time></trkpt><trkpt lat="44.30249675754864" lon="11.328991985109491"><ele>582.0</ele><time>2026-05-01T08:38:57.986Z</time></trkpt><trkpt lat="44.30250344802781" lon="11.32916307283413"><ele>582.0</ele><time>2026-05-01T08:38:58.986Z</time></trkpt><trkpt lat="44.30248186867467" lon="11.329320578621969"><ele>581.0</ele><time>2026-05-01T08:38:59.986Z</time></trkpt><trkpt lat="44.302431919555076" lon="11.329497158806289"><ele>580.0</ele><time>2026-05-01T08:39:00.986Z</time></trkpt><trkpt lat="44.302376583103865" lon="11.329685772343282"><ele>579.0</ele><time>2026-05-01T08:39:01.986Z</time></trkpt><trkpt lat="44.302300782919154" lon="11.329840875766456"><ele>578.0</ele><time>2026-05-01T08:39:02.986Z</time></trkpt><trkpt lat="44.30219729615605" lon="11.330004086406227"><ele>588.0</ele><time>2026-05-01T08:39:03.986Z</time></trkpt><trkpt lat="44.302083552334246" lon="11.330154768259401"><ele>598.0</ele><time>2026-05-01T08:39:04.986Z</time></trkpt><trkpt lat="44.30196523696877" lon="11.330330222574856"><ele>608.0</ele><time>2026-05-01T08:39:05.986Z</time></trkpt><trkpt lat="44.30188145676506" lon="11.330537831226959"><ele>603.4</ele><time>2026-05-01T08:39:06.986Z</time></trkpt><trkpt lat="44.30181793991504" lon="11.33071055070536"><ele>598.8</ele><time>2026-05-01T08:39:07.986Z</time></trkpt><trkpt lat="44.301785945705326" lon="11.330852506921667"><ele>594.2</ele><time>2026-05-01T08:39:08.986Z</time></trkpt><trkpt lat="44.3017798371042" lon="11.330972890789564"><ele>589.6</ele><time>2026-05-01T08:39:09.986Z</time></trkpt><trkpt lat="44.30176452149959" lon="11.331118359564956"><ele>585.0</ele><time>2026-05-01T08:39:10.986Z</time></trkpt><trkpt lat="44.3017287238925" lon="11.331286091813336"><ele>582.0</ele><time>2026-05-01T08:39:11.986Z</time></trkpt><trkpt lat="44.301707755596645" lon="11.331457233494781"><ele>579.0</ele><time>2026-05-01T08:39:12.986Z</time></trkpt><trkpt lat="44.30165394976072" lon="11.3315950048271"><ele>576.0</ele><time>2026-05-01T08:39:13.986Z</time></trkpt><trkpt lat="44.30159432142206" lon="11.331686008758954"><ele>573.0</ele><time>2026-05-01T08:39:14.986Z</time></trkpt><trkpt lat="44.30149030954448" lon="11.33171972299555"><ele>570.0</ele><time>2026-05-01T08:39:15.986Z</time></trkpt><trkpt lat="44.301380937095914" lon="11.331722036378846"><ele>576.4</ele><time>2026-05-01T08:39:16.986Z</time></trkpt><trkpt lat="44.30127075475008" lon="11.331711224243486"><ele>582.8</ele><time>2026-05-01T08:39:17.986Z</time></trkpt><trkpt lat="44.30118619756501" lon="11.33173632308373"><ele>589.2</ele><time>2026-05-01T08:39:18.986Z</time></trkpt><trkpt lat="44.301138636568005" lon="11.331832366090945"><ele>595.6</ele><time>2026-05-01T08:39:19.986Z</time></trkpt><trkpt lat="44.301111403450655" lon="11.331975021443238"><ele>602.0</ele><time>2026-05-01T08:39:20.986Z</time></trkpt><trkpt lat="44.3011156961008" lon="11.332136038274625"><ele>598.0</ele><time>2026-05-01T08:39:21.986Z</time></trkpt><trkpt lat="44.30111780876605" lon="11.332314256820718"><ele>594.0</ele><time>2026-05-01T08:39:22.986Z</time></trkpt><trkpt lat="44.301087155195795" lon="11.33248499480607"><ele>590.0</ele><time>2026-05-01T08:39:23.986Z</time></trkpt><trkpt lat="44.301027823644425" lon="11.332637877766214"><ele>586.0</ele><time>2026-05-01T08:39:24.986Z</time></trkpt><trkpt lat="44.300992091333136" lon="11.33276406180518"><ele>586.0</ele><time>2026-05-01T08:39:25.986Z</time></trkpt><trkpt lat="44.30101620867604" lon="11.332895545123288"><ele>586.0</ele><time>2026-05-01T08:39:26.986Z</time></trkpt><trkpt lat="44.30108330640869" lon="11.333009895055"><ele>586.0</ele><time>2026-05-01T08:39:27.986Z</time></trkpt><trkpt lat="44.30116815598165" lon="11.333148288159881"><ele>586.0</ele><time>2026-05-01T08:39:28.985Z</time></trkpt><trkpt lat="44.3012725529694" lon="11.33330755471657"><ele>586.6666666666667</ele><time>2026-05-01T08:39:29.985Z</time></trkpt><trkpt lat="44.30138881350194" lon="11.333487534377863"><ele>587.3333333333334</ele><time>2026-05-01T08:39:30.985Z</time></trkpt><trkpt lat="44.301503971146545" lon="11.333638846138857"><ele>588.0</ele><time>2026-05-01T08:39:31.985Z</time></trkpt><trkpt lat="44.30162052058046" lon="11.333755292237072"><ele>585.5</ele><time>2026-05-01T08:39:32.985Z</time></trkpt><trkpt lat="44.30171936749446" lon="11.333847425028736"><ele>583.0</ele><time>2026-05-01T08:39:33.985Z</time></trkpt><trkpt lat="44.30176228340685" lon="11.333983375546724"><ele>580.5</ele><time>2026-05-01T08:39:34.985Z</time></trkpt><trkpt lat="44.30180171779223" lon="11.33415719689244"><ele>578.0</ele><time>2026-05-01T08:39:35.985Z</time></trkpt><trkpt lat="44.30180861578837" lon="11.334333553519588"><ele>578.0</ele><time>2026-05-01T08:39:36.985Z</time></trkpt><trkpt lat="44.30179956780187" lon="11.33454816396961"><ele>578.0</ele><time>2026-05-01T08:39:37.985Z</time></trkpt><trkpt lat="44.301770334286225" lon="11.334744886438077"><ele>578.0</ele><time>2026-05-01T08:39:38.985Z</time></trkpt><trkpt lat="44.30171669415247" lon="11.334936921196695"><ele>578.0</ele><time>2026-05-01T08:39:39.985Z</time></trkpt><trkpt lat="44.30166152780979" lon="11.335117082850024"><ele>578.0</ele><time>2026-05-01T08:39:40.985Z</time></trkpt><trkpt lat="44.30156136805399" lon="11.335233845296626"><ele>578.0</ele><time>2026-05-01T08:39:41.985Z</time></trkpt><trkpt lat="44.30146955600695" lon="11.335291590869105"><ele>578.0</ele><time>2026-05-01T08:39:42.985Z</time></trkpt><trkpt lat="44.301372862695054" lon="11.335333999806771"><ele>578.0</ele><time>2026-05-01T08:39:43.985Z</time></trkpt><trkpt lat="44.30125527799577" lon="11.335343906634526"><ele>576.3333333333333</ele><time>2026-05-01T08:39:44.985Z</time></trkpt><trkpt lat="44.30112823100361" lon="11.335372042277513"><ele>574.6666666666666</ele><time>2026-05-01T08:39:45.985Z</time></trkpt><trkpt lat="44.30097207025009" lon="11.335457421706757"><ele>573.0</ele><time>2026-05-01T08:39:46.985Z</time></trkpt><trkpt lat="44.30083343266467" lon="11.33558972980926"><ele>573.0</ele><time>2026-05-01T08:39:47.984Z</time></trkpt><trkpt lat="44.30066505403731" lon="11.33571036595226"><ele>573.0</ele><time>2026-05-01T08:39:48.983Z</time></trkpt><trkpt lat="44.30048151746175" lon="11.335803564454332"><ele>573.0</ele><time>2026-05-01T08:39:49.983Z</time></trkpt><trkpt lat="44.300297056273905" lon="11.3359299235826"><ele>578.6666666666666</ele><time>2026-05-01T08:39:50.983Z</time></trkpt><trkpt lat="44.30014091275866" lon="11.336089046687919"><ele>584.3333333333333</ele><time>2026-05-01T08:39:51.983Z</time></trkpt><trkpt lat="44.29999520322363" lon="11.33622246523266"><ele>590.0</ele><time>2026-05-01T08:39:52.983Z</time></trkpt><trkpt lat="44.299852566074556" lon="11.336308612565373"><ele>586.5</ele><time>2026-05-01T08:39:53.983Z</time></trkpt><trkpt lat="44.29974178525374" lon="11.336419765730117"><ele>583.0</ele><time>2026-05-01T08:39:54.983Z</time></trkpt><trkpt lat="44.29963396587713" lon="11.336522580964088"><ele>579.5</ele><time>2026-05-01T08:39:55.983Z</time></trkpt><trkpt lat="44.29952422935271" lon="11.33660839250298"><ele>576.0</ele><time>2026-05-01T08:39:56.983Z</time></trkpt><trkpt lat="44.29940431985396" lon="11.336656289186307"><ele>576.0</ele><time>2026-05-01T08:39:57.983Z</time></trkpt><trkpt lat="44.29927394583164" lon="11.33666338060127"><ele>576.0</ele><time>2026-05-01T08:39:58.983Z</time></trkpt><trkpt lat="44.2991438690836" lon="11.336636307901207"><ele>576.0</ele><time>2026-05-01T08:39:59.983Z</time></trkpt><trkpt lat="44.29904111018692" lon="11.336584585477413"><ele>576.0</ele><time>2026-05-01T08:40:00.983Z</time></trkpt><trkpt lat="44.298971245068316" lon="11.336481526148763"><ele>580.8</ele><time>2026-05-01T08:40:01.983Z</time></trkpt><trkpt lat="44.298909215609946" lon="11.336371210422476"><ele>585.6</ele><time>2026-05-01T08:40:02.983Z</time></trkpt><trkpt lat="44.29885113402809" lon="11.336287038387288"><ele>590.4</ele><time>2026-05-01T08:40:03.983Z</time></trkpt><trkpt lat="44.29877459027723" lon="11.336244328228995"><ele>595.2</ele><time>2026-05-01T08:40:04.983Z</time></trkpt><trkpt lat="44.29868767185124" lon="11.336240447873648"><ele>600.0</ele><time>2026-05-01T08:40:05.983Z</time></trkpt><trkpt lat="44.29859591933803" lon="11.336291048423194"><ele>596.75</ele><time>2026-05-01T08:40:06.983Z</time></trkpt><trkpt lat="44.298526223687496" lon="11.336397032395883"><ele>593.5</ele><time>2026-05-01T08:40:07.983Z</time></trkpt><trkpt lat="44.298478198663254" lon="11.336518455511793"><ele>590.25</ele><time>2026-05-01T08:40:08.983Z</time></trkpt><trkpt lat="44.298416490869904" lon="11.33667802020219"><ele>587.0</ele><time>2026-05-01T08:40:09.983Z</time></trkpt><trkpt lat="44.298304532280376" lon="11.336876192393397"><ele>587.0</ele><time>2026-05-01T08:40:10.983Z</time></trkpt><trkpt lat="44.29821808744845" lon="11.337038759155446"><ele>587.0</ele><time>2026-05-01T08:40:11.983Z</time></trkpt><trkpt lat="44.298099500291826" lon="11.337207028328304"><ele>587.0</ele><time>2026-05-01T08:40:12.983Z</time></trkpt><trkpt lat="44.29795235792519" lon="11.337374670148789"><ele>584.3333333333333</ele><time>2026-05-01T08:40:13.983Z</time></trkpt><trkpt lat="44.29782021706808" lon="11.337524297031306"><ele>581.6666666666666</ele><time>2026-05-01T08:40:14.983Z</time></trkpt><trkpt lat="44.29769928524931" lon="11.337664637531306"><ele>579.0</ele><time>2026-05-01T08:40:15.983Z</time></trkpt><trkpt lat="44.297602492652466" lon="11.33779758775432"><ele>579.0</ele><time>2026-05-01T08:40:16.983Z</time></trkpt><trkpt lat="44.29752976253105" lon="11.337919122060725"><ele>579.0</ele><time>2026-05-01T08:40:17.983Z</time></trkpt><trkpt lat="44.29744928918449" lon="11.337973387775387"><ele>579.0</ele><time>2026-05-01T08:40:18.983Z</time></trkpt><trkpt lat="44.29737470462593" lon="11.337971654166232"><ele>579.0</ele><time>2026-05-01T08:40:19.983Z</time></trkpt><trkpt lat="44.29730841739056" lon="11.337895535748117"><ele>579.0</ele><time>2026-05-01T08:40:20.983Z</time></trkpt><trkpt lat="44.297272313359834" lon="11.337801284881992"><ele>579.0</ele><time>2026-05-01T08:40:21.983Z</time></trkpt><trkpt lat="44.29724915215244" lon="11.33768465766467"><ele>579.0</ele><time>2026-05-01T08:40:22.983Z</time></trkpt><trkpt lat="44.297239952969825" lon="11.337567997203605"><ele>579.0</ele><time>2026-05-01T08:40:23.983Z</time></trkpt><trkpt lat="44.2972307838612" lon="11.337443886753524"><ele>579.0</ele><time>2026-05-01T08:40:24.983Z</time></trkpt><trkpt lat="44.29715040138528" lon="11.33732484386099"><ele>579.0</ele><time>2026-05-01T08:40:25.983Z</time></trkpt><trkpt lat="44.29705967337588" lon="11.33726431470851"><ele>579.0</ele><time>2026-05-01T08:40:26.983Z</time></trkpt><trkpt lat="44.29697893964353" lon="11.337249124593566"><ele>579.0</ele><time>2026-05-01T08:40:27.983Z</time></trkpt><trkpt lat="44.29687016898941" lon="11.337250517543728"><ele>579.0</ele><time>2026-05-01T08:40:28.983Z</time></trkpt><trkpt lat="44.296753839325795" lon="11.337315849081836"><ele>579.0</ele><time>2026-05-01T08:40:29.983Z</time></trkpt><trkpt lat="44.29662121154686" lon="11.3374347505126"><ele>579.0</ele><time>2026-05-01T08:40:30.983Z</time></trkpt><trkpt lat="44.29650313768282" lon="11.337552254121931"><ele>583.25</ele><time>2026-05-01T08:40:31.983Z</time></trkpt><trkpt lat="44.29638816491493" lon="11.337669813417978"><ele>587.5</ele><time>2026-05-01T08:40:32.983Z</time></trkpt><trkpt lat="44.296266892032655" lon="11.337793817685764"><ele>591.75</ele><time>2026-05-01T08:40:33.983Z</time></trkpt><trkpt lat="44.29614441807846" lon="11.33792167441671"><ele>596.0</ele><time>2026-05-01T08:40:34.983Z</time></trkpt><trkpt lat="44.29602668120048" lon="11.338048631262383"><ele>591.25</ele><time>2026-05-01T08:40:35.983Z</time></trkpt><trkpt lat="44.295927429926834" lon="11.338190125682804"><ele>586.5</ele><time>2026-05-01T08:40:36.983Z</time></trkpt><trkpt lat="44.29584682575898" lon="11.33832871723093"><ele>581.75</ele><time>2026-05-01T08:40:37.983Z</time></trkpt><trkpt lat="44.295761805953084" lon="11.338432419897487"><ele>577.0</ele><time>2026-05-01T08:40:38.983Z</time></trkpt><trkpt lat="44.29567192928647" lon="11.338513269698241"><ele>580.75</ele><time>2026-05-01T08:40:39.983Z</time></trkpt><trkpt lat="44.29556679775721" lon="11.338603044081601"><ele>584.5</ele><time>2026-05-01T08:40:40.983Z</time></trkpt><trkpt lat="44.29544416373796" lon="11.338705074596646"><ele>588.25</ele><time>2026-05-01T08:40:41.983Z</time></trkpt><trkpt lat="44.295314533034315" lon="11.338804368912701"><ele>592.0</ele><time>2026-05-01T08:40:42.983Z</time></trkpt><trkpt lat="44.29518786879017" lon="11.338882793404297"><ele>587.75</ele><time>2026-05-01T08:40:43.983Z</time></trkpt><trkpt lat="44.295070959196345" lon="11.338932604538915"><ele>583.5</ele><time>2026-05-01T08:40:44.983Z</time></trkpt><trkpt lat="44.29492081930399" lon="11.33900843824236"><ele>579.25</ele><time>2026-05-01T08:40:45.983Z</time></trkpt><trkpt lat="44.294786692212476" lon="11.339052595043576"><ele>575.0</ele><time>2026-05-01T08:40:46.983Z</time></trkpt><trkpt lat="44.2946880524409" lon="11.33914944925617"><ele>575.0</ele><time>2026-05-01T08:40:47.983Z</time></trkpt><trkpt lat="44.29460690449897" lon="11.33928653671768"><ele>575.0</ele><time>2026-05-01T08:40:48.983Z</time></trkpt><trkpt lat="44.29455103971927" lon="11.339398453063996"><ele>575.0</ele><time>2026-05-01T08:40:49.983Z</time></trkpt><trkpt lat="44.2944773993597" lon="11.339461118557164"><ele>575.0</ele><time>2026-05-01T08:40:50.983Z</time></trkpt><trkpt lat="44.29439212483235" lon="11.3394585410246"><ele>575.0</ele><time>2026-05-01T08:40:51.983Z</time></trkpt><trkpt lat="44.294308093772536" lon="11.339409513364217"><ele>575.0</ele><time>2026-05-01T08:40:52.983Z</time></trkpt><trkpt lat="44.29424184468777" lon="11.33931068679214"><ele>575.0</ele><time>2026-05-01T08:40:53.982Z</time></trkpt><trkpt lat="44.294181149122366" lon="11.33918149951327"><ele>575.0</ele><time>2026-05-01T08:40:54.982Z</time></trkpt><trkpt lat="44.29409509852749" lon="11.339046755235204"><ele>575.0</ele><time>2026-05-01T08:40:55.982Z</time></trkpt><trkpt lat="44.293996812622474" lon="11.338950524024327"><ele>575.5</ele><time>2026-05-01T08:40:56.982Z</time></trkpt><trkpt lat="44.293878954476696" lon="11.338872781690004"><ele>576.0</ele><time>2026-05-01T08:40:57.982Z</time></trkpt><trkpt lat="44.29377462821584" lon="11.338781711173098"><ele>576.5</ele><time>2026-05-01T08:40:58.982Z</time></trkpt><trkpt lat="44.29368325690837" lon="11.338643281703842"><ele>577.0</ele><time>2026-05-01T08:40:59.982Z</time></trkpt><trkpt lat="44.29361690504203" lon="11.338480704653186"><ele>577.0</ele><time>2026-05-01T08:41:00.982Z</time></trkpt><trkpt lat="44.29355267261581" lon="11.338339976737544"><ele>577.0</ele><time>2026-05-01T08:41:01.982Z</time></trkpt><trkpt lat="44.293490925052225" lon="11.33824085494721"><ele>577.0</ele><time>2026-05-01T08:41:02.982Z</time></trkpt><trkpt lat="44.29339634562366" lon="11.338194082836422"><ele>577.0</ele><time>2026-05-01T08:41:03.982Z</time></trkpt><trkpt lat="44.293274140618664" lon="11.338178509465491"><ele>577.0</ele><time>2026-05-01T08:41:04.982Z</time></trkpt><trkpt lat="44.29314618041442" lon="11.338192451190638"><ele>576.5</ele><time>2026-05-01T08:41:05.982Z</time></trkpt><trkpt lat="44.29300480758223" lon="11.3382319727286"><ele>576.0</ele><time>2026-05-01T08:41:06.982Z</time></trkpt><trkpt lat="44.29286613198999" lon="11.33827541438841"><ele>575.5</ele><time>2026-05-01T08:41:07.982Z</time></trkpt><trkpt lat="44.292734492578546" lon="11.338320708677108"><ele>575.0</ele><time>2026-05-01T08:41:08.982Z</time></trkpt><trkpt lat="44.292607144464945" lon="11.338336956049144"><ele>575.0</ele><time>2026-05-01T08:41:09.982Z</time></trkpt><trkpt lat="44.29248389943394" lon="11.338370128434"><ele>575.0</ele><time>2026-05-01T08:41:10.982Z</time></trkpt><trkpt lat="44.292362435624455" lon="11.338327103766202"><ele>575.0</ele><time>2026-05-01T08:41:11.982Z</time></trkpt><trkpt lat="44.29224883295288" lon="11.338285713825368"><ele>575.0</ele><time>2026-05-01T08:41:12.982Z</time></trkpt><trkpt lat="44.29216524426907" lon="11.338249921831924"><ele>575.8333333333333</ele><time>2026-05-01T08:41:13.982Z</time></trkpt><trkpt lat="44.29210542537288" lon="11.338172697076093"><ele>576.6666666666666</ele><time>2026-05-01T08:41:15.982Z</time></trkpt><trkpt lat="44.29209278926486" lon="11.338025008863228"><ele>577.5</ele><time>2026-05-01T08:41:17.982Z</time></trkpt><trkpt lat="44.29205329145175" lon="11.337942243382752"><ele>578.3333333333334</ele><time>2026-05-01T08:41:18.982Z</time></trkpt><trkpt lat="44.292004993751135" lon="11.337840094929627"><ele>579.1666666666667</ele><time>2026-05-01T08:41:19.982Z</time></trkpt><trkpt lat="44.29196050850288" lon="11.337728109175"><ele>580.0</ele><time>2026-05-01T08:41:20.982Z</time></trkpt><trkpt lat="44.29189393671389" lon="11.337629964594095"><ele>581.6666666666667</ele><time>2026-05-01T08:41:21.982Z</time></trkpt><trkpt lat="44.291816326527545" lon="11.337560943532502"><ele>583.3333333333334</ele><time>2026-05-01T08:41:22.982Z</time></trkpt><trkpt lat="44.291740524121415" lon="11.337483522073578"><ele>585.0</ele><time>2026-05-01T08:41:23.982Z</time></trkpt><trkpt lat="44.29165930667939" lon="11.33741301358334"><ele>586.6666666666666</ele><time>2026-05-01T08:41:24.982Z</time></trkpt><trkpt lat="44.291610614143686" lon="11.337348130856677"><ele>588.3333333333333</ele><time>2026-05-01T08:41:25.982Z</time></trkpt><trkpt lat="44.29154076258078" lon="11.337318338662001"><ele>590.0</ele><time>2026-05-01T08:41:26.982Z</time></trkpt><trkpt lat="44.291510174480926" lon="11.337169057348547"><ele>591.0</ele><time>2026-05-01T08:41:28.982Z</time></trkpt><trkpt lat="44.29153901856499" lon="11.337081206908055"><ele>592.0</ele><time>2026-05-01T08:41:29.982Z</time></trkpt><trkpt lat="44.29159102133466" lon="11.336979294004566"><ele>593.0</ele><time>2026-05-01T08:41:30.982Z</time></trkpt><trkpt lat="44.291636073579674" lon="11.336877560057712"><ele>594.0</ele><time>2026-05-01T08:41:31.982Z</time></trkpt><trkpt lat="44.29168421914443" lon="11.336768608799932"><ele>595.0</ele><time>2026-05-01T08:41:32.982Z</time></trkpt><trkpt lat="44.2917212313409" lon="11.336655036373076"><ele>596.0</ele><time>2026-05-01T08:41:33.982Z</time></trkpt><trkpt lat="44.291748427792164" lon="11.336535876563076"><ele>596.0</ele><time>2026-05-01T08:41:34.982Z</time></trkpt><trkpt lat="44.29180807973979" lon="11.336414124563596"><ele>596.0</ele><time>2026-05-01T08:41:35.982Z</time></trkpt><trkpt lat="44.29186891639174" lon="11.33628826963862"><ele>596.0</ele><time>2026-05-01T08:41:36.982Z</time></trkpt><trkpt lat="44.29191037311934" lon="11.336197308240981"><ele>596.0</ele><time>2026-05-01T08:41:37.982Z</time></trkpt><trkpt lat="44.29200689033461" lon="11.33609234110984"><ele>596.0</ele><time>2026-05-01T08:41:39.982Z</time></trkpt><trkpt lat="44.2920921579722" lon="11.336041978322148"><ele>597.2</ele><time>2026-05-01T08:41:40.982Z</time></trkpt><trkpt lat="44.29216924844303" lon="11.335959042116933"><ele>598.4000000000001</ele><time>2026-05-01T08:41:41.982Z</time></trkpt><trkpt lat="44.29223489979353" lon="11.335882049300201"><ele>599.6</ele><time>2026-05-01T08:41:42.982Z</time></trkpt><trkpt lat="44.29228124937811" lon="11.33577689386047"><ele>600.8000000000001</ele><time>2026-05-01T08:41:43.982Z</time></trkpt><trkpt lat="44.29230526392951" lon="11.335664296920184"><ele>602.0</ele><time>2026-05-01T08:41:44.982Z</time></trkpt><trkpt lat="44.29232461797662" lon="11.33552754614537"><ele>604.4</ele><time>2026-05-01T08:41:45.982Z</time></trkpt><trkpt lat="44.292331114811155" lon="11.335379532821202"><ele>606.8000000000001</ele><time>2026-05-01T08:41:46.982Z</time></trkpt><trkpt lat="44.29232324504585" lon="11.335251056195096"><ele>609.2</ele><time>2026-05-01T08:41:47.982Z</time></trkpt><trkpt lat="44.29233577159199" lon="11.33512965021455"><ele>611.6</ele><time>2026-05-01T08:41:49.982Z</time></trkpt><trkpt lat="44.2924019376816" lon="11.335037303986875"><ele>614.0</ele><time>2026-05-01T08:41:51.982Z</time></trkpt><trkpt lat="44.292423790540596" lon="11.334932981968333"><ele>614.0</ele><time>2026-05-01T08:41:54.98Z</time></trkpt><trkpt lat="44.29246056392232" lon="11.334826924886961"><ele>614.0</ele><time>2026-05-01T08:41:57.98Z</time></trkpt><trkpt lat="44.29250251200124" lon="11.334726788089016"><ele>614.0</ele><time>2026-05-01T08:42:10.98Z</time></trkpt><trkpt lat="44.29244399881203" lon="11.334811653687169"><ele>614.0</ele><time>2026-05-01T08:42:22.98Z</time></trkpt><trkpt lat="44.29239831081071" lon="11.334875248681"><ele>614.0</ele><time>2026-05-01T08:42:24.98Z</time></trkpt><trkpt lat="44.29239515222866" lon="11.33497175319677"><ele>614.0</ele><time>2026-05-01T08:42:26.98Z</time></trkpt><trkpt lat="44.29237579212477" lon="11.335065858101437"><ele>614.0</ele><time>2026-05-01T08:42:28.98Z</time></trkpt><trkpt lat="44.292315590022625" lon="11.335156852236661"><ele>614.0</ele><time>2026-05-01T08:42:30.98Z</time></trkpt><trkpt lat="44.29227528909486" lon="11.335277237492784"><ele>614.0</ele><time>2026-05-01T08:42:33.98Z</time></trkpt><trkpt lat="44.29223005286999" lon="11.335366168616906"><ele>614.0</ele><time>2026-05-01T08:42:34.98Z</time></trkpt><trkpt lat="44.2923123231546" lon="11.335579049973953"><ele>614.0</ele><time>2026-05-01T08:42:35.98Z</time></trkpt><trkpt lat="44.29228829004947" lon="11.33567736262993"><ele>612.4285714285713</ele><time>2026-05-01T08:42:36.98Z</time></trkpt><trkpt lat="44.292261155521956" lon="11.335763948141409"><ele>610.8571428571429</ele><time>2026-05-01T08:42:37.98Z</time></trkpt><trkpt lat="44.29221246483803" lon="11.33585233218804"><ele>609.2857142857142</ele><time>2026-05-01T08:42:38.98Z</time></trkpt><trkpt lat="44.292151115101284" lon="11.335932705967119"><ele>607.7142857142857</ele><time>2026-05-01T08:42:39.98Z</time></trkpt><trkpt lat="44.292086667838404" lon="11.335998326665772"><ele>606.1428571428571</ele><time>2026-05-01T08:42:40.98Z</time></trkpt><trkpt lat="44.292026337056015" lon="11.336052926744753"><ele>604.5714285714286</ele><time>2026-05-01T08:42:41.98Z</time></trkpt><trkpt lat="44.291966414014695" lon="11.336081140397951"><ele>603.0</ele><time>2026-05-01T08:42:42.98Z</time></trkpt><trkpt lat="44.29186795561331" lon="11.336181246614954"><ele>602.8333333333334</ele><time>2026-05-01T08:42:44.98Z</time></trkpt><trkpt lat="44.29183396167467" lon="11.336259094897532"><ele>602.6666666666666</ele><time>2026-05-01T08:42:45.98Z</time></trkpt><trkpt lat="44.291794532028014" lon="11.336373926326432"><ele>602.5</ele><time>2026-05-01T08:42:46.98Z</time></trkpt><trkpt lat="44.2917499722488" lon="11.33645561263911"><ele>602.3333333333333</ele><time>2026-05-01T08:42:47.98Z</time></trkpt><trkpt lat="44.29171483860862" lon="11.33654831426553"><ele>602.1666666666666</ele><time>2026-05-01T08:42:48.98Z</time></trkpt><trkpt lat="44.29169527122475" lon="11.33665158490088"><ele>602.0</ele><time>2026-05-01T08:42:49.98Z</time></trkpt><trkpt lat="44.29163712825221" lon="11.336724200943324"><ele>600.8000000000001</ele><time>2026-05-01T08:42:50.98Z</time></trkpt><trkpt lat="44.29157038234866" lon="11.336897405990513"><ele>599.6</ele><time>2026-05-01T08:42:52.98Z</time></trkpt><trkpt lat="44.29153280860662" lon="11.336991001512807"><ele>598.4000000000001</ele><time>2026-05-01T08:42:53.98Z</time></trkpt><trkpt lat="44.29149931212857" lon="11.337069052275973"><ele>597.2</ele><time>2026-05-01T08:42:54.98Z</time></trkpt><trkpt lat="44.291468542566484" lon="11.337245519197406"><ele>596.0</ele><time>2026-05-01T08:42:56.98Z</time></trkpt><trkpt lat="44.29150676746015" lon="11.33734472458474"><ele>595.0</ele><time>2026-05-01T08:42:57.98Z</time></trkpt><trkpt lat="44.291602010651445" lon="11.337395244889247"><ele>594.0</ele><time>2026-05-01T08:42:58.98Z</time></trkpt><trkpt lat="44.29166555476255" lon="11.33743893383489"><ele>593.0</ele><time>2026-05-01T08:42:59.98Z</time></trkpt><trkpt lat="44.291715854993356" lon="11.337503822077394"><ele>592.0</ele><time>2026-05-01T08:43:00.98Z</time></trkpt><trkpt lat="44.29177438144157" lon="11.337563055041588"><ele>591.0</ele><time>2026-05-01T08:43:01.98Z</time></trkpt><trkpt lat="44.291826625955416" lon="11.337616311077966"><ele>590.0</ele><time>2026-05-01T08:43:02.98Z</time></trkpt><trkpt lat="44.291883732956144" lon="11.3376799916276"><ele>590.0000000000001</ele><time>2026-05-01T08:43:03.98Z</time></trkpt><trkpt lat="44.29193611667267" lon="11.337759140535805"><ele>590.0</ele><time>2026-05-01T08:43:04.98Z</time></trkpt><trkpt lat="44.29198666916605" lon="11.337813934776497"><ele>590.0</ele><time>2026-05-01T08:43:05.98Z</time></trkpt><trkpt lat="44.292020805409386" lon="11.337889518996978"><ele>590.0</ele><time>2026-05-01T08:43:06.98Z</time></trkpt><trkpt lat="44.29205860783059" lon="11.33796361176632"><ele>590.0</ele><time>2026-05-01T08:43:07.98Z</time></trkpt><trkpt lat="44.292071459407815" lon="11.338068150552566"><ele>590.0000000000001</ele><time>2026-05-01T08:43:09.98Z</time></trkpt><trkpt lat="44.29206854504759" lon="11.33818175032884"><ele>590.0</ele><time>2026-05-01T08:43:14.98Z</time></trkpt><trkpt lat="44.29192952524261" lon="11.33822693944236"><ele>588.0</ele><time>2026-05-01T08:43:16.98Z</time></trkpt><trkpt lat="44.29184561719048" lon="11.338279496943139"><ele>586.0</ele><time>2026-05-01T08:43:17.98Z</time></trkpt><trkpt lat="44.291752412971626" lon="11.338316299503697"><ele>584.0</ele><time>2026-05-01T08:43:18.98Z</time></trkpt><trkpt lat="44.29165238116982" lon="11.338364218190963"><ele>582.0</ele><time>2026-05-01T08:43:19.98Z</time></trkpt><trkpt lat="44.291540879911814" lon="11.338435921867545"><ele>580.0</ele><time>2026-05-01T08:43:20.98Z</time></trkpt><trkpt lat="44.29142386800073" lon="11.338513532978112"><ele>579.5</ele><time>2026-05-01T08:43:21.98Z</time></trkpt><trkpt lat="44.29130941453638" lon="11.338574372602135"><ele>579.0</ele><time>2026-05-01T08:43:22.98Z</time></trkpt><trkpt lat="44.29119898921754" lon="11.33863450399883"><ele>578.5</ele><time>2026-05-01T08:43:23.98Z</time></trkpt><trkpt lat="44.291091430494866" lon="11.338663567332775"><ele>578.0</ele><time>2026-05-01T08:43:24.98Z</time></trkpt><trkpt lat="44.29098306453886" lon="11.338668923959938"><ele>578.0</ele><time>2026-05-01T08:43:25.98Z</time></trkpt><trkpt lat="44.29085794673256" lon="11.338632694508949"><ele>578.0</ele><time>2026-05-01T08:43:26.98Z</time></trkpt><trkpt lat="44.290725388361" lon="11.338564502678713"><ele>578.0</ele><time>2026-05-01T08:43:27.98Z</time></trkpt><trkpt lat="44.29058674883012" lon="11.338491882465965"><ele>578.0</ele><time>2026-05-01T08:43:28.979Z</time></trkpt><trkpt lat="44.290449774450906" lon="11.33839936857191"><ele>576.75</ele><time>2026-05-01T08:43:29.979Z</time></trkpt><trkpt lat="44.290312971316325" lon="11.338315316374379"><ele>575.5</ele><time>2026-05-01T08:43:30.979Z</time></trkpt><trkpt lat="44.290181839391025" lon="11.338243295637223"><ele>574.25</ele><time>2026-05-01T08:43:31.979Z</time></trkpt><trkpt lat="44.29006661059942" lon="11.338174499882586"><ele>573.0</ele><time>2026-05-01T08:43:32.979Z</time></trkpt><trkpt lat="44.289956161502026" lon="11.338122852769207"><ele>573.0</ele><time>2026-05-01T08:43:33.979Z</time></trkpt><trkpt lat="44.28984797073065" lon="11.338099984101477"><ele>573.0</ele><time>2026-05-01T08:43:34.979Z</time></trkpt><trkpt lat="44.28975148003949" lon="11.338114921728357"><ele>573.0</ele><time>2026-05-01T08:43:35.979Z</time></trkpt><trkpt lat="44.28966514763837" lon="11.338160277410212"><ele>573.0</ele><time>2026-05-01T08:43:36.979Z</time></trkpt><trkpt lat="44.28958883917955" lon="11.338233158882613"><ele>573.0</ele><time>2026-05-01T08:43:37.979Z</time></trkpt><trkpt lat="44.289527471547075" lon="11.33831510576663"><ele>573.6666666666666</ele><time>2026-05-01T08:43:38.979Z</time></trkpt><trkpt lat="44.28947771594414" lon="11.338381977593349"><ele>574.3333333333334</ele><time>2026-05-01T08:43:39.979Z</time></trkpt><trkpt lat="44.289400595738606" lon="11.338476234984658"><ele>575.0</ele><time>2026-05-01T08:43:41.979Z</time></trkpt><trkpt lat="44.289333366192466" lon="11.338526273561401"><ele>575.6666666666667</ele><time>2026-05-01T08:43:43.979Z</time></trkpt><trkpt lat="44.28924830423416" lon="11.338600466776223"><ele>576.3333333333334</ele><time>2026-05-01T08:43:53.979Z</time></trkpt><trkpt lat="44.28915837623357" lon="11.338605301444213"><ele>577.0</ele><time>2026-05-01T08:43:55.979Z</time></trkpt><trkpt lat="44.28904772688624" lon="11.338544822618923"><ele>577.0</ele><time>2026-05-01T08:43:57.979Z</time></trkpt><trkpt lat="44.28896104270008" lon="11.338584895085594"><ele>577.0</ele><time>2026-05-01T08:43:58.979Z</time></trkpt><trkpt lat="44.28890443756536" lon="11.338701399250594"><ele>577.0</ele><time>2026-05-01T08:43:59.978Z</time></trkpt><trkpt lat="44.28885787826531" lon="11.338796527493848"><ele>577.0</ele><time>2026-05-01T08:44:00.978Z</time></trkpt><trkpt lat="44.288816343722054" lon="11.338875834076267"><ele>577.0</ele><time>2026-05-01T08:44:01.978Z</time></trkpt><trkpt lat="44.28873401185035" lon="11.338933354047557"><ele>577.0</ele><time>2026-05-01T08:44:03.977Z</time></trkpt><trkpt lat="44.288629123915165" lon="11.33887743034535"><ele>580.5</ele><time>2026-05-01T08:44:05.978Z</time></trkpt><trkpt lat="44.28859641643898" lon="11.338779650534033"><ele>584.0</ele><time>2026-05-01T08:44:06.978Z</time></trkpt><trkpt lat="44.28861750094864" lon="11.338647108776671"><ele>587.5</ele><time>2026-05-01T08:44:07.978Z</time></trkpt><trkpt lat="44.28866803067605" lon="11.33854630189772"><ele>591.0</ele><time>2026-05-01T08:44:08.978Z</time></trkpt><trkpt lat="44.288705906998246" lon="11.338453582491473"><ele>594.5</ele><time>2026-05-01T08:44:09.977Z</time></trkpt><trkpt lat="44.28872587951817" lon="11.338367386732653"><ele>598.0</ele><time>2026-05-01T08:44:10.977Z</time></trkpt><trkpt lat="44.28869572978215" lon="11.338196471692523"><ele>598.0</ele><time>2026-05-01T08:44:12.978Z</time></trkpt><trkpt lat="44.28862369929704" lon="11.338137966805588"><ele>598.0</ele><time>2026-05-01T08:44:13.978Z</time></trkpt><trkpt lat="44.28854028989999" lon="11.33809008461879"><ele>598.0</ele><time>2026-05-01T08:44:14.978Z</time></trkpt><trkpt lat="44.28843679433946" lon="11.338081506436053"><ele>598.0</ele><time>2026-05-01T08:44:15.978Z</time></trkpt><trkpt lat="44.28833436240285" lon="11.338078891510209"><ele>598.0</ele><time>2026-05-01T08:44:16.978Z</time></trkpt><trkpt lat="44.28823109852074" lon="11.338076511007525"><ele>598.0</ele><time>2026-05-01T08:44:17.978Z</time></trkpt><trkpt lat="44.28812394852947" lon="11.338062533541702"><ele>598.0</ele><time>2026-05-01T08:44:18.978Z</time></trkpt><trkpt lat="44.28803026905516" lon="11.338026259862183"><ele>598.0</ele><time>2026-05-01T08:44:19.978Z</time></trkpt><trkpt lat="44.287957872184045" lon="11.337953302045563"><ele>598.0</ele><time>2026-05-01T08:44:20.978Z</time></trkpt><trkpt lat="44.28792034061931" lon="11.337852530288623"><ele>598.0</ele><time>2026-05-01T08:44:21.978Z</time></trkpt><trkpt lat="44.28790167808056" lon="11.337738787761356"><ele>603.4</ele><time>2026-05-01T08:44:22.978Z</time></trkpt><trkpt lat="44.28789244898353" lon="11.337604736201756"><ele>608.8</ele><time>2026-05-01T08:44:23.978Z</time></trkpt><trkpt lat="44.28787089024349" lon="11.337467330106053"><ele>614.2</ele><time>2026-05-01T08:44:24.978Z</time></trkpt><trkpt lat="44.28784712652366" lon="11.337315871289105"><ele>619.6</ele><time>2026-05-01T08:44:25.978Z</time></trkpt><trkpt lat="44.28783218869367" lon="11.337197969305228"><ele>625.0</ele><time>2026-05-01T08:44:26.978Z</time></trkpt><trkpt lat="44.28783384521987" lon="11.337024515735486"><ele>625.0</ele><time>2026-05-01T08:44:28.978Z</time></trkpt><trkpt lat="44.287856175254596" lon="11.336915530720361"><ele>625.0</ele><time>2026-05-01T08:44:29.978Z</time></trkpt><trkpt lat="44.28790661075599" lon="11.336816348899145"><ele>625.0</ele><time>2026-05-01T08:44:30.978Z</time></trkpt><trkpt lat="44.28798186389387" lon="11.336682063166865"><ele>625.0</ele><time>2026-05-01T08:44:31.978Z</time></trkpt><trkpt lat="44.288011224277206" lon="11.33647822415387"><ele>625.0</ele><time>2026-05-01T08:44:32.978Z</time></trkpt><trkpt lat="44.28807823580096" lon="11.336293135859306"><ele>624.2</ele><time>2026-05-01T08:44:33.978Z</time></trkpt><trkpt lat="44.288137598701034" lon="11.336121193771804"><ele>623.4</ele><time>2026-05-01T08:44:34.978Z</time></trkpt><trkpt lat="44.28819132732622" lon="11.335979839266354"><ele>622.6</ele><time>2026-05-01T08:44:35.978Z</time></trkpt><trkpt lat="44.288276567189676" lon="11.335924143913127"><ele>621.8</ele><time>2026-05-01T08:44:36.978Z</time></trkpt><trkpt lat="44.28831650533803" lon="11.33585326544862"><ele>621.0</ele><time>2026-05-01T08:44:37.978Z</time></trkpt><trkpt lat="44.288283402030174" lon="11.335654820128376"><ele>621.0</ele><time>2026-05-01T08:44:41.978Z</time></trkpt><trkpt lat="44.288162750156836" lon="11.33563748038702"><ele>621.0</ele><time>2026-05-01T08:44:42.978Z</time></trkpt><trkpt lat="44.28808758998903" lon="11.335613236665045"><ele>621.0</ele><time>2026-05-01T08:44:43.978Z</time></trkpt><trkpt lat="44.287982717630875" lon="11.335594282678182"><ele>621.0</ele><time>2026-05-01T08:44:44.978Z</time></trkpt><trkpt lat="44.287899443137974" lon="11.335540958942172"><ele>621.0</ele><time>2026-05-01T08:44:45.978Z</time></trkpt><trkpt lat="44.28783499587693" lon="11.335504917383439"><ele>621.1666666666666</ele><time>2026-05-01T08:44:46.978Z</time></trkpt><trkpt lat="44.28776124468329" lon="11.335458147593515"><ele>621.3333333333334</ele><time>2026-05-01T08:44:48.978Z</time></trkpt><trkpt lat="44.28771450360867" lon="11.33537124669063"><ele>621.5</ele><time>2026-05-01T08:44:52.978Z</time></trkpt><trkpt lat="44.28770326670739" lon="11.335252333359977"><ele>621.6666666666667</ele><time>2026-05-01T08:44:54.978Z</time></trkpt><trkpt lat="44.28769024733144" lon="11.335166179178335"><ele>621.8333333333334</ele><time>2026-05-01T08:44:59.978Z</time></trkpt><trkpt lat="44.28771275671454" lon="11.335056327213803"><ele>622.0</ele><time>2026-05-01T08:45:07.978Z</time></trkpt><trkpt lat="44.287733695277225" lon="11.334918410990884"><ele>622.0</ele><time>2026-05-01T08:45:09.978Z</time></trkpt><trkpt lat="44.28775105875555" lon="11.334757372263136"><ele>622.0</ele><time>2026-05-01T08:45:11.978Z</time></trkpt><trkpt lat="44.2877907119032" lon="11.334593572150322"><ele>622.0</ele><time>2026-05-01T08:45:13.978Z</time></trkpt><trkpt lat="44.28781443428156" lon="11.334501982585602"><ele>622.0</ele><time>2026-05-01T08:45:14.978Z</time></trkpt><trkpt lat="44.28784778289406" lon="11.334380963370245"><ele>622.0</ele><time>2026-05-01T08:45:16.978Z</time></trkpt><trkpt lat="44.28788339862624" lon="11.334307372253091"><ele>620.2</ele><time>2026-05-01T08:45:18.978Z</time></trkpt><trkpt lat="44.287930496624554" lon="11.334234029562655"><ele>618.4000000000001</ele><time>2026-05-01T08:45:21.978Z</time></trkpt><trkpt lat="44.28797889995614" lon="11.33414231449004"><ele>616.5999999999999</ele><time>2026-05-01T08:45:24.978Z</time></trkpt><trkpt lat="44.288096177763855" lon="11.334188512491679"><ele>614.8</ele><time>2026-05-01T08:45:25.978Z</time></trkpt><trkpt lat="44.28817987796222" lon="11.334218366515948"><ele>613.0</ele><time>2026-05-01T08:45:26.978Z</time></trkpt><trkpt lat="44.28826630704964" lon="11.33427352081286"><ele>613.0</ele><time>2026-05-01T08:45:27.978Z</time></trkpt><trkpt lat="44.28837103661852" lon="11.334297086875978"><ele>613.0</ele><time>2026-05-01T08:45:28.978Z</time></trkpt><trkpt lat="44.28847086049569" lon="11.334288559647137"><ele>613.0</ele><time>2026-05-01T08:45:29.978Z</time></trkpt><trkpt lat="44.288568799247095" lon="11.334239754575975"><ele>613.0</ele><time>2026-05-01T08:45:30.978Z</time></trkpt><trkpt lat="44.28866102249392" lon="11.334140319100076"><ele>613.0</ele><time>2026-05-01T08:45:31.978Z</time></trkpt><trkpt lat="44.288764541228204" lon="11.334008865050459"><ele>617.0</ele><time>2026-05-01T08:45:32.978Z</time></trkpt><trkpt lat="44.28886628172469" lon="11.333858725197242"><ele>621.0</ele><time>2026-05-01T08:45:33.978Z</time></trkpt><trkpt lat="44.28895798051837" lon="11.333683109724635"><ele>625.0</ele><time>2026-05-01T08:45:34.978Z</time></trkpt><trkpt lat="44.28905306993135" lon="11.333524728341263"><ele>625.0</ele><time>2026-05-01T08:45:35.978Z</time></trkpt><trkpt lat="44.289151940149864" lon="11.333353838449337"><ele>625.0</ele><time>2026-05-01T08:45:36.978Z</time></trkpt><trkpt lat="44.289215519319086" lon="11.333200200866708"><ele>625.0</ele><time>2026-05-01T08:45:37.978Z</time></trkpt><trkpt lat="44.289285475802025" lon="11.333064449278034"><ele>625.0</ele><time>2026-05-01T08:45:38.978Z</time></trkpt><trkpt lat="44.289383188042606" lon="11.332935942162491"><ele>625.4</ele><time>2026-05-01T08:45:39.978Z</time></trkpt><trkpt lat="44.28948803544606" lon="11.332852626012341"><ele>625.8</ele><time>2026-05-01T08:45:40.978Z</time></trkpt><trkpt lat="44.289595820004" lon="11.33283048951642"><ele>626.2</ele><time>2026-05-01T08:45:41.978Z</time></trkpt><trkpt lat="44.28967393062463" lon="11.33286367091486"><ele>626.6</ele><time>2026-05-01T08:45:42.978Z</time></trkpt><trkpt lat="44.289769796658845" lon="11.332926006783829"><ele>627.0</ele><time>2026-05-01T08:45:43.977Z</time></trkpt><trkpt lat="44.28986514989332" lon="11.33299460155372"><ele>628.6</ele><time>2026-05-01T08:45:44.977Z</time></trkpt><trkpt lat="44.28997323255032" lon="11.33307235381057"><ele>630.2</ele><time>2026-05-01T08:45:45.977Z</time></trkpt><trkpt lat="44.290071783204695" lon="11.333143247739644"><ele>631.8</ele><time>2026-05-01T08:45:46.977Z</time></trkpt><trkpt lat="44.290170821390724" lon="11.333196202370807"><ele>633.4</ele><time>2026-05-01T08:45:47.977Z</time></trkpt><trkpt lat="44.290266090256" lon="11.333239756543795"><ele>635.0</ele><time>2026-05-01T08:45:48.977Z</time></trkpt><trkpt lat="44.290380740857316" lon="11.333288583607116"><ele>635.0</ele><time>2026-05-01T08:45:49.977Z</time></trkpt><trkpt lat="44.29047340704438" lon="11.333322557976524"><ele>635.0</ele><time>2026-05-01T08:45:50.977Z</time></trkpt><trkpt lat="44.290557366268445" lon="11.333345656736128"><ele>635.0</ele><time>2026-05-01T08:45:51.977Z</time></trkpt><trkpt lat="44.290644157387554" lon="11.333350383067275"><ele>635.0</ele><time>2026-05-01T08:45:52.977Z</time></trkpt><trkpt lat="44.29075346885755" lon="11.333328701627822"><ele>635.0</ele><time>2026-05-01T08:45:53.977Z</time></trkpt><trkpt lat="44.29085422194912" lon="11.33330015016668"><ele>635.1666666666666</ele><time>2026-05-01T08:45:54.977Z</time></trkpt><trkpt lat="44.290960088920905" lon="11.333277473720262"><ele>635.3333333333333</ele><time>2026-05-01T08:45:55.977Z</time></trkpt><trkpt lat="44.291041384400856" lon="11.33324765904863"><ele>635.5</ele><time>2026-05-01T08:45:56.977Z</time></trkpt><trkpt lat="44.291124490651235" lon="11.333237799038919"><ele>635.6666666666666</ele><time>2026-05-01T08:45:57.977Z</time></trkpt><trkpt lat="44.29120693032099" lon="11.333254275609514"><ele>635.8333333333334</ele><time>2026-05-01T08:45:58.977Z</time></trkpt><trkpt lat="44.29129168143479" lon="11.33325253061077"><ele>636.0</ele><time>2026-05-01T08:45:59.977Z</time></trkpt><trkpt lat="44.29137238211593" lon="11.333247136933778"><ele>636.8333333333334</ele><time>2026-05-01T08:46:00.977Z</time></trkpt><trkpt lat="44.29146591513509" lon="11.3332346041158"><ele>637.6666666666666</ele><time>2026-05-01T08:46:01.977Z</time></trkpt><trkpt lat="44.291539142008595" lon="11.333242354802474"><ele>638.5</ele><time>2026-05-01T08:46:02.977Z</time></trkpt><trkpt lat="44.29160323464458" lon="11.333220808227093"><ele>639.3333333333333</ele><time>2026-05-01T08:46:03.977Z</time></trkpt><trkpt lat="44.29167520147714" lon="11.33323800698347"><ele>640.1666666666666</ele><time>2026-05-01T08:46:04.975Z</time></trkpt><trkpt lat="44.29175352238338" lon="11.333220721158725"><ele>641.0</ele><time>2026-05-01T08:46:05.975Z</time></trkpt><trkpt lat="44.291845211182995" lon="11.333217346926556"><ele>641.0</ele><time>2026-05-01T08:46:06.975Z</time></trkpt><trkpt lat="44.29194551862793" lon="11.333239622503097"><ele>641.0</ele><time>2026-05-01T08:46:07.975Z</time></trkpt><trkpt lat="44.29206299575985" lon="11.333238366772742"><ele>641.0</ele><time>2026-05-01T08:46:08.975Z</time></trkpt><trkpt lat="44.29219801189317" lon="11.333265934355765"><ele>641.0</ele><time>2026-05-01T08:46:09.975Z</time></trkpt><trkpt lat="44.29233017330956" lon="11.333295445821888"><ele>643.5</ele><time>2026-05-01T08:46:10.975Z</time></trkpt><trkpt lat="44.29244988696612" lon="11.333333994356865"><ele>646.0</ele><time>2026-05-01T08:46:11.975Z</time></trkpt><trkpt lat="44.292566495132014" lon="11.33339427025365"><ele>648.5</ele><time>2026-05-01T08:46:12.975Z</time></trkpt><trkpt lat="44.292681104250946" lon="11.333487396185745"><ele>651.0</ele><time>2026-05-01T08:46:13.975Z</time></trkpt><trkpt lat="44.29279212273285" lon="11.333604816956184"><ele>651.0</ele><time>2026-05-01T08:46:14.974Z</time></trkpt><trkpt lat="44.29288575532102" lon="11.333716711822845"><ele>651.0</ele><time>2026-05-01T08:46:15.974Z</time></trkpt><trkpt lat="44.29297143737449" lon="11.333826170501975"><ele>651.0</ele><time>2026-05-01T08:46:16.975Z</time></trkpt><trkpt lat="44.29306682952941" lon="11.333917374859201"><ele>651.0</ele><time>2026-05-01T08:46:17.975Z</time></trkpt><trkpt lat="44.29318437915629" lon="11.333977190468264"><ele>648.8</ele><time>2026-05-01T08:46:18.975Z</time></trkpt><trkpt lat="44.29328496697231" lon="11.333988549014318"><ele>646.5999999999999</ele><time>2026-05-01T08:46:19.975Z</time></trkpt><trkpt lat="44.29337698178626" lon="11.333970389844957"><ele>644.4</ele><time>2026-05-01T08:46:20.975Z</time></trkpt><trkpt lat="44.29346513215117" lon="11.333924259493255"><ele>642.2</ele><time>2026-05-01T08:46:21.975Z</time></trkpt><trkpt lat="44.293555620998625" lon="11.333856182498753"><ele>640.0</ele><time>2026-05-01T08:46:22.975Z</time></trkpt><trkpt lat="44.29365490322728" lon="11.333764338220186"><ele>646.0</ele><time>2026-05-01T08:46:23.975Z</time></trkpt><trkpt lat="44.29378563398708" lon="11.333659935745157"><ele>652.0</ele><time>2026-05-01T08:46:24.975Z</time></trkpt><trkpt lat="44.29392240888241" lon="11.33355171337362"><ele>658.0</ele><time>2026-05-01T08:46:25.975Z</time></trkpt><trkpt lat="44.29407819269245" lon="11.333462552313206"><ele>658.0</ele><time>2026-05-01T08:46:26.975Z</time></trkpt><trkpt lat="44.29423375409135" lon="11.333396900325086"><ele>658.0</ele><time>2026-05-01T08:46:27.975Z</time></trkpt><trkpt lat="44.294386348501966" lon="11.333333857899389"><ele>658.0</ele><time>2026-05-01T08:46:28.975Z</time></trkpt><trkpt lat="44.29453246492689" lon="11.33328871229173"><ele>658.0</ele><time>2026-05-01T08:46:29.975Z</time></trkpt><trkpt lat="44.29467312630374" lon="11.333263459874837"><ele>658.0</ele><time>2026-05-01T08:46:30.975Z</time></trkpt><trkpt lat="44.29478919944198" lon="11.333218504854196"><ele>658.0</ele><time>2026-05-01T08:46:31.975Z</time></trkpt><trkpt lat="44.29489634059657" lon="11.333132637106669"><ele>658.0</ele><time>2026-05-01T08:46:32.975Z</time></trkpt><trkpt lat="44.29497336763044" lon="11.333014510398204"><ele>659.5</ele><time>2026-05-01T08:46:33.975Z</time></trkpt><trkpt lat="44.2950171869135" lon="11.332835509765681"><ele>661.0</ele><time>2026-05-01T08:46:34.975Z</time></trkpt><trkpt lat="44.29507572285913" lon="11.33265587032565"><ele>662.5</ele><time>2026-05-01T08:46:35.975Z</time></trkpt><trkpt lat="44.2951343321409" lon="11.332492083640856"><ele>664.0</ele><time>2026-05-01T08:46:36.975Z</time></trkpt><trkpt lat="44.29518755603688" lon="11.332330382241192"><ele>666.5</ele><time>2026-05-01T08:46:37.975Z</time></trkpt><trkpt lat="44.29522626809776" lon="11.332169163231029"><ele>669.0</ele><time>2026-05-01T08:46:38.975Z</time></trkpt><trkpt lat="44.29522058553098" lon="11.331978646392344"><ele>671.5</ele><time>2026-05-01T08:46:39.975Z</time></trkpt><trkpt lat="44.295215335654454" lon="11.331797990955973"><ele>674.0</ele><time>2026-05-01T08:46:40.975Z</time></trkpt><trkpt lat="44.29524046084653" lon="11.331643831717463"><ele>674.0</ele><time>2026-05-01T08:46:41.975Z</time></trkpt><trkpt lat="44.295280289223825" lon="11.331520987606565"><ele>674.0</ele><time>2026-05-01T08:46:42.975Z</time></trkpt><trkpt lat="44.295339230704506" lon="11.33144355379619"><ele>674.0</ele><time>2026-05-01T08:46:43.975Z</time></trkpt><trkpt lat="44.295418313732064" lon="11.331382538556083"><ele>674.0</ele><time>2026-05-01T08:46:44.975Z</time></trkpt><trkpt lat="44.29550846031976" lon="11.331358415590485"><ele>674.0</ele><time>2026-05-01T08:46:45.975Z</time></trkpt><trkpt lat="44.29560126019741" lon="11.331318397695567"><ele>673.2</ele><time>2026-05-01T08:46:46.975Z</time></trkpt><trkpt lat="44.29568269420857" lon="11.331249948453168"><ele>672.4000000000001</ele><time>2026-05-01T08:46:47.975Z</time></trkpt><trkpt lat="44.29575177707947" lon="11.331153256719613"><ele>671.6</ele><time>2026-05-01T08:46:48.975Z</time></trkpt><trkpt lat="44.295811514433545" lon="11.3310343158387"><ele>670.8</ele><time>2026-05-01T08:46:49.975Z</time></trkpt><trkpt lat="44.29587883518321" lon="11.330919904587194"><ele>670.0</ele><time>2026-05-01T08:46:50.975Z</time></trkpt><trkpt lat="44.29596833420414" lon="11.330793259106589"><ele>670.0</ele><time>2026-05-01T08:46:51.975Z</time></trkpt><trkpt lat="44.29607100775273" lon="11.330669329772999"><ele>670.0</ele><time>2026-05-01T08:46:52.975Z</time></trkpt><trkpt lat="44.29618043457608" lon="11.330547240403234"><ele>670.0</ele><time>2026-05-01T08:46:53.975Z</time></trkpt><trkpt lat="44.296295715364614" lon="11.33043839698844"><ele>670.0</ele><time>2026-05-01T08:46:54.975Z</time></trkpt><trkpt lat="44.2964238880301" lon="11.33034363695125"><ele>670.3333333333334</ele><time>2026-05-01T08:46:55.975Z</time></trkpt><trkpt lat="44.29655960941523" lon="11.330261487516182"><ele>670.6666666666666</ele><time>2026-05-01T08:46:56.975Z</time></trkpt><trkpt lat="44.2967020272035" lon="11.330174651171076"><ele>671.0</ele><time>2026-05-01T08:46:57.975Z</time></trkpt><trkpt lat="44.2968375262723" lon="11.330075333181247"><ele>671.0</ele><time>2026-05-01T08:46:58.975Z</time></trkpt><trkpt lat="44.29695267945892" lon="11.329991308909907"><ele>671.0</ele><time>2026-05-01T08:46:59.975Z</time></trkpt><trkpt lat="44.29705465559735" lon="11.329907656922325"><ele>671.0</ele><time>2026-05-01T08:47:00.974Z</time></trkpt><trkpt lat="44.29715259303879" lon="11.329813858954864"><ele>671.0</ele><time>2026-05-01T08:47:01.974Z</time></trkpt><trkpt lat="44.29724641755658" lon="11.329698075236031"><ele>673.0</ele><time>2026-05-01T08:47:02.974Z</time></trkpt><trkpt lat="44.29730720328824" lon="11.329568397907575"><ele>675.0</ele><time>2026-05-01T08:47:03.974Z</time></trkpt><trkpt lat="44.29733883769447" lon="11.329455871597908"><ele>677.0</ele><time>2026-05-01T08:47:04.974Z</time></trkpt><trkpt lat="44.29736867376033" lon="11.32933647868018"><ele>679.0</ele><time>2026-05-01T08:47:05.974Z</time></trkpt><trkpt lat="44.297423246046876" lon="11.329229070341567"><ele>681.0</ele><time>2026-05-01T08:47:06.974Z</time></trkpt><trkpt lat="44.29750638921992" lon="11.32915940832799"><ele>681.0</ele><time>2026-05-01T08:47:07.974Z</time></trkpt><trkpt lat="44.29761073491212" lon="11.329148995426205"><ele>681.0</ele><time>2026-05-01T08:47:08.974Z</time></trkpt><trkpt lat="44.297711647282895" lon="11.329206611650749"><ele>681.0</ele><time>2026-05-01T08:47:09.974Z</time></trkpt><trkpt lat="44.297818038820076" lon="11.329301036870287"><ele>681.0</ele><time>2026-05-01T08:47:10.974Z</time></trkpt><trkpt lat="44.2979284979101" lon="11.329421582032296"><ele>681.0</ele><time>2026-05-01T08:47:11.974Z</time></trkpt><trkpt lat="44.29803884882413" lon="11.32952161069743"><ele>681.0</ele><time>2026-05-01T08:47:12.974Z</time></trkpt><trkpt lat="44.29814276468338" lon="11.329592456506987"><ele>681.0</ele><time>2026-05-01T08:47:13.973Z</time></trkpt><trkpt lat="44.298265665809815" lon="11.329642435877883"><ele>681.0</ele><time>2026-05-01T08:47:14.973Z</time></trkpt><trkpt lat="44.29839092616766" lon="11.329662573060894"><ele>681.25</ele><time>2026-05-01T08:47:15.973Z</time></trkpt><trkpt lat="44.29852919619111" lon="11.329653598730246"><ele>681.5</ele><time>2026-05-01T08:47:16.973Z</time></trkpt><trkpt lat="44.298671117724574" lon="11.329621492659355"><ele>681.75</ele><time>2026-05-01T08:47:17.973Z</time></trkpt><trkpt lat="44.29880881743028" lon="11.329565152103408"><ele>682.0</ele><time>2026-05-01T08:47:18.973Z</time></trkpt><trkpt lat="44.29895930677238" lon="11.329538764106713"><ele>682.0</ele><time>2026-05-01T08:47:19.973Z</time></trkpt><trkpt lat="44.299122281703184" lon="11.329536762305874"><ele>682.0</ele><time>2026-05-01T08:47:20.973Z</time></trkpt><trkpt lat="44.29926918882207" lon="11.329559666468667"><ele>682.0</ele><time>2026-05-01T08:47:21.973Z</time></trkpt><trkpt lat="44.29941100996288" lon="11.329578918037505"><ele>682.0</ele><time>2026-05-01T08:47:22.973Z</time></trkpt><trkpt lat="44.29966766069732" lon="11.329642527721806"><ele>682.0</ele><time>2026-05-01T08:47:24.973Z</time></trkpt><trkpt lat="44.29976980915706" lon="11.329685266300654"><ele>682.0</ele><time>2026-05-01T08:47:25.973Z</time></trkpt><trkpt lat="44.299865219834366" lon="11.329697667665316"><ele>679.8333333333334</ele><time>2026-05-01T08:47:26.973Z</time></trkpt><trkpt lat="44.299941196662374" lon="11.329699937056407"><ele>677.6666666666667</ele><time>2026-05-01T08:47:27.973Z</time></trkpt><trkpt lat="44.30000218685598" lon="11.32966628609838"><ele>675.5</ele><time>2026-05-01T08:47:28.973Z</time></trkpt><trkpt lat="44.30005634930588" lon="11.329617813824303"><ele>673.3333333333334</ele><time>2026-05-01T08:47:29.973Z</time></trkpt><trkpt lat="44.30009359019743" lon="11.329522426659205"><ele>671.1666666666666</ele><time>2026-05-01T08:47:30.973Z</time></trkpt><trkpt lat="44.300091594354555" lon="11.329390485626789"><ele>669.0</ele><time>2026-05-01T08:47:31.973Z</time></trkpt><trkpt lat="44.300054828789044" lon="11.329246638319946"><ele>669.0</ele><time>2026-05-01T08:47:32.973Z</time></trkpt><trkpt lat="44.300009107796754" lon="11.32910096241305"><ele>669.0</ele><time>2026-05-01T08:47:33.973Z</time></trkpt><trkpt lat="44.29995693762876" lon="11.328935454291182"><ele>669.0</ele><time>2026-05-01T08:47:34.973Z</time></trkpt><trkpt lat="44.29991662930168" lon="11.32877065166135"><ele>669.0</ele><time>2026-05-01T08:47:35.973Z</time></trkpt><trkpt lat="44.29988509579555" lon="11.328610068954905"><ele>669.5</ele><time>2026-05-01T08:47:36.973Z</time></trkpt><trkpt lat="44.299865814523606" lon="11.328444424554874"><ele>670.0</ele><time>2026-05-01T08:47:37.973Z</time></trkpt><trkpt lat="44.29985724903523" lon="11.328266133770821"><ele>670.5</ele><time>2026-05-01T08:47:38.973Z</time></trkpt><trkpt lat="44.299845289010165" lon="11.328076071979423"><ele>671.0</ele><time>2026-05-01T08:47:39.973Z</time></trkpt><trkpt lat="44.29986456427566" lon="11.32788709860355"><ele>671.0</ele><time>2026-05-01T08:47:40.973Z</time></trkpt><trkpt lat="44.29988609003604" lon="11.327696736684908"><ele>671.0</ele><time>2026-05-01T08:47:41.973Z</time></trkpt><trkpt lat="44.29991388917498" lon="11.327508636094356"><ele>671.0</ele><time>2026-05-01T08:47:42.973Z</time></trkpt><trkpt lat="44.29992715441964" lon="11.32732971897447"><ele>671.0</ele><time>2026-05-01T08:47:43.973Z</time></trkpt><trkpt lat="44.29995496082656" lon="11.327178078468311"><ele>671.0</ele><time>2026-05-01T08:47:44.973Z</time></trkpt><trkpt lat="44.30000413652507" lon="11.32703776446914"><ele>671.0</ele><time>2026-05-01T08:47:45.973Z</time></trkpt><trkpt lat="44.30008697434446" lon="11.326925769795805"><ele>671.0</ele><time>2026-05-01T08:47:46.973Z</time></trkpt><trkpt lat="44.30018797908763" lon="11.326839292167016"><ele>671.0</ele><time>2026-05-01T08:47:47.973Z</time></trkpt><trkpt lat="44.300296960656986" lon="11.326767302954835"><ele>671.0</ele><time>2026-05-01T08:47:48.973Z</time></trkpt><trkpt lat="44.300392023368865" lon="11.326688544654074"><ele>671.0</ele><time>2026-05-01T08:47:49.973Z</time></trkpt><trkpt lat="44.300460863018955" lon="11.326574854509946"><ele>671.0</ele><time>2026-05-01T08:47:50.973Z</time></trkpt><trkpt lat="44.30050374172482" lon="11.32644688924318"><ele>671.0</ele><time>2026-05-01T08:47:51.973Z</time></trkpt><trkpt lat="44.300543329834355" lon="11.326309184072853"><ele>671.0</ele><time>2026-05-01T08:47:52.973Z</time></trkpt><trkpt lat="44.30058096487552" lon="11.32614510859467"><ele>668.5999999999999</ele><time>2026-05-01T08:47:53.973Z</time></trkpt><trkpt lat="44.30062024037083" lon="11.326000517527719"><ele>666.2</ele><time>2026-05-01T08:47:54.973Z</time></trkpt><trkpt lat="44.300667310616134" lon="11.325895961219898"><ele>663.8</ele><time>2026-05-01T08:47:55.973Z</time></trkpt><trkpt lat="44.30074712961481" lon="11.325809842204343"><ele>661.4000000000001</ele><time>2026-05-01T08:47:56.973Z</time></trkpt><trkpt lat="44.30086534688876" lon="11.325792685827688"><ele>659.0</ele><time>2026-05-01T08:47:57.973Z</time></trkpt><trkpt lat="44.30098633835839" lon="11.325791379349015"><ele>659.0</ele><time>2026-05-01T08:47:58.973Z</time></trkpt><trkpt lat="44.3011112458628" lon="11.325785318356694"><ele>659.0</ele><time>2026-05-01T08:47:59.973Z</time></trkpt><trkpt lat="44.301241056526536" lon="11.325827772582537"><ele>659.0</ele><time>2026-05-01T08:48:00.973Z</time></trkpt><trkpt lat="44.301385798416106" lon="11.325883495946334"><ele>659.0</ele><time>2026-05-01T08:48:01.973Z</time></trkpt><trkpt lat="44.30153458970354" lon="11.325954650642187"><ele>655.75</ele><time>2026-05-01T08:48:02.973Z</time></trkpt><trkpt lat="44.30167446294996" lon="11.326032885098371"><ele>652.5</ele><time>2026-05-01T08:48:03.973Z</time></trkpt><trkpt lat="44.30178990480658" lon="11.326117539570719"><ele>649.25</ele><time>2026-05-01T08:48:04.973Z</time></trkpt><trkpt lat="44.30189680174212" lon="11.326192685998727"><ele>646.0</ele><time>2026-05-01T08:48:05.973Z</time></trkpt><trkpt lat="44.302007103301385" lon="11.326241777895747"><ele>646.0</ele><time>2026-05-01T08:48:06.973Z</time></trkpt><trkpt lat="44.302085188228375" lon="11.32629748403941"><ele>646.0</ele><time>2026-05-01T08:48:07.973Z</time></trkpt><trkpt lat="44.302151145079414" lon="11.326330219416977"><ele>646.0</ele><time>2026-05-01T08:48:08.973Z</time></trkpt><trkpt lat="44.30222200191542" lon="11.326310126636"><ele>646.0</ele><time>2026-05-01T08:48:09.97Z</time></trkpt><trkpt lat="44.30231330719872" lon="11.326295660988754"><ele>646.0</ele><time>2026-05-01T08:48:10.97Z</time></trkpt><trkpt lat="44.302414751646886" lon="11.326180377318746"><ele>642.5</ele><time>2026-05-01T08:48:11.97Z</time></trkpt><trkpt lat="44.30250264933601" lon="11.326040215312009"><ele>639.0</ele><time>2026-05-01T08:48:12.971Z</time></trkpt><trkpt lat="44.30258786421402" lon="11.325895876694327"><ele>635.5</ele><time>2026-05-01T08:48:13.97Z</time></trkpt><trkpt lat="44.30266029211527" lon="11.325746587472807"><ele>632.0</ele><time>2026-05-01T08:48:14.97Z</time></trkpt><trkpt lat="44.302716653629346" lon="11.32558541850018"><ele>634.25</ele><time>2026-05-01T08:48:15.97Z</time></trkpt><trkpt lat="44.30274984164998" lon="11.325417040987343"><ele>636.5</ele><time>2026-05-01T08:48:16.97Z</time></trkpt><trkpt lat="44.30275241132093" lon="11.325230036409737"><ele>638.75</ele><time>2026-05-01T08:48:17.97Z</time></trkpt><trkpt lat="44.30275615492009" lon="11.325049824547067"><ele>641.0</ele><time>2026-05-01T08:48:18.97Z</time></trkpt><trkpt lat="44.30276581885525" lon="11.324879530060853"><ele>643.5</ele><time>2026-05-01T08:48:19.969Z</time></trkpt><trkpt lat="44.30277151420442" lon="11.324702055475134"><ele>646.0</ele><time>2026-05-01T08:48:20.969Z</time></trkpt><trkpt lat="44.30279763845505" lon="11.324540888896003"><ele>648.5</ele><time>2026-05-01T08:48:21.97Z</time></trkpt><trkpt lat="44.30285358037415" lon="11.324378719515213"><ele>651.0</ele><time>2026-05-01T08:48:22.969Z</time></trkpt><trkpt lat="44.302928307670705" lon="11.324256362729109"><ele>651.0</ele><time>2026-05-01T08:48:23.969Z</time></trkpt><trkpt lat="44.30302542150591" lon="11.324135575586359"><ele>651.0</ele><time>2026-05-01T08:48:24.969Z</time></trkpt><trkpt lat="44.30313789845672" lon="11.324044981843844"><ele>651.0</ele><time>2026-05-01T08:48:25.969Z</time></trkpt><trkpt lat="44.303262560008335" lon="11.32394421576504"><ele>651.0</ele><time>2026-05-01T08:48:26.969Z</time></trkpt><trkpt lat="44.303384418773234" lon="11.323841307922557"><ele>649.0</ele><time>2026-05-01T08:48:27.969Z</time></trkpt><trkpt lat="44.30350442396911" lon="11.323743686463109"><ele>647.0</ele><time>2026-05-01T08:48:28.969Z</time></trkpt><trkpt lat="44.303639749865766" lon="11.323679183353383"><ele>645.0</ele><time>2026-05-01T08:48:29.969Z</time></trkpt><trkpt lat="44.30379618264719" lon="11.3235980903613"><ele>643.0</ele><time>2026-05-01T08:48:30.969Z</time></trkpt><trkpt lat="44.30393986252247" lon="11.323503804288821"><ele>636.3333333333334</ele><time>2026-05-01T08:48:31.969Z</time></trkpt><trkpt lat="44.30407195455209" lon="11.323421183269543"><ele>629.6666666666666</ele><time>2026-05-01T08:48:32.969Z</time></trkpt><trkpt lat="44.304220230654686" lon="11.32335500090053"><ele>623.0</ele><time>2026-05-01T08:48:33.969Z</time></trkpt><trkpt lat="44.30439127474491" lon="11.32329583464997"><ele>623.0</ele><time>2026-05-01T08:48:34.969Z</time></trkpt><trkpt lat="44.304548030969315" lon="11.323266608104387"><ele>623.0</ele><time>2026-05-01T08:48:35.969Z</time></trkpt><trkpt lat="44.304676700223304" lon="11.323224187560141"><ele>623.0</ele><time>2026-05-01T08:48:36.969Z</time></trkpt><trkpt lat="44.30479329908115" lon="11.323186879982241"><ele>623.0</ele><time>2026-05-01T08:48:37.969Z</time></trkpt><trkpt lat="44.30491421862995" lon="11.323148960085593"><ele>622.3333333333333</ele><time>2026-05-01T08:48:38.969Z</time></trkpt><trkpt lat="44.30500649459856" lon="11.32310912314439"><ele>621.6666666666666</ele><time>2026-05-01T08:48:39.969Z</time></trkpt><trkpt lat="44.305090173114365" lon="11.323044001908249"><ele>621.0</ele><time>2026-05-01T08:48:40.969Z</time></trkpt><trkpt lat="44.3051620012056" lon="11.322993498045552"><ele>620.3333333333334</ele><time>2026-05-01T08:48:41.969Z</time></trkpt><trkpt lat="44.30522245258056" lon="11.322958606699057"><ele>619.6666666666667</ele><time>2026-05-01T08:48:42.969Z</time></trkpt><trkpt lat="44.30528577104486" lon="11.322945019343534"><ele>619.0</ele><time>2026-05-01T08:48:43.969Z</time></trkpt><trkpt lat="44.30536308884016" lon="11.322959938236107"><ele>619.0</ele><time>2026-05-01T08:48:45.969Z</time></trkpt><trkpt lat="44.305429364326486" lon="11.322972197735927"><ele>619.0</ele><time>2026-05-01T08:49:10.969Z</time></trkpt><trkpt lat="44.30535739198482" lon="11.322962286284815"><ele>619.0</ele><time>2026-05-01T08:49:15.969Z</time></trkpt><trkpt lat="44.30522374005112" lon="11.322599447285551"><ele>619.0</ele><time>2026-05-01T08:49:17.969Z</time></trkpt><trkpt lat="44.30516444047382" lon="11.322485160517369"><ele>619.0</ele><time>2026-05-01T08:49:18.969Z</time></trkpt><trkpt lat="44.30508619959597" lon="11.322384324592184"><ele>619.0</ele><time>2026-05-01T08:49:19.969Z</time></trkpt><trkpt lat="44.30500773218718" lon="11.32229652904541"><ele>619.0</ele><time>2026-05-01T08:49:20.969Z</time></trkpt><trkpt lat="44.30493508290753" lon="11.322228491587008"><ele>619.0</ele><time>2026-05-01T08:49:21.969Z</time></trkpt><trkpt lat="44.304848284472016" lon="11.322162427665088"><ele>619.0</ele><time>2026-05-01T08:49:22.969Z</time></trkpt><trkpt lat="44.30475872557435" lon="11.322055903094972"><ele>617.8</ele><time>2026-05-01T08:49:23.969Z</time></trkpt><trkpt lat="44.30467801884199" lon="11.321967441769372"><ele>616.5999999999999</ele><time>2026-05-01T08:49:24.969Z</time></trkpt><trkpt lat="44.3045858834127" lon="11.32188329305"><ele>615.4</ele><time>2026-05-01T08:49:25.969Z</time></trkpt><trkpt lat="44.30449807132656" lon="11.321769486400532"><ele>614.1999999999999</ele><time>2026-05-01T08:49:26.969Z</time></trkpt><trkpt lat="44.3044183900146" lon="11.32167837430233"><ele>613.0</ele><time>2026-05-01T08:49:27.969Z</time></trkpt><trkpt lat="44.30433115468937" lon="11.321605238070418"><ele>613.0</ele><time>2026-05-01T08:49:28.969Z</time></trkpt><trkpt lat="44.30424129465749" lon="11.321568933004551"><ele>613.0</ele><time>2026-05-01T08:49:29.969Z</time></trkpt><trkpt lat="44.304143892386385" lon="11.321536176530142"><ele>613.0</ele><time>2026-05-01T08:49:30.969Z</time></trkpt><trkpt lat="44.30402828487505" lon="11.321503910606369"><ele>613.0</ele><time>2026-05-01T08:49:31.969Z</time></trkpt><trkpt lat="44.303903572286345" lon="11.321458350211863"><ele>613.0</ele><time>2026-05-01T08:49:32.969Z</time></trkpt><trkpt lat="44.303782227436365" lon="11.321374740846329"><ele>605.4</ele><time>2026-05-01T08:49:33.969Z</time></trkpt><trkpt lat="44.303666062156005" lon="11.321313419173322"><ele>597.8</ele><time>2026-05-01T08:49:34.969Z</time></trkpt><trkpt lat="44.30357312938348" lon="11.321277654153933"><ele>590.2</ele><time>2026-05-01T08:49:35.969Z</time></trkpt><trkpt lat="44.303487758284696" lon="11.321247228590568"><ele>582.6</ele><time>2026-05-01T08:49:36.969Z</time></trkpt><trkpt lat="44.303394613112125" lon="11.321216765152172"><ele>575.0</ele><time>2026-05-01T08:49:37.969Z</time></trkpt><trkpt lat="44.30329709030527" lon="11.321194396417612"><ele>575.0</ele><time>2026-05-01T08:49:38.969Z</time></trkpt><trkpt lat="44.30320385721762" lon="11.321192606535599"><ele>575.0</ele><time>2026-05-01T08:49:39.969Z</time></trkpt><trkpt lat="44.303100816697864" lon="11.321224966323495"><ele>575.0</ele><time>2026-05-01T08:49:40.969Z</time></trkpt><trkpt lat="44.30297678150645" lon="11.321278382750764"><ele>575.0</ele><time>2026-05-01T08:49:41.969Z</time></trkpt><trkpt lat="44.30282858797081" lon="11.32134755520738"><ele>574.0</ele><time>2026-05-01T08:49:42.969Z</time></trkpt><trkpt lat="44.302698691855966" lon="11.321373249684905"><ele>573.0</ele><time>2026-05-01T08:49:43.969Z</time></trkpt><trkpt lat="44.30255347614893" lon="11.32140151804601"><ele>572.0</ele><time>2026-05-01T08:49:44.969Z</time></trkpt><trkpt lat="44.30243220056122" lon="11.321430621885844"><ele>571.0</ele><time>2026-05-01T08:49:45.969Z</time></trkpt><trkpt lat="44.30228091582997" lon="11.321470993542807"><ele>574.3333333333334</ele><time>2026-05-01T08:49:46.969Z</time></trkpt><trkpt lat="44.30213676049514" lon="11.32152213322803"><ele>577.6666666666666</ele><time>2026-05-01T08:49:47.969Z</time></trkpt><trkpt lat="44.301981368239886" lon="11.32160983344887"><ele>581.0</ele><time>2026-05-01T08:49:48.969Z</time></trkpt><trkpt lat="44.301841433797684" lon="11.32167589572832"><ele>581.0</ele><time>2026-05-01T08:49:49.969Z</time></trkpt><trkpt lat="44.30169705701894" lon="11.321724029547587"><ele>581.0</ele><time>2026-05-01T08:49:50.969Z</time></trkpt><trkpt lat="44.3015533266702" lon="11.321783492931793"><ele>581.0</ele><time>2026-05-01T08:49:51.966Z</time></trkpt><trkpt lat="44.301416015205895" lon="11.321848044477669"><ele>581.0</ele><time>2026-05-01T08:49:52.963Z</time></trkpt><trkpt lat="44.30129742726866" lon="11.321907777651305"><ele>580.5</ele><time>2026-05-01T08:49:53.961Z</time></trkpt><trkpt lat="44.301169300574344" lon="11.321978876852123"><ele>580.0</ele><time>2026-05-01T08:49:54.958Z</time></trkpt><trkpt lat="44.30105753529568" lon="11.322059351828537"><ele>579.5</ele><time>2026-05-01T08:49:55.956Z</time></trkpt><trkpt lat="44.3009762243258" lon="11.322143548604043"><ele>579.0</ele><time>2026-05-01T08:49:56.953Z</time></trkpt><trkpt lat="44.300919530111834" lon="11.322252702797059"><ele>579.0</ele><time>2026-05-01T08:49:57.951Z</time></trkpt><trkpt lat="44.300890134966714" lon="11.322386097213005"><ele>579.0</ele><time>2026-05-01T08:49:58.949Z</time></trkpt><trkpt lat="44.30086147466618" lon="11.322530438475326"><ele>579.0</ele><time>2026-05-01T08:49:59.947Z</time></trkpt><trkpt lat="44.300814238387325" lon="11.322649003785417"><ele>579.0</ele><time>2026-05-01T08:50:00.945Z</time></trkpt><trkpt lat="44.30075726395038" lon="11.322724502558044"><ele>579.0</ele><time>2026-05-01T08:50:01.944Z</time></trkpt><trkpt lat="44.30068269576917" lon="11.322759252238134"><ele>579.0</ele><time>2026-05-01T08:50:02.942Z</time></trkpt><trkpt lat="44.30059647273283" lon="11.32280175012714"><ele>579.0</ele><time>2026-05-01T08:50:03.941Z</time></trkpt><trkpt lat="44.300503344778996" lon="11.322780075333153"><ele>579.0</ele><time>2026-05-01T08:50:04.939Z</time></trkpt><trkpt lat="44.30041323387891" lon="11.32275616892785"><ele>579.0</ele><time>2026-05-01T08:50:05.938Z</time></trkpt><trkpt lat="44.300342241180594" lon="11.322747439104598"><ele>579.0</ele><time>2026-05-01T08:50:06.937Z</time></trkpt><trkpt lat="44.30027003163614" lon="11.322740341687307"><ele>579.0</ele><time>2026-05-01T08:50:07.936Z</time></trkpt><trkpt lat="44.300187876961495" lon="11.32273424404538"><ele>576.25</ele><time>2026-05-01T08:50:08.934Z</time></trkpt><trkpt lat="44.300093183079255" lon="11.322731785059899"><ele>573.5</ele><time>2026-05-01T08:50:09.933Z</time></trkpt><trkpt lat="44.300004877325094" lon="11.322708434375443"><ele>570.75</ele><time>2026-05-01T08:50:10.932Z</time></trkpt><trkpt lat="44.29985758144749" lon="11.322636806822139"><ele>568.0</ele><time>2026-05-01T08:50:12.931Z</time></trkpt><trkpt lat="44.29975488716373" lon="11.322579135781465"><ele>565.75</ele><time>2026-05-01T08:50:13.93Z</time></trkpt><trkpt lat="44.29964554097211" lon="11.322531075854371"><ele>563.5</ele><time>2026-05-01T08:50:14.929Z</time></trkpt><trkpt lat="44.29952569911572" lon="11.322505045761375"><ele>561.25</ele><time>2026-05-01T08:50:15.926Z</time></trkpt><trkpt lat="44.29942317842118" lon="11.322470793428272"><ele>559.0</ele><time>2026-05-01T08:50:16.926Z</time></trkpt><trkpt lat="44.299302170561" lon="11.322415318994553"><ele>559.0</ele><time>2026-05-01T08:50:17.925Z</time></trkpt><trkpt lat="44.29919699734508" lon="11.322379047501425"><ele>559.0</ele><time>2026-05-01T08:50:18.925Z</time></trkpt><trkpt lat="44.299092749227945" lon="11.322362581224377"><ele>559.0</ele><time>2026-05-01T08:50:19.925Z</time></trkpt><trkpt lat="44.29898618687848" lon="11.322339499547198"><ele>559.0</ele><time>2026-05-01T08:50:20.924Z</time></trkpt><trkpt lat="44.298887254969934" lon="11.322317271609597"><ele>559.0</ele><time>2026-05-01T08:50:21.923Z</time></trkpt><trkpt lat="44.29879136739353" lon="11.322309897056641"><ele>557.0</ele><time>2026-05-01T08:50:22.922Z</time></trkpt><trkpt lat="44.298707853086505" lon="11.322295171176973"><ele>555.0</ele><time>2026-05-01T08:50:23.922Z</time></trkpt><trkpt lat="44.298635294130044" lon="11.322278847202472"><ele>553.0</ele><time>2026-05-01T08:50:24.922Z</time></trkpt><trkpt lat="44.2985671159626" lon="11.322287284905634"><ele>551.0</ele><time>2026-05-01T08:50:25.921Z</time></trkpt><trkpt lat="44.298476421206395" lon="11.322268435231944"><ele>549.0</ele><time>2026-05-01T08:50:27.921Z</time></trkpt><trkpt lat="44.298392459184086" lon="11.322248553014031"><ele>547.0</ele><time>2026-05-01T08:50:29.92Z</time></trkpt><trkpt lat="44.29827289296589" lon="11.322204386799733"><ele>547.0</ele><time>2026-05-01T08:50:31.92Z</time></trkpt><trkpt lat="44.29816109544937" lon="11.322239181224218"><ele>547.0</ele><time>2026-05-01T08:50:32.919Z</time></trkpt><trkpt lat="44.298036026775875" lon="11.322288559871808"><ele>547.0</ele><time>2026-05-01T08:50:33.919Z</time></trkpt><trkpt lat="44.297923493694114" lon="11.322350753935677"><ele>547.0</ele><time>2026-05-01T08:50:34.919Z</time></trkpt><trkpt lat="44.29782098059279" lon="11.32243010084824"><ele>544.4</ele><time>2026-05-01T08:50:35.919Z</time></trkpt><trkpt lat="44.2977303838102" lon="11.322522318718086"><ele>541.8000000000001</ele><time>2026-05-01T08:50:36.918Z</time></trkpt><trkpt lat="44.29765983480656" lon="11.32262980556385"><ele>539.2</ele><time>2026-05-01T08:50:37.918Z</time></trkpt><trkpt lat="44.29760410791919" lon="11.322738446576189"><ele>536.6</ele><time>2026-05-01T08:50:38.918Z</time></trkpt><trkpt lat="44.297557581203726" lon="11.322818764161568"><ele>534.0</ele><time>2026-05-01T08:50:39.918Z</time></trkpt><trkpt lat="44.29747914916861" lon="11.322866729182214"><ele>534.0</ele><time>2026-05-01T08:50:40.918Z</time></trkpt><trkpt lat="44.2973630706062" lon="11.322901365556252"><ele>534.0</ele><time>2026-05-01T08:50:41.918Z</time></trkpt><trkpt lat="44.29724057092807" lon="11.322968998329182"><ele>534.0</ele><time>2026-05-01T08:50:42.917Z</time></trkpt><trkpt lat="44.29713392093596" lon="11.32303436947833"><ele>534.0</ele><time>2026-05-01T08:50:43.917Z</time></trkpt><trkpt lat="44.297040250977325" lon="11.323093557970944"><ele>535.3333333333334</ele><time>2026-05-01T08:50:44.917Z</time></trkpt><trkpt lat="44.29694581665883" lon="11.323121393136665"><ele>536.6666666666666</ele><time>2026-05-01T08:50:45.917Z</time></trkpt><trkpt lat="44.29686899437903" lon="11.32316902181653"><ele>538.0</ele><time>2026-05-01T08:50:46.917Z</time></trkpt><trkpt lat="44.29680279312514" lon="11.323203825819283"><ele>539.3333333333333</ele><time>2026-05-01T08:50:47.917Z</time></trkpt><trkpt lat="44.29672382900705" lon="11.323241698464486"><ele>540.6666666666666</ele><time>2026-05-01T08:50:48.917Z</time></trkpt><trkpt lat="44.29662479283037" lon="11.323294310884354"><ele>542.0</ele><time>2026-05-01T08:50:49.917Z</time></trkpt><trkpt lat="44.29652651630115" lon="11.323323668589063"><ele>542.0</ele><time>2026-05-01T08:50:50.917Z</time></trkpt><trkpt lat="44.29643185289338" lon="11.323364671046917"><ele>542.0</ele><time>2026-05-01T08:50:51.916Z</time></trkpt><trkpt lat="44.29633550906626" lon="11.323396307185229"><ele>542.0</ele><time>2026-05-01T08:50:52.916Z</time></trkpt><trkpt lat="44.29623207461701" lon="11.32342107572813"><ele>542.0</ele><time>2026-05-01T08:50:53.916Z</time></trkpt><trkpt lat="44.29612851424796" lon="11.323443220421145"><ele>542.0</ele><time>2026-05-01T08:50:54.916Z</time></trkpt><trkpt lat="44.29603699858797" lon="11.323461023059844"><ele>539.8000000000001</ele><time>2026-05-01T08:50:55.916Z</time></trkpt><trkpt lat="44.29593424817653" lon="11.32348763222062"><ele>537.6</ele><time>2026-05-01T08:50:57.916Z</time></trkpt><trkpt lat="44.29586581906264" lon="11.323517373417372"><ele>535.4000000000001</ele><time>2026-05-01T08:50:59.916Z</time></trkpt><trkpt lat="44.29580510253661" lon="11.323550667149055"><ele>533.2</ele><time>2026-05-01T08:51:01.916Z</time></trkpt><trkpt lat="44.2957329233819" lon="11.3235967069302"><ele>531.0</ele><time>2026-05-01T08:51:13.915Z</time></trkpt><trkpt lat="44.29561270376586" lon="11.323678797580074"><ele>530.4</ele><time>2026-05-01T08:51:15.915Z</time></trkpt><trkpt lat="44.295525372752714" lon="11.323795408160267"><ele>529.8</ele><time>2026-05-01T08:51:16.915Z</time></trkpt><trkpt lat="44.29546785391605" lon="11.323891829645495"><ele>529.1999999999999</ele><time>2026-05-01T08:51:17.915Z</time></trkpt><trkpt lat="44.29539240127431" lon="11.323967111975653"><ele>528.6</ele><time>2026-05-01T08:51:18.915Z</time></trkpt><trkpt lat="44.29527279136372" lon="11.324068998144625"><ele>528.0</ele><time>2026-05-01T08:51:19.915Z</time></trkpt><trkpt lat="44.295136457039014" lon="11.324170852181837"><ele>528.0</ele><time>2026-05-01T08:51:20.915Z</time></trkpt><trkpt lat="44.29499178510058" lon="11.32428238393534"><ele>528.0</ele><time>2026-05-01T08:51:21.915Z</time></trkpt><trkpt lat="44.29485364709087" lon="11.324385308163393"><ele>528.0</ele><time>2026-05-01T08:51:22.915Z</time></trkpt><trkpt lat="44.29471343338762" lon="11.324480113161094"><ele>525.3333333333334</ele><time>2026-05-01T08:51:23.915Z</time></trkpt><trkpt lat="44.29457164200992" lon="11.324568581945277"><ele>522.6666666666667</ele><time>2026-05-01T08:51:24.915Z</time></trkpt><trkpt lat="44.29440031899496" lon="11.324659126652541"><ele>520.0</ele><time>2026-05-01T08:51:25.915Z</time></trkpt><trkpt lat="44.2942199045787" lon="11.324724771697628"><ele>520.0</ele><time>2026-05-01T08:51:26.915Z</time></trkpt><trkpt lat="44.29405297399132" lon="11.324767945789047"><ele>520.0</ele><time>2026-05-01T08:51:27.915Z</time></trkpt><trkpt lat="44.29392499645271" lon="11.324798844672165"><ele>520.0</ele><time>2026-05-01T08:51:28.915Z</time></trkpt><trkpt lat="44.293808106829495" lon="11.324820328733896"><ele>520.0</ele><time>2026-05-01T08:51:29.915Z</time></trkpt><trkpt lat="44.29369337799246" lon="11.32484418582914"><ele>520.0</ele><time>2026-05-01T08:51:30.915Z</time></trkpt><trkpt lat="44.29358438257392" lon="11.324884223830688"><ele>520.0</ele><time>2026-05-01T08:51:31.915Z</time></trkpt><trkpt lat="44.293489849267694" lon="11.324943786501485"><ele>520.0</ele><time>2026-05-01T08:51:32.915Z</time></trkpt><trkpt lat="44.29338699937425" lon="11.325043444305598"><ele>520.0</ele><time>2026-05-01T08:51:33.915Z</time></trkpt><trkpt lat="44.293301300917335" lon="11.325141658529247"><ele>520.0</ele><time>2026-05-01T08:51:34.915Z</time></trkpt><trkpt lat="44.293218034014316" lon="11.325243595218863"><ele>520.0</ele><time>2026-05-01T08:51:35.915Z</time></trkpt><trkpt lat="44.29313764224894" lon="11.325331040993072"><ele>520.0</ele><time>2026-05-01T08:51:36.915Z</time></trkpt><trkpt lat="44.293068480206514" lon="11.325403430177502"><ele>520.0</ele><time>2026-05-01T08:51:37.915Z</time></trkpt><trkpt lat="44.29298667038852" lon="11.32548012482188"><ele>520.0</ele><time>2026-05-01T08:51:39.915Z</time></trkpt><trkpt lat="44.292883451966944" lon="11.325591509268602"><ele>520.5</ele><time>2026-05-01T08:51:42.914Z</time></trkpt><trkpt lat="44.292816210538156" lon="11.325643126178743"><ele>521.0</ele><time>2026-05-01T08:51:43.914Z</time></trkpt><trkpt lat="44.29275534077152" lon="11.325676070654621"><ele>521.5</ele><time>2026-05-01T08:51:44.914Z</time></trkpt><trkpt lat="44.29269828558072" lon="11.325720094643296"><ele>522.0</ele><time>2026-05-01T08:51:45.914Z</time></trkpt><trkpt lat="44.29260550684245" lon="11.325793257826613"><ele>522.5</ele><time>2026-05-01T08:51:46.914Z</time></trkpt><trkpt lat="44.292475428140875" lon="11.325845123422283"><ele>523.0</ele><time>2026-05-01T08:51:47.914Z</time></trkpt><trkpt lat="44.29222164532931" lon="11.32599897843646"><ele>523.0</ele><time>2026-05-01T08:51:49.914Z</time></trkpt><trkpt lat="44.29212042630701" lon="11.326071529832829"><ele>523.0</ele><time>2026-05-01T08:51:50.914Z</time></trkpt><trkpt lat="44.29203902275515" lon="11.326149036019496"><ele>523.0</ele><time>2026-05-01T08:51:51.914Z</time></trkpt><trkpt lat="44.29197691424767" lon="11.326239334138345"><ele>523.0</ele><time>2026-05-01T08:51:52.914Z</time></trkpt><trkpt lat="44.29192525770688" lon="11.326331279594584"><ele>523.0</ele><time>2026-05-01T08:51:53.914Z</time></trkpt><trkpt lat="44.29187661255421" lon="11.326451057432504"><ele>523.5</ele><time>2026-05-01T08:51:54.914Z</time></trkpt><trkpt lat="44.291824354897365" lon="11.326600076429838"><ele>524.0</ele><time>2026-05-01T08:51:55.914Z</time></trkpt><trkpt lat="44.29177478825773" lon="11.326762168572703"><ele>524.5</ele><time>2026-05-01T08:51:56.914Z</time></trkpt><trkpt lat="44.291726675553434" lon="11.326937394344661"><ele>525.0</ele><time>2026-05-01T08:51:57.914Z</time></trkpt><trkpt lat="44.29167459618219" lon="11.327123470900185"><ele>528.0</ele><time>2026-05-01T08:51:58.914Z</time></trkpt><trkpt lat="44.29160000805778" lon="11.327314006485556"><ele>531.0</ele><time>2026-05-01T08:51:59.914Z</time></trkpt><trkpt lat="44.291553571031685" lon="11.327510313895125"><ele>534.0</ele><time>2026-05-01T08:52:00.914Z</time></trkpt><trkpt lat="44.29150150638395" lon="11.327710122318855"><ele>534.0</ele><time>2026-05-01T08:52:01.914Z</time></trkpt><trkpt lat="44.29143487375563" lon="11.327935289162376"><ele>534.0</ele><time>2026-05-01T08:52:02.914Z</time></trkpt><trkpt lat="44.29135824169743" lon="11.328143002299116"><ele>534.0</ele><time>2026-05-01T08:52:03.914Z</time></trkpt><trkpt lat="44.29129767337636" lon="11.328333336282029"><ele>536.6</ele><time>2026-05-01T08:52:04.914Z</time></trkpt><trkpt lat="44.29126071820695" lon="11.328495091214634"><ele>539.2</ele><time>2026-05-01T08:52:05.914Z</time></trkpt><trkpt lat="44.29122163881228" lon="11.328637334834681"><ele>541.8000000000001</ele><time>2026-05-01T08:52:06.914Z</time></trkpt><trkpt lat="44.29120507858951" lon="11.328754313218102"><ele>544.4</ele><time>2026-05-01T08:52:07.914Z</time></trkpt><trkpt lat="44.291120040806945" lon="11.32885064521818"><ele>547.0</ele><time>2026-05-01T08:52:09.914Z</time></trkpt><trkpt lat="44.29098612389102" lon="11.328832656632198"><ele>547.0</ele><time>2026-05-01T08:52:11.914Z</time></trkpt><trkpt lat="44.29091583990227" lon="11.328776688443847"><ele>547.0</ele><time>2026-05-01T08:52:12.914Z</time></trkpt><trkpt lat="44.29084067649874" lon="11.328708012458211"><ele>547.0</ele><time>2026-05-01T08:52:13.914Z</time></trkpt><trkpt lat="44.29076220380243" lon="11.328591217320417"><ele>547.0</ele><time>2026-05-01T08:52:14.914Z</time></trkpt><trkpt lat="44.29068230249136" lon="11.328484636210217"><ele>547.0</ele><time>2026-05-01T08:52:15.914Z</time></trkpt><trkpt lat="44.290594113022756" lon="11.328401551115624"><ele>546.4</ele><time>2026-05-01T08:52:16.914Z</time></trkpt><trkpt lat="44.29050987507417" lon="11.32834313626639"><ele>545.8000000000001</ele><time>2026-05-01T08:52:17.914Z</time></trkpt><trkpt lat="44.290361676112695" lon="11.328364930327016"><ele>545.2</ele><time>2026-05-01T08:52:19.914Z</time></trkpt><trkpt lat="44.29028812442984" lon="11.328387590584324"><ele>544.6</ele><time>2026-05-01T08:52:20.914Z</time></trkpt><trkpt lat="44.29021027775589" lon="11.328451030105768"><ele>544.0</ele><time>2026-05-01T08:52:21.911Z</time></trkpt><trkpt lat="44.29014400093561" lon="11.32854596373917"><ele>544.0</ele><time>2026-05-01T08:52:22.911Z</time></trkpt><trkpt lat="44.2900808860835" lon="11.32863139231558"><ele>544.0</ele><time>2026-05-01T08:52:23.911Z</time></trkpt><trkpt lat="44.290013032725" lon="11.328704153504487"><ele>544.0</ele><time>2026-05-01T08:52:24.911Z</time></trkpt><trkpt lat="44.289945221863235" lon="11.328765755090478"><ele>544.0</ele><time>2026-05-01T08:52:25.911Z</time></trkpt><trkpt lat="44.289872952136726" lon="11.328829466561718"><ele>544.0</ele><time>2026-05-01T08:52:26.911Z</time></trkpt><trkpt lat="44.28979179802933" lon="11.328896884160304"><ele>544.0</ele><time>2026-05-01T08:52:27.911Z</time></trkpt><trkpt lat="44.28970305206941" lon="11.328955768541437"><ele>546.0</ele><time>2026-05-01T08:52:28.911Z</time></trkpt><trkpt lat="44.28954484014642" lon="11.32906473043145"><ele>548.0</ele><time>2026-05-01T08:52:29.911Z</time></trkpt><trkpt lat="44.289397081768406" lon="11.32912930935774"><ele>550.0</ele><time>2026-05-01T08:52:30.911Z</time></trkpt><trkpt lat="44.28926804147199" lon="11.329178874171857"><ele>550.0</ele><time>2026-05-01T08:52:31.91Z</time></trkpt><trkpt lat="44.28915477353845" lon="11.32922368265909"><ele>550.0</ele><time>2026-05-01T08:52:32.91Z</time></trkpt><trkpt lat="44.28905339044553" lon="11.329294060477316"><ele>550.0</ele><time>2026-05-01T08:52:33.911Z</time></trkpt><trkpt lat="44.288943645348986" lon="11.329356538962571"><ele>550.0</ele><time>2026-05-01T08:52:34.911Z</time></trkpt><trkpt lat="44.288845895549116" lon="11.329506887605508"><ele>546.75</ele><time>2026-05-01T08:52:35.911Z</time></trkpt><trkpt lat="44.28879327792426" lon="11.329719159635516"><ele>543.5</ele><time>2026-05-01T08:52:36.911Z</time></trkpt><trkpt lat="44.288748833103064" lon="11.329927820327265"><ele>540.25</ele><time>2026-05-01T08:52:37.911Z</time></trkpt><trkpt lat="44.28870089531195" lon="11.330089053989887"><ele>537.0</ele><time>2026-05-01T08:52:38.911Z</time></trkpt><trkpt lat="44.28865660843236" lon="11.330200712964015"><ele>537.0</ele><time>2026-05-01T08:52:39.911Z</time></trkpt><trkpt lat="44.28860525511698" lon="11.330276625815165"><ele>537.0</ele><time>2026-05-01T08:52:40.911Z</time></trkpt><trkpt lat="44.28851824941576" lon="11.330340009696046"><ele>537.0</ele><time>2026-05-01T08:52:41.911Z</time></trkpt><trkpt lat="44.288387848754105" lon="11.330395916815489"><ele>537.0</ele><time>2026-05-01T08:52:42.911Z</time></trkpt><trkpt lat="44.288244430949305" lon="11.330485479777144"><ele>539.6666666666666</ele><time>2026-05-01T08:52:43.911Z</time></trkpt><trkpt lat="44.288064817939656" lon="11.330602266311804"><ele>542.3333333333333</ele><time>2026-05-01T08:52:44.911Z</time></trkpt><trkpt lat="44.287880889615224" lon="11.330715149317097"><ele>545.0</ele><time>2026-05-01T08:52:45.911Z</time></trkpt><trkpt lat="44.2877029248858" lon="11.330819339033875"><ele>545.0</ele><time>2026-05-01T08:52:46.911Z</time></trkpt><trkpt lat="44.28752312723921" lon="11.33093725121267"><ele>545.0</ele><time>2026-05-01T08:52:47.911Z</time></trkpt><trkpt lat="44.28736775919171" lon="11.33103812884255"><ele>545.0</ele><time>2026-05-01T08:52:48.911Z</time></trkpt><trkpt lat="44.28721486639534" lon="11.331149575514877"><ele>546.0</ele><time>2026-05-01T08:52:49.911Z</time></trkpt><trkpt lat="44.28706348616664" lon="11.331259929544853"><ele>547.0</ele><time>2026-05-01T08:52:50.911Z</time></trkpt><trkpt lat="44.286941131315444" lon="11.331377026799558"><ele>548.0</ele><time>2026-05-01T08:52:51.911Z</time></trkpt><trkpt lat="44.28683747517141" lon="11.331472156209625"><ele>549.0</ele><time>2026-05-01T08:52:52.911Z</time></trkpt><trkpt lat="44.28674691809775" lon="11.331523550077994"><ele>551.4</ele><time>2026-05-01T08:52:53.911Z</time></trkpt><trkpt lat="44.2866610072695" lon="11.331538603498217"><ele>553.8</ele><time>2026-05-01T08:52:54.911Z</time></trkpt><trkpt lat="44.286565241862114" lon="11.331530180904988"><ele>556.2</ele><time>2026-05-01T08:52:55.911Z</time></trkpt><trkpt lat="44.28647691505436" lon="11.331451941971572"><ele>558.6</ele><time>2026-05-01T08:52:56.911Z</time></trkpt><trkpt lat="44.28639302434052" lon="11.33131757117156"><ele>561.0</ele><time>2026-05-01T08:52:57.911Z</time></trkpt><trkpt lat="44.286307539711366" lon="11.331184330009334"><ele>562.75</ele><time>2026-05-01T08:52:58.911Z</time></trkpt><trkpt lat="44.286217549763585" lon="11.331042678129478"><ele>564.5</ele><time>2026-05-01T08:52:59.911Z</time></trkpt><trkpt lat="44.28610666613101" lon="11.330926135879336"><ele>566.25</ele><time>2026-05-01T08:53:00.911Z</time></trkpt><trkpt lat="44.28596969567918" lon="11.33082160526806"><ele>568.0</ele><time>2026-05-01T08:53:01.911Z</time></trkpt><trkpt lat="44.28584611538243" lon="11.330748053376455"><ele>568.0</ele><time>2026-05-01T08:53:02.911Z</time></trkpt><trkpt lat="44.28571219451068" lon="11.330682034559018"><ele>568.0</ele><time>2026-05-01T08:53:03.911Z</time></trkpt><trkpt lat="44.28557135995449" lon="11.330654758825927"><ele>568.0</ele><time>2026-05-01T08:53:04.911Z</time></trkpt><trkpt lat="44.2854301243045" lon="11.330678815334348"><ele>568.0</ele><time>2026-05-01T08:53:05.911Z</time></trkpt><trkpt lat="44.28530393400586" lon="11.330711042776077"><ele>569.1999999999999</ele><time>2026-05-01T08:53:06.911Z</time></trkpt><trkpt lat="44.28521080520866" lon="11.330720640726911"><ele>570.4</ele><time>2026-05-01T08:53:07.911Z</time></trkpt><trkpt lat="44.28512150184287" lon="11.330760508100205"><ele>571.5999999999999</ele><time>2026-05-01T08:53:08.911Z</time></trkpt><trkpt lat="44.28505272443676" lon="11.330834583100488"><ele>572.8</ele><time>2026-05-01T08:53:09.911Z</time></trkpt><trkpt lat="44.28499841141555" lon="11.330977251477368"><ele>574.0</ele><time>2026-05-01T08:53:11.91Z</time></trkpt><trkpt lat="44.284983092635784" lon="11.331064320569167"><ele>574.0</ele><time>2026-05-01T08:53:14.91Z</time></trkpt><trkpt lat="44.284936295434356" lon="11.330831031873918"><ele>574.0</ele><time>2026-05-01T08:53:22.91Z</time></trkpt><trkpt lat="44.28493829712922" lon="11.330715093575808"><ele>574.0</ele><time>2026-05-01T08:53:23.91Z</time></trkpt><trkpt lat="44.28493676305755" lon="11.330583936684187"><ele>574.0</ele><time>2026-05-01T08:53:24.91Z</time></trkpt><trkpt lat="44.28493981316742" lon="11.330458292684863"><ele>574.0</ele><time>2026-05-01T08:53:25.91Z</time></trkpt><trkpt lat="44.28494176057316" lon="11.330317892441688"><ele>575.0</ele><time>2026-05-01T08:53:26.91Z</time></trkpt><trkpt lat="44.284940616075396" lon="11.330164495467843"><ele>576.0</ele><time>2026-05-01T08:53:27.91Z</time></trkpt><trkpt lat="44.28493234495058" lon="11.329994613331806"><ele>577.0</ele><time>2026-05-01T08:53:28.91Z</time></trkpt><trkpt lat="44.284916410522705" lon="11.329834749126842"><ele>578.0</ele><time>2026-05-01T08:53:29.91Z</time></trkpt><trkpt lat="44.28487217947751" lon="11.329663377965673"><ele>577.75</ele><time>2026-05-01T08:53:30.91Z</time></trkpt><trkpt lat="44.28480563333649" lon="11.32950475367445"><ele>577.5</ele><time>2026-05-01T08:53:31.91Z</time></trkpt><trkpt lat="44.284728940007035" lon="11.329369376717555"><ele>577.25</ele><time>2026-05-01T08:53:32.91Z</time></trkpt><trkpt lat="44.28463659715197" lon="11.329236798083414"><ele>577.0</ele><time>2026-05-01T08:53:33.91Z</time></trkpt><trkpt lat="44.28455320795089" lon="11.329108601080568"><ele>577.0</ele><time>2026-05-01T08:53:34.91Z</time></trkpt><trkpt lat="44.284470779733006" lon="11.328974867637266"><ele>577.0</ele><time>2026-05-01T08:53:35.91Z</time></trkpt><trkpt lat="44.2843979374093" lon="11.328847901218362"><ele>577.0</ele><time>2026-05-01T08:53:36.91Z</time></trkpt><trkpt lat="44.28433224934807" lon="11.32872537050959"><ele>577.0</ele><time>2026-05-01T08:53:37.91Z</time></trkpt><trkpt lat="44.28426363495097" lon="11.328598990094312"><ele>578.5</ele><time>2026-05-01T08:53:38.91Z</time></trkpt><trkpt lat="44.284189665967446" lon="11.328459316013024"><ele>580.0</ele><time>2026-05-01T08:53:39.91Z</time></trkpt><trkpt lat="44.28411878960071" lon="11.328303672354837"><ele>581.5</ele><time>2026-05-01T08:53:40.91Z</time></trkpt><trkpt lat="44.28404718913315" lon="11.328145949561225"><ele>583.0</ele><time>2026-05-01T08:53:41.91Z</time></trkpt><trkpt lat="44.28398527094536" lon="11.327979231673583"><ele>583.0</ele><time>2026-05-01T08:53:42.91Z</time></trkpt><trkpt lat="44.28394611481996" lon="11.327796049731466"><ele>583.0</ele><time>2026-05-01T08:53:43.91Z</time></trkpt><trkpt lat="44.283930073749374" lon="11.327603606865091"><ele>583.0</ele><time>2026-05-01T08:53:44.91Z</time></trkpt><trkpt lat="44.283934367567056" lon="11.327404322501074"><ele>583.0</ele><time>2026-05-01T08:53:45.91Z</time></trkpt><trkpt lat="44.28394645727048" lon="11.327231505331651"><ele>583.25</ele><time>2026-05-01T08:53:46.91Z</time></trkpt><trkpt lat="44.283940040785204" lon="11.327068591425816"><ele>583.5</ele><time>2026-05-01T08:53:47.91Z</time></trkpt><trkpt lat="44.28389207361155" lon="11.326913983894508"><ele>583.75</ele><time>2026-05-01T08:53:48.91Z</time></trkpt><trkpt lat="44.28381023871256" lon="11.326775270603214"><ele>584.0</ele><time>2026-05-01T08:53:49.91Z</time></trkpt><trkpt lat="44.28370836022465" lon="11.326664149664698"><ele>585.0</ele><time>2026-05-01T08:53:50.91Z</time></trkpt><trkpt lat="44.28359163710928" lon="11.326573517322469"><ele>586.0</ele><time>2026-05-01T08:53:51.91Z</time></trkpt><trkpt lat="44.283478967813764" lon="11.326507802824784"><ele>587.0</ele><time>2026-05-01T08:53:52.91Z</time></trkpt><trkpt lat="44.2833862398889" lon="11.32646525767565"><ele>588.0</ele><time>2026-05-01T08:53:53.91Z</time></trkpt><trkpt lat="44.28330007790581" lon="11.32644110932489"><ele>589.0</ele><time>2026-05-01T08:53:54.91Z</time></trkpt><trkpt lat="44.283224966700345" lon="11.326426896838605"><ele>589.0</ele><time>2026-05-01T08:53:55.91Z</time></trkpt><trkpt lat="44.283142977039816" lon="11.32640783874957"><ele>589.0</ele><time>2026-05-01T08:53:56.91Z</time></trkpt><trkpt lat="44.28298431091764" lon="11.326349007700369"><ele>589.0</ele><time>2026-05-01T08:53:58.91Z</time></trkpt><trkpt lat="44.28291598736488" lon="11.326312010417887"><ele>589.0</ele><time>2026-05-01T08:53:59.91Z</time></trkpt><trkpt lat="44.28283417256387" lon="11.326260700762118"><ele>589.0</ele><time>2026-05-01T08:54:01.909Z</time></trkpt><trkpt lat="44.28279766016598" lon="11.326187508105406"><ele>592.2</ele><time>2026-05-01T08:54:04.909Z</time></trkpt><trkpt lat="44.282733592956276" lon="11.326051897577269"><ele>595.4</ele><time>2026-05-01T08:54:06.909Z</time></trkpt><trkpt lat="44.2827023560104" lon="11.325943214446138"><ele>598.6</ele><time>2026-05-01T08:54:07.909Z</time></trkpt><trkpt lat="44.28268092698049" lon="11.325794097896"><ele>601.8</ele><time>2026-05-01T08:54:08.909Z</time></trkpt><trkpt lat="44.282680985943514" lon="11.325636035545738"><ele>605.0</ele><time>2026-05-01T08:54:09.909Z</time></trkpt><trkpt lat="44.28271856778655" lon="11.32546079141297"><ele>610.6666666666666</ele><time>2026-05-01T08:54:10.909Z</time></trkpt><trkpt lat="44.28277664845083" lon="11.325275439159661"><ele>616.3333333333334</ele><time>2026-05-01T08:54:11.909Z</time></trkpt><trkpt lat="44.28285125910463" lon="11.325084344135357"><ele>622.0</ele><time>2026-05-01T08:54:12.909Z</time></trkpt><trkpt lat="44.28293181729262" lon="11.324880115125296"><ele>624.25</ele><time>2026-05-01T08:54:13.909Z</time></trkpt><trkpt lat="44.28303447705316" lon="11.324704622678045"><ele>626.5</ele><time>2026-05-01T08:54:14.909Z</time></trkpt><trkpt lat="44.28311986149107" lon="11.324538588838985"><ele>628.75</ele><time>2026-05-01T08:54:15.909Z</time></trkpt><trkpt lat="44.283197047166595" lon="11.32437482330285"><ele>631.0</ele><time>2026-05-01T08:54:16.909Z</time></trkpt><trkpt lat="44.28324779625047" lon="11.324183476405409"><ele>626.5</ele><time>2026-05-01T08:54:17.909Z</time></trkpt><trkpt lat="44.2832790062535" lon="11.32396582091289"><ele>622.0</ele><time>2026-05-01T08:54:18.909Z</time></trkpt><trkpt lat="44.283279287198965" lon="11.323759442489976"><ele>617.5</ele><time>2026-05-01T08:54:19.909Z</time></trkpt><trkpt lat="44.28327533646457" lon="11.323570030221001"><ele>613.0</ele><time>2026-05-01T08:54:20.909Z</time></trkpt><trkpt lat="44.28331191341791" lon="11.323386839590363"><ele>613.0</ele><time>2026-05-01T08:54:21.909Z</time></trkpt><trkpt lat="44.28336682420087" lon="11.323229073555243"><ele>613.0</ele><time>2026-05-01T08:54:22.909Z</time></trkpt><trkpt lat="44.2834495068582" lon="11.323098541541452"><ele>613.0</ele><time>2026-05-01T08:54:23.909Z</time></trkpt><trkpt lat="44.28356340869437" lon="11.322987053793037"><ele>613.0</ele><time>2026-05-01T08:54:24.909Z</time></trkpt><trkpt lat="44.28367419058372" lon="11.322888141247729"><ele>612.0</ele><time>2026-05-01T08:54:25.909Z</time></trkpt><trkpt lat="44.28375962186828" lon="11.322777462167437"><ele>611.0</ele><time>2026-05-01T08:54:26.909Z</time></trkpt><trkpt lat="44.28385319177292" lon="11.322626275398456"><ele>610.0</ele><time>2026-05-01T08:54:27.906Z</time></trkpt><trkpt lat="44.28394140641163" lon="11.322435005929762"><ele>609.0</ele><time>2026-05-01T08:54:28.906Z</time></trkpt><trkpt lat="44.28403997869811" lon="11.322241287949575"><ele>611.75</ele><time>2026-05-01T08:54:29.906Z</time></trkpt><trkpt lat="44.2841470214907" lon="11.32208563763423"><ele>614.5</ele><time>2026-05-01T08:54:30.906Z</time></trkpt><trkpt lat="44.284247630260666" lon="11.321943266552513"><ele>617.25</ele><time>2026-05-01T08:54:31.906Z</time></trkpt><trkpt lat="44.28434134658325" lon="11.321814270313071"><ele>620.0</ele><time>2026-05-01T08:54:32.906Z</time></trkpt><trkpt lat="44.28442650355079" lon="11.321692895339156"><ele>620.0</ele><time>2026-05-01T08:54:33.906Z</time></trkpt><trkpt lat="44.284482305515326" lon="11.321572926133841"><ele>620.0</ele><time>2026-05-01T08:54:34.906Z</time></trkpt><trkpt lat="44.28451200531941" lon="11.321446490268881"><ele>620.0</ele><time>2026-05-01T08:54:35.906Z</time></trkpt><trkpt lat="44.28452646360754" lon="11.321304911269543"><ele>620.0</ele><time>2026-05-01T08:54:36.905Z</time></trkpt><trkpt lat="44.28448135333163" lon="11.321142217750392"><ele>620.0</ele><time>2026-05-01T08:54:37.905Z</time></trkpt><trkpt lat="44.284382047043664" lon="11.320999848671429"><ele>620.0</ele><time>2026-05-01T08:54:38.905Z</time></trkpt><trkpt lat="44.28426353025118" lon="11.32091474874585"><ele>620.0</ele><time>2026-05-01T08:54:39.905Z</time></trkpt><trkpt lat="44.284128302202774" lon="11.320910396348333"><ele>620.0</ele><time>2026-05-01T08:54:40.905Z</time></trkpt><trkpt lat="44.2840355779422" lon="11.320965855213405"><ele>620.0</ele><time>2026-05-01T08:54:41.905Z</time></trkpt><trkpt lat="44.283957903943964" lon="11.321081910968218"><ele>619.75</ele><time>2026-05-01T08:54:42.905Z</time></trkpt><trkpt lat="44.2838698821749" lon="11.321203182635436"><ele>619.5</ele><time>2026-05-01T08:54:43.905Z</time></trkpt><trkpt lat="44.28376703634026" lon="11.321340635503491"><ele>619.25</ele><time>2026-05-01T08:54:44.905Z</time></trkpt><trkpt lat="44.28365837179388" lon="11.321469691646458"><ele>619.0</ele><time>2026-05-01T08:54:45.905Z</time></trkpt><trkpt lat="44.28353532578178" lon="11.321597119101238"><ele>619.0</ele><time>2026-05-01T08:54:46.905Z</time></trkpt><trkpt lat="44.28339123968886" lon="11.321697367761907"><ele>619.0</ele><time>2026-05-01T08:54:47.905Z</time></trkpt><trkpt lat="44.28324302524234" lon="11.321784856896235"><ele>619.0</ele><time>2026-05-01T08:54:48.905Z</time></trkpt><trkpt lat="44.28311593468567" lon="11.32188664937089"><ele>618.75</ele><time>2026-05-01T08:54:49.905Z</time></trkpt><trkpt lat="44.282991450971736" lon="11.32198077022066"><ele>618.5</ele><time>2026-05-01T08:54:50.905Z</time></trkpt><trkpt lat="44.282870392980094" lon="11.322089868697594"><ele>618.25</ele><time>2026-05-01T08:54:51.905Z</time></trkpt><trkpt lat="44.28279155323081" lon="11.322277714133861"><ele>618.0</ele><time>2026-05-01T08:54:52.905Z</time></trkpt><trkpt lat="44.28273350448579" lon="11.322482730835384"><ele>618.0</ele><time>2026-05-01T08:54:53.905Z</time></trkpt><trkpt lat="44.28266590955513" lon="11.322692418134825"><ele>618.0</ele><time>2026-05-01T08:54:54.905Z</time></trkpt><trkpt lat="44.28259094441341" lon="11.322912569722941"><ele>618.0</ele><time>2026-05-01T08:54:55.905Z</time></trkpt><trkpt lat="44.282502213768616" lon="11.323126303896187"><ele>617.3333333333334</ele><time>2026-05-01T08:54:56.905Z</time></trkpt><trkpt lat="44.28241111942682" lon="11.32333681215947"><ele>616.6666666666667</ele><time>2026-05-01T08:54:57.905Z</time></trkpt><trkpt lat="44.282322393857946" lon="11.32355107581775"><ele>616.0</ele><time>2026-05-01T08:54:58.905Z</time></trkpt><trkpt lat="44.28220383796615" lon="11.323709071160591"><ele>616.0</ele><time>2026-05-01T08:54:59.905Z</time></trkpt><trkpt lat="44.282060995789365" lon="11.32383922490227"><ele>616.0</ele><time>2026-05-01T08:55:00.905Z</time></trkpt><trkpt lat="44.28192484216851" lon="11.323952794611357"><ele>616.0</ele><time>2026-05-01T08:55:01.905Z</time></trkpt><trkpt lat="44.28181032106869" lon="11.324083457835215"><ele>620.3333333333334</ele><time>2026-05-01T08:55:02.905Z</time></trkpt><trkpt lat="44.281716375804216" lon="11.324256303148488"><ele>624.6666666666666</ele><time>2026-05-01T08:55:03.905Z</time></trkpt><trkpt lat="44.28164264821052" lon="11.32445085228866"><ele>629.0</ele><time>2026-05-01T08:55:04.905Z</time></trkpt><trkpt lat="44.28157414255977" lon="11.324687693081957"><ele>630.25</ele><time>2026-05-01T08:55:05.905Z</time></trkpt><trkpt lat="44.28151457820121" lon="11.324892610098512"><ele>631.5</ele><time>2026-05-01T08:55:06.905Z</time></trkpt><trkpt lat="44.28144382641151" lon="11.325073938661333"><ele>632.75</ele><time>2026-05-01T08:55:07.905Z</time></trkpt><trkpt lat="44.281386105216285" lon="11.325206214569727"><ele>634.0</ele><time>2026-05-01T08:55:08.905Z</time></trkpt><trkpt lat="44.281311293208354" lon="11.325288872375806"><ele>634.0</ele><time>2026-05-01T08:55:09.905Z</time></trkpt><trkpt lat="44.281208078876475" lon="11.325335570099654"><ele>634.0</ele><time>2026-05-01T08:55:10.905Z</time></trkpt><trkpt lat="44.281089471047565" lon="11.32533408926465"><ele>634.0</ele><time>2026-05-01T08:55:11.905Z</time></trkpt><trkpt lat="44.280947621590364" lon="11.325310945457032"><ele>634.0</ele><time>2026-05-01T08:55:12.905Z</time></trkpt><trkpt lat="44.28079577754914" lon="11.325262876890411"><ele>634.0</ele><time>2026-05-01T08:55:13.905Z</time></trkpt><trkpt lat="44.28061497593744" lon="11.325229677469299"><ele>634.0</ele><time>2026-05-01T08:55:14.905Z</time></trkpt><trkpt lat="44.280461753534574" lon="11.325164216162756"><ele>634.0</ele><time>2026-05-01T08:55:15.905Z</time></trkpt><trkpt lat="44.280307992477454" lon="11.325130823591001"><ele>636.0</ele><time>2026-05-01T08:55:16.905Z</time></trkpt><trkpt lat="44.28017302299701" lon="11.325103497858926"><ele>638.0</ele><time>2026-05-01T08:55:17.905Z</time></trkpt><trkpt lat="44.28004890524843" lon="11.32507140265575"><ele>640.0</ele><time>2026-05-01T08:55:18.905Z</time></trkpt><trkpt lat="44.27994092444735" lon="11.325014951929674"><ele>642.0</ele><time>2026-05-01T08:55:19.905Z</time></trkpt><trkpt lat="44.27986208823578" lon="11.324919768211743"><ele>642.0</ele><time>2026-05-01T08:55:20.905Z</time></trkpt><trkpt lat="44.279802317186494" lon="11.324802341132793"><ele>642.0</ele><time>2026-05-01T08:55:21.905Z</time></trkpt><trkpt lat="44.27977413819151" lon="11.324652733763344"><ele>642.0</ele><time>2026-05-01T08:55:22.905Z</time></trkpt><trkpt lat="44.279733987098375" lon="11.324496847585007"><ele>642.0</ele><time>2026-05-01T08:55:23.905Z</time></trkpt><trkpt lat="44.27964728441489" lon="11.324360702383629"><ele>646.3333333333334</ele><time>2026-05-01T08:55:24.905Z</time></trkpt><trkpt lat="44.27952768096692" lon="11.324224142651898"><ele>650.6666666666667</ele><time>2026-05-01T08:55:25.905Z</time></trkpt><trkpt lat="44.279399231225135" lon="11.324084083517452"><ele>655.0</ele><time>2026-05-01T08:55:26.904Z</time></trkpt><trkpt lat="44.27927974655759" lon="11.323919187746165"><ele>658.3333333333334</ele><time>2026-05-01T08:55:27.904Z</time></trkpt><trkpt lat="44.27915704654145" lon="11.323753192504153"><ele>661.6666666666666</ele><time>2026-05-01T08:55:28.904Z</time></trkpt><trkpt lat="44.27903541881142" lon="11.323616273767877"><ele>665.0</ele><time>2026-05-01T08:55:29.904Z</time></trkpt><trkpt lat="44.27892340011741" lon="11.323498831256249"><ele>665.0</ele><time>2026-05-01T08:55:30.904Z</time></trkpt><trkpt lat="44.27883257186986" lon="11.323389273139114"><ele>665.0</ele><time>2026-05-01T08:55:31.904Z</time></trkpt><trkpt lat="44.278763131671056" lon="11.323278274873386"><ele>665.0</ele><time>2026-05-01T08:55:32.904Z</time></trkpt><trkpt lat="44.27873361870102" lon="11.323157198609167"><ele>665.0</ele><time>2026-05-01T08:55:33.904Z</time></trkpt><trkpt lat="44.278746392126116" lon="11.323042682962807"><ele>665.0</ele><time>2026-05-01T08:55:34.904Z</time></trkpt><trkpt lat="44.278788378090596" lon="11.322919803646165"><ele>665.25</ele><time>2026-05-01T08:55:35.904Z</time></trkpt><trkpt lat="44.27883754695768" lon="11.322786123682972"><ele>665.5</ele><time>2026-05-01T08:55:36.904Z</time></trkpt><trkpt lat="44.27884969689861" lon="11.322639993026598"><ele>665.75</ele><time>2026-05-01T08:55:37.904Z</time></trkpt><trkpt lat="44.278817201378125" lon="11.322481828958288"><ele>666.0</ele><time>2026-05-01T08:55:38.904Z</time></trkpt><trkpt lat="44.27875159103114" lon="11.322322590782262"><ele>662.0</ele><time>2026-05-01T08:55:39.904Z</time></trkpt><trkpt lat="44.278650712420806" lon="11.322160121223119"><ele>658.0</ele><time>2026-05-01T08:55:40.904Z</time></trkpt><trkpt lat="44.27855352770086" lon="11.321993627824485"><ele>654.0</ele><time>2026-05-01T08:55:41.904Z</time></trkpt><trkpt lat="44.2784608665077" lon="11.321841671560282"><ele>654.0</ele><time>2026-05-01T08:55:42.904Z</time></trkpt><trkpt lat="44.2783737557923" lon="11.321716429579537"><ele>654.0</ele><time>2026-05-01T08:55:43.904Z</time></trkpt><trkpt lat="44.27826591702922" lon="11.321640650637898"><ele>654.0</ele><time>2026-05-01T08:55:44.904Z</time></trkpt><trkpt lat="44.27814419743708" lon="11.321614234024988"><ele>654.0</ele><time>2026-05-01T08:55:45.904Z</time></trkpt><trkpt lat="44.278027874507366" lon="11.321657882120984"><ele>656.0</ele><time>2026-05-01T08:55:46.904Z</time></trkpt><trkpt lat="44.27791189842019" lon="11.321739714890219"><ele>658.0</ele><time>2026-05-01T08:55:47.904Z</time></trkpt><trkpt lat="44.27780744179542" lon="11.321818450504502"><ele>660.0</ele><time>2026-05-01T08:55:48.904Z</time></trkpt><trkpt lat="44.27769112107288" lon="11.32184034785774"><ele>662.0</ele><time>2026-05-01T08:55:49.904Z</time></trkpt><trkpt lat="44.277557577625764" lon="11.321823313369993"><ele>662.0</ele><time>2026-05-01T08:55:50.904Z</time></trkpt><trkpt lat="44.27742960949023" lon="11.321765442008138"><ele>662.0</ele><time>2026-05-01T08:55:51.904Z</time></trkpt><trkpt lat="44.277310972762926" lon="11.321665161071627"><ele>662.0</ele><time>2026-05-01T08:55:52.904Z</time></trkpt><trkpt lat="44.27720673161877" lon="11.321534294878628"><ele>662.0</ele><time>2026-05-01T08:55:53.904Z</time></trkpt><trkpt lat="44.277124180356836" lon="11.321379892554349"><ele>668.5</ele><time>2026-05-01T08:55:54.904Z</time></trkpt><trkpt lat="44.27704966088112" lon="11.321212419006919"><ele>675.0</ele><time>2026-05-01T08:55:55.904Z</time></trkpt><trkpt lat="44.27700513916427" lon="11.321041594638055"><ele>681.5</ele><time>2026-05-01T08:55:56.904Z</time></trkpt><trkpt lat="44.276988013638864" lon="11.320881143284755"><ele>688.0</ele><time>2026-05-01T08:55:57.904Z</time></trkpt><trkpt lat="44.277005205197774" lon="11.320735147096741"><ele>688.0</ele><time>2026-05-01T08:55:58.904Z</time></trkpt><trkpt lat="44.27704940853056" lon="11.320601214712216"><ele>688.0</ele><time>2026-05-01T08:55:59.904Z</time></trkpt><trkpt lat="44.277073896285316" lon="11.320476007987397"><ele>688.0</ele><time>2026-05-01T08:56:00.904Z</time></trkpt><trkpt lat="44.277069670822726" lon="11.320357644422517"><ele>688.0</ele><time>2026-05-01T08:56:01.904Z</time></trkpt><trkpt lat="44.27702371302921" lon="11.320257522165983"><ele>688.0</ele><time>2026-05-01T08:56:02.904Z</time></trkpt><trkpt lat="44.27694382805413" lon="11.320182717791285"><ele>683.0</ele><time>2026-05-01T08:56:03.904Z</time></trkpt><trkpt lat="44.27684068084764" lon="11.320118128398938"><ele>678.0</ele><time>2026-05-01T08:56:04.904Z</time></trkpt><trkpt lat="44.27673146533659" lon="11.320044924645"><ele>673.0</ele><time>2026-05-01T08:56:05.904Z</time></trkpt><trkpt lat="44.276614212807075" lon="11.319966755792304"><ele>668.0</ele><time>2026-05-01T08:56:06.904Z</time></trkpt><trkpt lat="44.27649529504947" lon="11.319889926409838"><ele>670.75</ele><time>2026-05-01T08:56:07.904Z</time></trkpt><trkpt lat="44.27637577437264" lon="11.319824491519999"><ele>673.5</ele><time>2026-05-01T08:56:08.904Z</time></trkpt><trkpt lat="44.27624895602689" lon="11.319731998459346"><ele>676.25</ele><time>2026-05-01T08:56:09.904Z</time></trkpt><trkpt lat="44.276124307448555" lon="11.319608956485482"><ele>679.0</ele><time>2026-05-01T08:56:10.904Z</time></trkpt><trkpt lat="44.276013418955266" lon="11.319475718329418"><ele>679.0</ele><time>2026-05-01T08:56:11.904Z</time></trkpt><trkpt lat="44.27592250250062" lon="11.319376817031133"><ele>679.0</ele><time>2026-05-01T08:56:12.904Z</time></trkpt><trkpt lat="44.27584097017315" lon="11.319290319113735"><ele>679.0</ele><time>2026-05-01T08:56:13.904Z</time></trkpt><trkpt lat="44.27577947178254" lon="11.319172388352596"><ele>679.0</ele><time>2026-05-01T08:56:14.903Z</time></trkpt><trkpt lat="44.275715219165626" lon="11.319026453337576"><ele>679.0</ele><time>2026-05-01T08:56:15.903Z</time></trkpt><trkpt lat="44.275692182373355" lon="11.318876234474477"><ele>679.25</ele><time>2026-05-01T08:56:16.903Z</time></trkpt><trkpt lat="44.275714217305676" lon="11.318728383443405"><ele>679.5</ele><time>2026-05-01T08:56:17.903Z</time></trkpt><trkpt lat="44.27575202988696" lon="11.318597687347237"><ele>679.75</ele><time>2026-05-01T08:56:18.903Z</time></trkpt><trkpt lat="44.275820828668714" lon="11.318458511410567"><ele>680.0</ele><time>2026-05-01T08:56:19.903Z</time></trkpt><trkpt lat="44.27589401765373" lon="11.318298382134133"><ele>680.0</ele><time>2026-05-01T08:56:20.903Z</time></trkpt><trkpt lat="44.27593410486588" lon="11.318122158866744"><ele>680.0</ele><time>2026-05-01T08:56:21.903Z</time></trkpt><trkpt lat="44.27594521725181" lon="11.317940252179861"><ele>680.0</ele><time>2026-05-01T08:56:22.903Z</time></trkpt><trkpt lat="44.275959416216836" lon="11.31775219073547"><ele>680.0</ele><time>2026-05-01T08:56:23.903Z</time></trkpt><trkpt lat="44.27600261050235" lon="11.317555879357739"><ele>684.6666666666666</ele><time>2026-05-01T08:56:24.903Z</time></trkpt><trkpt lat="44.27608027776142" lon="11.31736867572075"><ele>689.3333333333334</ele><time>2026-05-01T08:56:25.903Z</time></trkpt><trkpt lat="44.27619502236548" lon="11.317207634138578"><ele>694.0</ele><time>2026-05-01T08:56:26.903Z</time></trkpt><trkpt lat="44.276326290622265" lon="11.31707215316162"><ele>690.75</ele><time>2026-05-01T08:56:27.903Z</time></trkpt><trkpt lat="44.276478606606474" lon="11.31694939739792"><ele>687.5</ele><time>2026-05-01T08:56:28.903Z</time></trkpt><trkpt lat="44.2765903239751" lon="11.316833265303384"><ele>684.25</ele><time>2026-05-01T08:56:29.903Z</time></trkpt><trkpt lat="44.276678565260674" lon="11.316726527100695"><ele>681.0</ele><time>2026-05-01T08:56:30.903Z</time></trkpt><trkpt lat="44.27673505818411" lon="11.316629971397832"><ele>681.0</ele><time>2026-05-01T08:56:31.903Z</time></trkpt><trkpt lat="44.27674844963527" lon="11.316521960934699"><ele>681.0</ele><time>2026-05-01T08:56:32.903Z</time></trkpt><trkpt lat="44.27676758152623" lon="11.3163891631891"><ele>681.0</ele><time>2026-05-01T08:56:33.901Z</time></trkpt><trkpt lat="44.27672301128756" lon="11.316255877025382"><ele>681.0</ele><time>2026-05-01T08:56:34.901Z</time></trkpt><trkpt lat="44.2766547838954" lon="11.316159254976496"><ele>681.0</ele><time>2026-05-01T08:56:35.901Z</time></trkpt><trkpt lat="44.27660426570101" lon="11.316097286680815"><ele>681.0</ele><time>2026-05-01T08:56:36.901Z</time></trkpt><trkpt lat="44.2765322534246" lon="11.316007595907303"><ele>680.5999999999999</ele><time>2026-05-01T08:56:38.9Z</time></trkpt><trkpt lat="44.27645270883202" lon="11.315922400243164"><ele>680.2</ele><time>2026-05-01T08:57:51.899Z</time></trkpt><trkpt lat="44.27638992541762" lon="11.315798826898527"><ele>679.8</ele><time>2026-05-01T08:57:53.899Z</time></trkpt><trkpt lat="44.27633571773082" lon="11.315731371821775"><ele>679.4000000000001</ele><time>2026-05-01T08:57:54.899Z</time></trkpt><trkpt lat="44.27627636877205" lon="11.315650517107784"><ele>679.0</ele><time>2026-05-01T08:57:55.899Z</time></trkpt><trkpt lat="44.27621597340887" lon="11.315557652730828"><ele>682.2</ele><time>2026-05-01T08:57:56.899Z</time></trkpt><trkpt lat="44.27614763360662" lon="11.315456594178794"><ele>685.4000000000001</ele><time>2026-05-01T08:57:57.899Z</time></trkpt><trkpt lat="44.27608533676863" lon="11.315333851073628"><ele>688.6</ele><time>2026-05-01T08:57:58.899Z</time></trkpt><trkpt lat="44.27604460255457" lon="11.315191275011484"><ele>691.8</ele><time>2026-05-01T08:57:59.899Z</time></trkpt><trkpt lat="44.27602722783822" lon="11.315033754374165"><ele>695.0</ele><time>2026-05-01T08:58:00.899Z</time></trkpt><trkpt lat="44.27601853186214" lon="11.314848897501852"><ele>695.5</ele><time>2026-05-01T08:58:01.899Z</time></trkpt><trkpt lat="44.27603028462751" lon="11.314668838015201"><ele>696.0</ele><time>2026-05-01T08:58:02.899Z</time></trkpt><trkpt lat="44.27605478880781" lon="11.31446670510991"><ele>696.5</ele><time>2026-05-01T08:58:03.899Z</time></trkpt><trkpt lat="44.27606056594364" lon="11.314250194029462"><ele>697.0</ele><time>2026-05-01T08:58:04.899Z</time></trkpt><trkpt lat="44.276072294120354" lon="11.314039136666654"><ele>697.0</ele><time>2026-05-01T08:58:05.899Z</time></trkpt><trkpt lat="44.27606840904408" lon="11.313840450086252"><ele>697.0</ele><time>2026-05-01T08:58:06.899Z</time></trkpt><trkpt lat="44.27607303875225" lon="11.313631904323552"><ele>697.0</ele><time>2026-05-01T08:58:07.899Z</time></trkpt><trkpt lat="44.27609568662902" lon="11.313436995451832"><ele>697.0</ele><time>2026-05-01T08:58:08.899Z</time></trkpt><trkpt lat="44.276082921283255" lon="11.31324562270975"><ele>696.25</ele><time>2026-05-01T08:58:09.899Z</time></trkpt><trkpt lat="44.276039523950566" lon="11.313047975025542"><ele>695.5</ele><time>2026-05-01T08:58:10.899Z</time></trkpt><trkpt lat="44.275980115443694" lon="11.312855716330597"><ele>694.75</ele><time>2026-05-01T08:58:11.899Z</time></trkpt><trkpt lat="44.27593280574958" lon="11.312689884147456"><ele>694.0</ele><time>2026-05-01T08:58:12.899Z</time></trkpt><trkpt lat="44.27588511525015" lon="11.312538277774705"><ele>694.0</ele><time>2026-05-01T08:58:13.899Z</time></trkpt><trkpt lat="44.27582694830635" lon="11.312421929413299"><ele>694.0</ele><time>2026-05-01T08:58:14.899Z</time></trkpt><trkpt lat="44.27575763383565" lon="11.312315565161084"><ele>694.0</ele><time>2026-05-01T08:58:15.899Z</time></trkpt><trkpt lat="44.27566532126545" lon="11.312283640841262"><ele>694.0</ele><time>2026-05-01T08:58:16.899Z</time></trkpt><trkpt lat="44.27554370616524" lon="11.312308318278967"><ele>694.0</ele><time>2026-05-01T08:58:17.899Z</time></trkpt><trkpt lat="44.275441817451146" lon="11.312408695442167"><ele>691.5</ele><time>2026-05-01T08:58:18.899Z</time></trkpt><trkpt lat="44.27536623669108" lon="11.31254402157371"><ele>689.0</ele><time>2026-05-01T08:58:19.899Z</time></trkpt><trkpt lat="44.27528984975496" lon="11.31269533873287"><ele>686.5</ele><time>2026-05-01T08:58:20.899Z</time></trkpt><trkpt lat="44.27521132783951" lon="11.312854359028409"><ele>684.0</ele><time>2026-05-01T08:58:21.899Z</time></trkpt><trkpt lat="44.27513025644227" lon="11.312989231297754"><ele>685.75</ele><time>2026-05-01T08:58:22.899Z</time></trkpt><trkpt lat="44.27503777450916" lon="11.313103076956736"><ele>687.5</ele><time>2026-05-01T08:58:23.899Z</time></trkpt><trkpt lat="44.27492087858288" lon="11.313124816748545"><ele>689.25</ele><time>2026-05-01T08:58:24.899Z</time></trkpt><trkpt lat="44.2747938864397" lon="11.313125656835338"><ele>691.0</ele><time>2026-05-01T08:58:25.899Z</time></trkpt><trkpt lat="44.274673207846284" lon="11.313124847120694"><ele>691.0</ele><time>2026-05-01T08:58:26.899Z</time></trkpt><trkpt lat="44.27457222286767" lon="11.313164459911356"><ele>691.0</ele><time>2026-05-01T08:58:27.899Z</time></trkpt><trkpt lat="44.27447474202042" lon="11.313261740962362"><ele>691.0</ele><time>2026-05-01T08:58:28.899Z</time></trkpt><trkpt lat="44.27441426135984" lon="11.313411751655782"><ele>691.0</ele><time>2026-05-01T08:58:29.899Z</time></trkpt><trkpt lat="44.2743747288278" lon="11.313547483776171"><ele>691.0</ele><time>2026-05-01T08:58:30.899Z</time></trkpt><trkpt lat="44.27430360944674" lon="11.313709619592986"><ele>691.0</ele><time>2026-05-01T08:58:31.899Z</time></trkpt><trkpt lat="44.2742048568141" lon="11.313818537787421"><ele>691.0</ele><time>2026-05-01T08:58:32.898Z</time></trkpt><trkpt lat="44.27408329383174" lon="11.313882405709617"><ele>691.0</ele><time>2026-05-01T08:58:33.898Z</time></trkpt><trkpt lat="44.273926330258476" lon="11.313921227631115"><ele>693.0</ele><time>2026-05-01T08:58:34.898Z</time></trkpt><trkpt lat="44.273776005175066" lon="11.313963571596238"><ele>695.0</ele><time>2026-05-01T08:58:35.898Z</time></trkpt><trkpt lat="44.27364461299246" lon="11.313984988473726"><ele>697.0</ele><time>2026-05-01T08:58:36.898Z</time></trkpt><trkpt lat="44.2735388629407" lon="11.314019417735338"><ele>699.0</ele><time>2026-05-01T08:58:37.898Z</time></trkpt><trkpt lat="44.273437939942745" lon="11.314099259726369"><ele>699.0</ele><time>2026-05-01T08:58:38.898Z</time></trkpt><trkpt lat="44.273356563288544" lon="11.314191083304241"><ele>699.0</ele><time>2026-05-01T08:58:39.896Z</time></trkpt><trkpt lat="44.27330506954705" lon="11.314341521170519"><ele>699.0</ele><time>2026-05-01T08:58:40.896Z</time></trkpt><trkpt lat="44.27329297691084" lon="11.314509057771291"><ele>699.0</ele><time>2026-05-01T08:58:41.896Z</time></trkpt><trkpt lat="44.27332006947427" lon="11.314695231125459"><ele>700.25</ele><time>2026-05-01T08:58:42.896Z</time></trkpt><trkpt lat="44.2734054750395" lon="11.31484672604148"><ele>701.5</ele><time>2026-05-01T08:58:43.896Z</time></trkpt><trkpt lat="44.273473386335624" lon="11.315035773592037"><ele>702.75</ele><time>2026-05-01T08:58:44.896Z</time></trkpt><trkpt lat="44.273555090977865" lon="11.315191212378751"><ele>704.0</ele><time>2026-05-01T08:58:45.896Z</time></trkpt><trkpt lat="44.27362606428814" lon="11.315325499153188"><ele>704.0</ele><time>2026-05-01T08:58:46.896Z</time></trkpt><trkpt lat="44.27366445751852" lon="11.315469217082459"><ele>704.0</ele><time>2026-05-01T08:58:47.896Z</time></trkpt><trkpt lat="44.27365245819498" lon="11.31562571745206"><ele>704.0</ele><time>2026-05-01T08:58:48.896Z</time></trkpt><trkpt lat="44.27361420732341" lon="11.31577769121962"><ele>704.0</ele><time>2026-05-01T08:58:49.896Z</time></trkpt><trkpt lat="44.27353918040863" lon="11.315911352562827"><ele>705.0</ele><time>2026-05-01T08:58:50.896Z</time></trkpt><trkpt lat="44.27343226715119" lon="11.316030291717471"><ele>706.0</ele><time>2026-05-01T08:58:51.896Z</time></trkpt><trkpt lat="44.27330022926515" lon="11.316136167272193"><ele>707.0</ele><time>2026-05-01T08:58:52.895Z</time></trkpt><trkpt lat="44.27318268081175" lon="11.31624674025628"><ele>708.0</ele><time>2026-05-01T08:58:53.895Z</time></trkpt><trkpt lat="44.273049966964216" lon="11.316275135080325"><ele>709.5</ele><time>2026-05-01T08:58:54.895Z</time></trkpt><trkpt lat="44.272917609963436" lon="11.316273321000343"><ele>711.0</ele><time>2026-05-01T08:58:55.895Z</time></trkpt><trkpt lat="44.272794319597786" lon="11.316206625097042"><ele>712.5</ele><time>2026-05-01T08:58:56.895Z</time></trkpt><trkpt lat="44.27270182014531" lon="11.316063540773053"><ele>714.0</ele><time>2026-05-01T08:58:57.895Z</time></trkpt><trkpt lat="44.27258368071881" lon="11.315911980826186"><ele>714.0</ele><time>2026-05-01T08:58:58.895Z</time></trkpt><trkpt lat="44.27245547958549" lon="11.31574692053868"><ele>714.0</ele><time>2026-05-01T08:58:59.895Z</time></trkpt><trkpt lat="44.272326289850625" lon="11.315598404059502"><ele>714.0</ele><time>2026-05-01T08:59:00.895Z</time></trkpt><trkpt lat="44.27220244590649" lon="11.315494306818868"><ele>711.4000000000001</ele><time>2026-05-01T08:59:01.895Z</time></trkpt><trkpt lat="44.27210303421315" lon="11.315428031253802"><ele>708.8</ele><time>2026-05-01T08:59:02.895Z</time></trkpt><trkpt lat="44.271975823256234" lon="11.315463422582408"><ele>706.2</ele><time>2026-05-01T08:59:03.895Z</time></trkpt><trkpt lat="44.271925088932264" lon="11.315516484966064"><ele>703.5999999999999</ele><time>2026-05-01T08:59:04.895Z</time></trkpt><trkpt lat="44.271897269375316" lon="11.31562967505773"><ele>701.0</ele><time>2026-05-01T08:59:05.895Z</time></trkpt><trkpt lat="44.27184525367366" lon="11.31575470956092"><ele>701.0</ele><time>2026-05-01T08:59:06.895Z</time></trkpt><trkpt lat="44.27180274975123" lon="11.315903241381429"><ele>701.0</ele><time>2026-05-01T08:59:07.895Z</time></trkpt><trkpt lat="44.27176557712706" lon="11.316082806264232"><ele>701.0</ele><time>2026-05-01T08:59:08.895Z</time></trkpt><trkpt lat="44.27174064268068" lon="11.316285719015648"><ele>701.0</ele><time>2026-05-01T08:59:09.895Z</time></trkpt><trkpt lat="44.27170488262757" lon="11.316502043162055"><ele>704.25</ele><time>2026-05-01T08:59:10.895Z</time></trkpt><trkpt lat="44.271664356189184" lon="11.316691659877973"><ele>707.5</ele><time>2026-05-01T08:59:11.895Z</time></trkpt><trkpt lat="44.271639993946145" lon="11.316841976008526"><ele>710.75</ele><time>2026-05-01T08:59:12.895Z</time></trkpt><trkpt lat="44.27165491687676" lon="11.316992819233848"><ele>714.0</ele><time>2026-05-01T08:59:13.895Z</time></trkpt><trkpt lat="44.27171573047521" lon="11.317140791444357"><ele>714.75</ele><time>2026-05-01T08:59:14.895Z</time></trkpt><trkpt lat="44.271795322873864" lon="11.317294546357862"><ele>715.5</ele><time>2026-05-01T08:59:15.895Z</time></trkpt><trkpt lat="44.271880337568554" lon="11.31745940617095"><ele>716.25</ele><time>2026-05-01T08:59:16.895Z</time></trkpt><trkpt lat="44.271944075206626" lon="11.31761159480647"><ele>717.0</ele><time>2026-05-01T08:59:17.895Z</time></trkpt><trkpt lat="44.271982256523565" lon="11.317775766468383"><ele>717.0</ele><time>2026-05-01T08:59:18.895Z</time></trkpt><trkpt lat="44.271987402959745" lon="11.317948298109211"><ele>717.0</ele><time>2026-05-01T08:59:19.895Z</time></trkpt><trkpt lat="44.27195836619488" lon="11.318147848669396"><ele>717.0</ele><time>2026-05-01T08:59:20.895Z</time></trkpt><trkpt lat="44.27191781339834" lon="11.318352340974203"><ele>717.0</ele><time>2026-05-01T08:59:21.895Z</time></trkpt><trkpt lat="44.27187574890894" lon="11.318563653318995"><ele>716.25</ele><time>2026-05-01T08:59:22.895Z</time></trkpt><trkpt lat="44.27183010377103" lon="11.318761760422683"><ele>715.5</ele><time>2026-05-01T08:59:23.895Z</time></trkpt><trkpt lat="44.27176307603709" lon="11.318931746212874"><ele>714.75</ele><time>2026-05-01T08:59:24.895Z</time></trkpt><trkpt lat="44.27168166463224" lon="11.319070944466652"><ele>714.0</ele><time>2026-05-01T08:59:25.895Z</time></trkpt><trkpt lat="44.27157735366383" lon="11.31918109396286"><ele>714.25</ele><time>2026-05-01T08:59:26.895Z</time></trkpt><trkpt lat="44.271455474224496" lon="11.319256435839938"><ele>714.5</ele><time>2026-05-01T08:59:27.895Z</time></trkpt><trkpt lat="44.271323904863934" lon="11.319293130679254"><ele>714.75</ele><time>2026-05-01T08:59:28.895Z</time></trkpt><trkpt lat="44.27121880147817" lon="11.31932238404239"><ele>715.0</ele><time>2026-05-01T08:59:29.895Z</time></trkpt><trkpt lat="44.27113318981795" lon="11.319366924663813"><ele>715.0</ele><time>2026-05-01T08:59:30.895Z</time></trkpt><trkpt lat="44.27105889056039" lon="11.319393326783814"><ele>715.0</ele><time>2026-05-01T08:59:31.894Z</time></trkpt><trkpt lat="44.27101549197887" lon="11.319467371938298"><ele>715.0</ele><time>2026-05-01T08:59:32.894Z</time></trkpt><trkpt lat="44.27097988120696" lon="11.319568371718429"><ele>715.0</ele><time>2026-05-01T08:59:33.894Z</time></trkpt><trkpt lat="44.27099162570379" lon="11.31976655579572"><ele>715.0</ele><time>2026-05-01T08:59:34.894Z</time></trkpt><trkpt lat="44.27106034736576" lon="11.319921303784373"><ele>715.0</ele><time>2026-05-01T08:59:35.894Z</time></trkpt><trkpt lat="44.2711607601725" lon="11.319997436047668"><ele>715.0</ele><time>2026-05-01T08:59:36.894Z</time></trkpt><trkpt lat="44.27118454191458" lon="11.320137523941423"><ele>715.0</ele><time>2026-05-01T08:59:37.894Z</time></trkpt><trkpt lat="44.27117775186726" lon="11.320275517737581"><ele>715.0</ele><time>2026-05-01T08:59:38.894Z</time></trkpt><trkpt lat="44.271132441468886" lon="11.320412096503963"><ele>715.0</ele><time>2026-05-01T08:59:39.894Z</time></trkpt><trkpt lat="44.27107442303036" lon="11.320527752524445"><ele>715.8333333333334</ele><time>2026-05-01T08:59:40.894Z</time></trkpt><trkpt lat="44.27098579928263" lon="11.320596769836689"><ele>716.6666666666667</ele><time>2026-05-01T08:59:41.894Z</time></trkpt><trkpt lat="44.27094936075469" lon="11.320692419949507"><ele>717.5</ele><time>2026-05-01T08:59:42.894Z</time></trkpt><trkpt lat="44.2709060431639" lon="11.320765600401602"><ele>718.3333333333334</ele><time>2026-05-01T08:59:43.894Z</time></trkpt><trkpt lat="44.27085068555405" lon="11.320833027777407"><ele>719.1666666666666</ele><time>2026-05-01T08:59:44.894Z</time></trkpt><trkpt lat="44.27080830946922" lon="11.32093762991209"><ele>720.0</ele><time>2026-05-01T08:59:45.894Z</time></trkpt><trkpt lat="44.2707669095968" lon="11.321052840456971"><ele>720.0</ele><time>2026-05-01T08:59:46.894Z</time></trkpt><trkpt lat="44.270717367573816" lon="11.321168656919333"><ele>720.0</ele><time>2026-05-01T08:59:47.894Z</time></trkpt><trkpt lat="44.27066812947805" lon="11.321281363768891"><ele>720.0</ele><time>2026-05-01T08:59:48.894Z</time></trkpt><trkpt lat="44.270602036649585" lon="11.32138228140581"><ele>720.0</ele><time>2026-05-01T08:59:49.894Z</time></trkpt><trkpt lat="44.27054545392324" lon="11.321481180682694"><ele>720.0</ele><time>2026-05-01T08:59:50.894Z</time></trkpt><trkpt lat="44.2704889082615" lon="11.32159720350356"><ele>718.5</ele><time>2026-05-01T08:59:51.894Z</time></trkpt><trkpt lat="44.27042749234612" lon="11.321678345133755"><ele>717.0</ele><time>2026-05-01T08:59:52.894Z</time></trkpt><trkpt lat="44.27036184258734" lon="11.321736046943688"><ele>715.5</ele><time>2026-05-01T08:59:53.894Z</time></trkpt><trkpt lat="44.27030769813867" lon="11.321799011859351"><ele>714.0</ele><time>2026-05-01T08:59:54.894Z</time></trkpt><trkpt lat="44.270222164836184" lon="11.32188907574371"><ele>712.5</ele><time>2026-05-01T08:59:56.894Z</time></trkpt><trkpt lat="44.270171943905154" lon="11.321948113150558"><ele>711.0</ele><time>2026-05-01T08:59:58.894Z</time></trkpt><trkpt lat="44.27007752175871" lon="11.322024718301073"><ele>711.0</ele><time>2026-05-01T09:00:37.893Z</time></trkpt><trkpt lat="44.27002214098604" lon="11.322080384562268"><ele>711.0</ele><time>2026-05-01T09:00:39.893Z</time></trkpt><trkpt lat="44.269914735075275" lon="11.32211653156039"><ele>711.0</ele><time>2026-05-01T09:00:41.893Z</time></trkpt><trkpt lat="44.269865675941006" lon="11.322172659670048"><ele>711.0</ele><time>2026-05-01T09:00:42.893Z</time></trkpt><trkpt lat="44.269804018914016" lon="11.322213975907143"><ele>711.0</ele><time>2026-05-01T09:00:43.893Z</time></trkpt><trkpt lat="44.26973650498611" lon="11.322241262318258"><ele>711.0</ele><time>2026-05-01T09:00:44.893Z</time></trkpt><trkpt lat="44.26967294915501" lon="11.322295107819311"><ele>712.3333333333334</ele><time>2026-05-01T09:00:45.892Z</time></trkpt><trkpt lat="44.269603286241235" lon="11.32235567421265"><ele>713.6666666666666</ele><time>2026-05-01T09:00:46.892Z</time></trkpt><trkpt lat="44.26953524077969" lon="11.322401236706328"><ele>715.0</ele><time>2026-05-01T09:00:47.892Z</time></trkpt><trkpt lat="44.26946631137738" lon="11.32244649208915"><ele>716.3333333333333</ele><time>2026-05-01T09:00:48.892Z</time></trkpt><trkpt lat="44.26940868422955" lon="11.32250215127453"><ele>717.6666666666666</ele><time>2026-05-01T09:00:49.892Z</time></trkpt><trkpt lat="44.26933766199101" lon="11.322526832492732"><ele>719.0</ele><time>2026-05-01T09:00:50.892Z</time></trkpt><trkpt lat="44.269199447220295" lon="11.322570189567289"><ele>719.0</ele><time>2026-05-01T09:00:52.892Z</time></trkpt><trkpt lat="44.26912639703216" lon="11.322605170033595"><ele>719.0</ele><time>2026-05-01T09:00:53.892Z</time></trkpt><trkpt lat="44.26904773576283" lon="11.322652037902724"><ele>719.0</ele><time>2026-05-01T09:00:54.892Z</time></trkpt><trkpt lat="44.2689608911321" lon="11.322724182546857"><ele>719.0</ele><time>2026-05-01T09:00:55.892Z</time></trkpt><trkpt lat="44.268864868633415" lon="11.322830100291755"><ele>719.0</ele><time>2026-05-01T09:00:56.892Z</time></trkpt><trkpt lat="44.268780183354934" lon="11.322923675992513"><ele>718.3333333333333</ele><time>2026-05-01T09:00:57.892Z</time></trkpt><trkpt lat="44.26869779750845" lon="11.323014472866902"><ele>717.6666666666666</ele><time>2026-05-01T09:00:58.892Z</time></trkpt><trkpt lat="44.26861648805937" lon="11.323131552662783"><ele>717.0</ele><time>2026-05-01T09:00:59.892Z</time></trkpt><trkpt lat="44.26854476525549" lon="11.323204365105282"><ele>716.3333333333334</ele><time>2026-05-01T09:01:00.892Z</time></trkpt><trkpt lat="44.268486510404784" lon="11.323241709068158"><ele>715.6666666666667</ele><time>2026-05-01T09:01:01.892Z</time></trkpt><trkpt lat="44.268432599717066" lon="11.323309757313233"><ele>715.0</ele><time>2026-05-01T09:01:02.891Z</time></trkpt><trkpt lat="44.26837255361762" lon="11.323344518334784"><ele>714.0</ele><time>2026-05-01T09:01:03.891Z</time></trkpt><trkpt lat="44.268300377159484" lon="11.323431444296947"><ele>713.0</ele><time>2026-05-01T09:01:04.891Z</time></trkpt><trkpt lat="44.26823415369371" lon="11.32352929707822"><ele>712.0</ele><time>2026-05-01T09:01:05.891Z</time></trkpt><trkpt lat="44.268174175690305" lon="11.323627854195294"><ele>711.0</ele><time>2026-05-01T09:01:06.891Z</time></trkpt><trkpt lat="44.268118315350875" lon="11.323730082910048"><ele>710.0</ele><time>2026-05-01T09:01:07.891Z</time></trkpt><trkpt lat="44.268049461568616" lon="11.323837216901024"><ele>712.25</ele><time>2026-05-01T09:01:08.891Z</time></trkpt><trkpt lat="44.267898814210426" lon="11.324014919658113"><ele>714.5</ele><time>2026-05-01T09:01:10.891Z</time></trkpt><trkpt lat="44.267814744443896" lon="11.324107077045634"><ele>716.75</ele><time>2026-05-01T09:01:11.891Z</time></trkpt><trkpt lat="44.267728298017296" lon="11.324201839948739"><ele>719.0</ele><time>2026-05-01T09:01:12.891Z</time></trkpt><trkpt lat="44.26763613528249" lon="11.32430286866929"><ele>719.0</ele><time>2026-05-01T09:01:13.891Z</time></trkpt><trkpt lat="44.267549663308436" lon="11.324397276286653"><ele>719.0</ele><time>2026-05-01T09:01:14.891Z</time></trkpt><trkpt lat="44.26747064958846" lon="11.32450672768122"><ele>719.0</ele><time>2026-05-01T09:01:15.891Z</time></trkpt><trkpt lat="44.26737785883448" lon="11.324582259332926"><ele>719.0</ele><time>2026-05-01T09:01:16.891Z</time></trkpt><trkpt lat="44.26730135238064" lon="11.324661892343277"><ele>719.0</ele><time>2026-05-01T09:01:17.891Z</time></trkpt><trkpt lat="44.26721607263505" lon="11.324699953860264"><ele>719.8000000000001</ele><time>2026-05-01T09:01:18.891Z</time></trkpt><trkpt lat="44.26713363031115" lon="11.324767987066473"><ele>720.6</ele><time>2026-05-01T09:01:19.891Z</time></trkpt><trkpt lat="44.26703028340134" lon="11.324787902787763"><ele>721.4</ele><time>2026-05-01T09:01:20.891Z</time></trkpt><trkpt lat="44.26692269132092" lon="11.324804401079424"><ele>722.2</ele><time>2026-05-01T09:01:21.891Z</time></trkpt><trkpt lat="44.26681081503784" lon="11.324821680788936"><ele>723.0</ele><time>2026-05-01T09:01:22.891Z</time></trkpt><trkpt lat="44.26669178518748" lon="11.324826363483691"><ele>723.0</ele><time>2026-05-01T09:01:23.891Z</time></trkpt><trkpt lat="44.266569501669125" lon="11.324837574780547"><ele>723.0</ele><time>2026-05-01T09:01:24.891Z</time></trkpt><trkpt lat="44.26646032689" lon="11.324816029071073"><ele>723.0</ele><time>2026-05-01T09:01:25.891Z</time></trkpt><trkpt lat="44.26635075772398" lon="11.324787447917409"><ele>723.0</ele><time>2026-05-01T09:01:26.891Z</time></trkpt><trkpt lat="44.266231081545975" lon="11.324770989457944"><ele>722.25</ele><time>2026-05-01T09:01:27.891Z</time></trkpt><trkpt lat="44.26610923610871" lon="11.324785863059349"><ele>721.5</ele><time>2026-05-01T09:01:28.891Z</time></trkpt><trkpt lat="44.2659923623419" lon="11.324792248482312"><ele>720.75</ele><time>2026-05-01T09:01:29.891Z</time></trkpt><trkpt lat="44.265879148894484" lon="11.324820492032009"><ele>720.0</ele><time>2026-05-01T09:01:30.891Z</time></trkpt><trkpt lat="44.26575907004489" lon="11.324854609901267"><ele>720.0</ele><time>2026-05-01T09:01:31.891Z</time></trkpt><trkpt lat="44.26564879419664" lon="11.32488483905611"><ele>720.0</ele><time>2026-05-01T09:01:32.891Z</time></trkpt><trkpt lat="44.26553293246311" lon="11.324926128482819"><ele>720.0</ele><time>2026-05-01T09:01:33.891Z</time></trkpt><trkpt lat="44.26541603069523" lon="11.32495779456794"><ele>720.0</ele><time>2026-05-01T09:01:34.891Z</time></trkpt><trkpt lat="44.26529199962004" lon="11.324995111024217"><ele>719.8</ele><time>2026-05-01T09:01:35.891Z</time></trkpt><trkpt lat="44.26518169275573" lon="11.325011728361636"><ele>719.6</ele><time>2026-05-01T09:01:36.891Z</time></trkpt><trkpt lat="44.265082107961256" lon="11.325026748207137"><ele>719.4000000000001</ele><time>2026-05-01T09:01:37.891Z</time></trkpt><trkpt lat="44.26497786126589" lon="11.325052360186131"><ele>719.2</ele><time>2026-05-01T09:01:38.891Z</time></trkpt><trkpt lat="44.26488090882346" lon="11.325067416268366"><ele>719.0</ele><time>2026-05-01T09:01:39.891Z</time></trkpt><trkpt lat="44.264777907269114" lon="11.32509125901122"><ele>719.75</ele><time>2026-05-01T09:01:40.891Z</time></trkpt><trkpt lat="44.26466779541003" lon="11.32511665653588"><ele>720.5</ele><time>2026-05-01T09:01:41.891Z</time></trkpt><trkpt lat="44.26454783956745" lon="11.32515358809318"><ele>721.25</ele><time>2026-05-01T09:01:42.891Z</time></trkpt><trkpt lat="44.264423202055916" lon="11.325187032425923"><ele>722.0</ele><time>2026-05-01T09:01:43.891Z</time></trkpt><trkpt lat="44.264305108144505" lon="11.325242949283519"><ele>722.0</ele><time>2026-05-01T09:01:44.891Z</time></trkpt><trkpt lat="44.26418788619107" lon="11.325316959668562"><ele>722.0</ele><time>2026-05-01T09:01:45.891Z</time></trkpt><trkpt lat="44.26406179352289" lon="11.325380294319851"><ele>722.0</ele><time>2026-05-01T09:01:46.891Z</time></trkpt><trkpt lat="44.26394393164525" lon="11.32547619446664"><ele>722.0</ele><time>2026-05-01T09:01:47.891Z</time></trkpt><trkpt lat="44.26382554546987" lon="11.325567273503891"><ele>724.0</ele><time>2026-05-01T09:01:48.891Z</time></trkpt><trkpt lat="44.263698518865525" lon="11.32564308764922"><ele>726.0</ele><time>2026-05-01T09:01:49.891Z</time></trkpt><trkpt lat="44.263578068519244" lon="11.325713338843908"><ele>728.0</ele><time>2026-05-01T09:01:50.891Z</time></trkpt><trkpt lat="44.26344419284008" lon="11.325770942144048"><ele>730.0</ele><time>2026-05-01T09:01:51.89Z</time></trkpt><trkpt lat="44.26329684358124" lon="11.325801434646781"><ele>730.0</ele><time>2026-05-01T09:01:52.89Z</time></trkpt><trkpt lat="44.26314308670618" lon="11.32580569116856"><ele>730.0</ele><time>2026-05-01T09:01:53.89Z</time></trkpt><trkpt lat="44.262981660689995" lon="11.325809395797766"><ele>730.0</ele><time>2026-05-01T09:01:54.89Z</time></trkpt><trkpt lat="44.26282579505508" lon="11.325794144867386"><ele>730.75</ele><time>2026-05-01T09:01:55.89Z</time></trkpt><trkpt lat="44.26267023629653" lon="11.325767827954044"><ele>731.5</ele><time>2026-05-01T09:01:56.89Z</time></trkpt><trkpt lat="44.262529576698924" lon="11.325729153505417"><ele>732.25</ele><time>2026-05-01T09:01:57.89Z</time></trkpt><trkpt lat="44.262403248287676" lon="11.325690730772141"><ele>733.0</ele><time>2026-05-01T09:01:58.89Z</time></trkpt><trkpt lat="44.262269486170624" lon="11.325647082820533"><ele>734.0</ele><time>2026-05-01T09:01:59.89Z</time></trkpt><trkpt lat="44.26213067843976" lon="11.325589969946128"><ele>735.0</ele><time>2026-05-01T09:02:00.89Z</time></trkpt><trkpt lat="44.262003851438806" lon="11.325533829717696"><ele>736.0</ele><time>2026-05-01T09:02:01.89Z</time></trkpt><trkpt lat="44.26187544199403" lon="11.325487678803517"><ele>737.0</ele><time>2026-05-01T09:02:02.89Z</time></trkpt><trkpt lat="44.26173777299686" lon="11.325481961013871"><ele>737.0</ele><time>2026-05-01T09:02:03.89Z</time></trkpt><trkpt lat="44.261618460836175" lon="11.325500984579337"><ele>737.0</ele><time>2026-05-01T09:02:04.89Z</time></trkpt><trkpt lat="44.26151614353113" lon="11.325565170275066"><ele>737.0</ele><time>2026-05-01T09:02:05.89Z</time></trkpt><trkpt lat="44.26142885223482" lon="11.32567796101195"><ele>737.0</ele><time>2026-05-01T09:02:06.89Z</time></trkpt><trkpt lat="44.26135546074167" lon="11.325826515408544"><ele>736.6666666666666</ele><time>2026-05-01T09:02:07.89Z</time></trkpt><trkpt lat="44.26128817908106" lon="11.326007809060945"><ele>736.3333333333334</ele><time>2026-05-01T09:02:08.89Z</time></trkpt><trkpt lat="44.26120721670353" lon="11.326211778176617"><ele>736.0</ele><time>2026-05-01T09:02:09.89Z</time></trkpt><trkpt lat="44.26113430583394" lon="11.326402545508895"><ele>737.25</ele><time>2026-05-01T09:02:10.89Z</time></trkpt><trkpt lat="44.26107149168443" lon="11.326580781261534"><ele>738.5</ele><time>2026-05-01T09:02:11.89Z</time></trkpt><trkpt lat="44.26101527554812" lon="11.326741241943877"><ele>739.75</ele><time>2026-05-01T09:02:12.89Z</time></trkpt><trkpt lat="44.26096143180883" lon="11.32690375199704"><ele>741.0</ele><time>2026-05-01T09:02:13.89Z</time></trkpt><trkpt lat="44.26092103037606" lon="11.327051352102886"><ele>741.0</ele><time>2026-05-01T09:02:14.89Z</time></trkpt><trkpt lat="44.26088978204014" lon="11.327188532483362"><ele>741.0</ele><time>2026-05-01T09:02:15.89Z</time></trkpt><trkpt lat="44.260859486514924" lon="11.327318565974572"><ele>741.0</ele><time>2026-05-01T09:02:16.89Z</time></trkpt><trkpt lat="44.26083644913522" lon="11.327456045810788"><ele>741.0</ele><time>2026-05-01T09:02:17.89Z</time></trkpt><trkpt lat="44.26080687754314" lon="11.327607355687384"><ele>741.0</ele><time>2026-05-01T09:02:18.89Z</time></trkpt><trkpt lat="44.260773771096154" lon="11.327770686390895"><ele>741.25</ele><time>2026-05-01T09:02:19.89Z</time></trkpt><trkpt lat="44.26073661905512" lon="11.32794419427803"><ele>741.5</ele><time>2026-05-01T09:02:20.89Z</time></trkpt><trkpt lat="44.260697362397835" lon="11.328133058746058"><ele>741.75</ele><time>2026-05-01T09:02:21.89Z</time></trkpt><trkpt lat="44.260667451965524" lon="11.32834093126643"><ele>742.0</ele><time>2026-05-01T09:02:22.89Z</time></trkpt><trkpt lat="44.26061995100443" lon="11.328545063884164"><ele>741.6666666666667</ele><time>2026-05-01T09:02:23.89Z</time></trkpt><trkpt lat="44.260582400345015" lon="11.32874407400845"><ele>741.3333333333334</ele><time>2026-05-01T09:02:24.89Z</time></trkpt><trkpt lat="44.260494702132156" lon="11.328937478319746"><ele>741.0</ele><time>2026-05-01T09:02:25.89Z</time></trkpt><trkpt lat="44.26037311751145" lon="11.329119575608253"><ele>741.0</ele><time>2026-05-01T09:02:26.89Z</time></trkpt><trkpt lat="44.26021863411324" lon="11.329258608333912"><ele>741.0</ele><time>2026-05-01T09:02:27.89Z</time></trkpt><trkpt lat="44.26007696944559" lon="11.329436740371492"><ele>741.0</ele><time>2026-05-01T09:02:28.89Z</time></trkpt><trkpt lat="44.25993656774059" lon="11.329619433458737"><ele>742.3333333333334</ele><time>2026-05-01T09:02:29.89Z</time></trkpt><trkpt lat="44.25981960461992" lon="11.329822772253092"><ele>743.6666666666667</ele><time>2026-05-01T09:02:30.89Z</time></trkpt><trkpt lat="44.25971865154234" lon="11.330018942767175"><ele>745.0</ele><time>2026-05-01T09:02:31.89Z</time></trkpt><trkpt lat="44.259617980443686" lon="11.330205813755219"><ele>745.0</ele><time>2026-05-01T09:02:32.89Z</time></trkpt><trkpt lat="44.25951432501483" lon="11.330373858145354"><ele>745.0</ele><time>2026-05-01T09:02:33.89Z</time></trkpt><trkpt lat="44.2593880469396" lon="11.330495739117694"><ele>745.0</ele><time>2026-05-01T09:02:34.89Z</time></trkpt><trkpt lat="44.259264602101844" lon="11.330577656944225"><ele>745.0</ele><time>2026-05-01T09:02:35.89Z</time></trkpt><trkpt lat="44.25913843971733" lon="11.330650515639327"><ele>747.75</ele><time>2026-05-01T09:02:36.89Z</time></trkpt><trkpt lat="44.259010671537055" lon="11.33072183050669"><ele>750.5</ele><time>2026-05-01T09:02:37.89Z</time></trkpt><trkpt lat="44.258888506445615" lon="11.330785530456948"><ele>753.25</ele><time>2026-05-01T09:02:38.89Z</time></trkpt><trkpt lat="44.25875445882864" lon="11.330862570211554"><ele>756.0</ele><time>2026-05-01T09:02:39.889Z</time></trkpt><trkpt lat="44.258612303910375" lon="11.330952504371904"><ele>756.0</ele><time>2026-05-01T09:02:40.889Z</time></trkpt><trkpt lat="44.25846102285269" lon="11.331053097868017"><ele>756.0</ele><time>2026-05-01T09:02:41.889Z</time></trkpt><trkpt lat="44.258294087199495" lon="11.331138828880132"><ele>756.0</ele><time>2026-05-01T09:02:42.889Z</time></trkpt><trkpt lat="44.258105896580794" lon="11.331216482199"><ele>756.0</ele><time>2026-05-01T09:02:43.889Z</time></trkpt><trkpt lat="44.25790382788777" lon="11.331269979076335"><ele>756.0</ele><time>2026-05-01T09:02:44.889Z</time></trkpt><trkpt lat="44.25769149250852" lon="11.33130494423995"><ele>756.0</ele><time>2026-05-01T09:02:45.889Z</time></trkpt><trkpt lat="44.2574919081308" lon="11.331288234230783"><ele>756.0</ele><time>2026-05-01T09:02:46.889Z</time></trkpt><trkpt lat="44.25728952597231" lon="11.331255147780128"><ele>756.0</ele><time>2026-05-01T09:02:47.889Z</time></trkpt><trkpt lat="44.25707633511835" lon="11.331254852422497"><ele>756.0</ele><time>2026-05-01T09:02:48.889Z</time></trkpt><trkpt lat="44.256855958802106" lon="11.331287145603438"><ele>757.0</ele><time>2026-05-01T09:02:49.889Z</time></trkpt><trkpt lat="44.25664582806678" lon="11.331337315059992"><ele>758.0</ele><time>2026-05-01T09:02:50.889Z</time></trkpt><trkpt lat="44.25644745275983" lon="11.331400859279464"><ele>759.0</ele><time>2026-05-01T09:02:51.886Z</time></trkpt><trkpt lat="44.256252359582845" lon="11.331478301592282"><ele>765.3333333333333</ele><time>2026-05-01T09:02:52.886Z</time></trkpt><trkpt lat="44.25606990386307" lon="11.331556463296517"><ele>771.6666666666666</ele><time>2026-05-01T09:02:53.886Z</time></trkpt><trkpt lat="44.255901841485105" lon="11.331600179460247"><ele>778.0</ele><time>2026-05-01T09:02:54.887Z</time></trkpt><trkpt lat="44.25576076975196" lon="11.331671141306645"><ele>778.0</ele><time>2026-05-01T09:02:55.887Z</time></trkpt><trkpt lat="44.255643812457656" lon="11.331744196091263"><ele>778.0</ele><time>2026-05-01T09:02:56.887Z</time></trkpt><trkpt lat="44.25553313737299" lon="11.331835178050339"><ele>778.0</ele><time>2026-05-01T09:02:57.886Z</time></trkpt><trkpt lat="44.255433019253495" lon="11.331962007029388"><ele>778.0</ele><time>2026-05-01T09:02:58.886Z</time></trkpt><trkpt lat="44.2553571969867" lon="11.332092297884321"><ele>776.0</ele><time>2026-05-01T09:02:59.886Z</time></trkpt><trkpt lat="44.255289883136385" lon="11.332254923861916"><ele>774.0</ele><time>2026-05-01T09:03:00.886Z</time></trkpt><trkpt lat="44.25525735995749" lon="11.33243385040922"><ele>772.0</ele><time>2026-05-01T09:03:01.886Z</time></trkpt><trkpt lat="44.25524934825379" lon="11.332644539979645"><ele>770.0</ele><time>2026-05-01T09:03:02.886Z</time></trkpt><trkpt lat="44.25522224565156" lon="11.332844049109882"><ele>770.0</ele><time>2026-05-01T09:03:03.886Z</time></trkpt><trkpt lat="44.255163705366506" lon="11.333019063673394"><ele>770.0</ele><time>2026-05-01T09:03:04.886Z</time></trkpt><trkpt lat="44.255074699505215" lon="11.333143840840519"><ele>770.0</ele><time>2026-05-01T09:03:05.886Z</time></trkpt><trkpt lat="44.25496424430116" lon="11.333227474531766"><ele>770.0</ele><time>2026-05-01T09:03:06.886Z</time></trkpt><trkpt lat="44.25483866339425" lon="11.33327405862801"><ele>769.75</ele><time>2026-05-01T09:03:07.886Z</time></trkpt><trkpt lat="44.25471057759705" lon="11.33329174232386"><ele>769.5</ele><time>2026-05-01T09:03:08.886Z</time></trkpt><trkpt lat="44.25457539683318" lon="11.333313079858222"><ele>769.25</ele><time>2026-05-01T09:03:09.886Z</time></trkpt><trkpt lat="44.25444475964789" lon="11.333316272820108"><ele>769.0</ele><time>2026-05-01T09:03:10.886Z</time></trkpt><trkpt lat="44.254305153344966" lon="11.33330647803068"><ele>769.0</ele><time>2026-05-01T09:03:11.886Z</time></trkpt><trkpt lat="44.254164545805516" lon="11.333269539727096"><ele>769.0</ele><time>2026-05-01T09:03:12.886Z</time></trkpt><trkpt lat="44.2540320627271" lon="11.333214772606956"><ele>769.0</ele><time>2026-05-01T09:03:13.886Z</time></trkpt><trkpt lat="44.25389878837174" lon="11.33315406524643"><ele>769.0</ele><time>2026-05-01T09:03:14.886Z</time></trkpt><trkpt lat="44.253769382651065" lon="11.333087648511496"><ele>768.25</ele><time>2026-05-01T09:03:15.886Z</time></trkpt><trkpt lat="44.25364800782251" lon="11.33302064626265"><ele>767.5</ele><time>2026-05-01T09:03:16.886Z</time></trkpt><trkpt lat="44.2535220748694" lon="11.332959364198608"><ele>766.75</ele><time>2026-05-01T09:03:17.886Z</time></trkpt><trkpt lat="44.253400059648065" lon="11.332902939155849"><ele>766.0</ele><time>2026-05-01T09:03:18.886Z</time></trkpt><trkpt lat="44.253288974453454" lon="11.332854479783931"><ele>766.0</ele><time>2026-05-01T09:03:19.886Z</time></trkpt><trkpt lat="44.25319498612031" lon="11.332813170735935"><ele>766.0</ele><time>2026-05-01T09:03:20.886Z</time></trkpt><trkpt lat="44.253121952123145" lon="11.332786244217768"><ele>766.0</ele><time>2026-05-01T09:03:21.886Z</time></trkpt><trkpt lat="44.25302196739578" lon="11.33274221916107"><ele>766.0</ele><time>2026-05-01T09:03:23.886Z</time></trkpt><trkpt lat="44.25294846904996" lon="11.332729398451265"><ele>766.0</ele><time>2026-05-01T09:03:57.885Z</time></trkpt><trkpt lat="44.252881736878" lon="11.332736492199505"><ele>766.0</ele><time>2026-05-01T09:04:29.884Z</time></trkpt><trkpt lat="44.25276908050734" lon="11.332717936094996"><ele>768.5999999999999</ele><time>2026-05-01T09:04:31.884Z</time></trkpt><trkpt lat="44.25269276309791" lon="11.332698136043833"><ele>771.2</ele><time>2026-05-01T09:04:32.884Z</time></trkpt><trkpt lat="44.2525999164142" lon="11.332666523237798"><ele>773.8</ele><time>2026-05-01T09:04:33.884Z</time></trkpt><trkpt lat="44.25249520480152" lon="11.33263318305572"><ele>776.4000000000001</ele><time>2026-05-01T09:04:34.884Z</time></trkpt><trkpt lat="44.25237663845495" lon="11.332591503513054"><ele>779.0</ele><time>2026-05-01T09:04:35.884Z</time></trkpt><trkpt lat="44.2522402229247" lon="11.332546872754946"><ele>779.75</ele><time>2026-05-01T09:04:36.884Z</time></trkpt><trkpt lat="44.25210379735099" lon="11.33249346141461"><ele>780.5</ele><time>2026-05-01T09:04:37.884Z</time></trkpt><trkpt lat="44.25197214466787" lon="11.332443717672062"><ele>781.25</ele><time>2026-05-01T09:04:38.884Z</time></trkpt><trkpt lat="44.251850882855535" lon="11.33239484381097"><ele>782.0</ele><time>2026-05-01T09:04:39.884Z</time></trkpt><trkpt lat="44.25172986291346" lon="11.332364230639122"><ele>782.0</ele><time>2026-05-01T09:04:40.884Z</time></trkpt><trkpt lat="44.25161834293735" lon="11.332363438236237"><ele>782.0</ele><time>2026-05-01T09:04:41.884Z</time></trkpt><trkpt lat="44.251500113138235" lon="11.332377986997928"><ele>782.0</ele><time>2026-05-01T09:04:42.884Z</time></trkpt><trkpt lat="44.25137388108747" lon="11.332463871949331"><ele>782.0</ele><time>2026-05-01T09:04:43.884Z</time></trkpt><trkpt lat="44.251293441102256" lon="11.332622943919663"><ele>782.5</ele><time>2026-05-01T09:04:44.884Z</time></trkpt><trkpt lat="44.25119997048893" lon="11.332777886666422"><ele>783.0</ele><time>2026-05-01T09:04:45.884Z</time></trkpt><trkpt lat="44.25110450953567" lon="11.332915900205286"><ele>783.5</ele><time>2026-05-01T09:04:46.884Z</time></trkpt><trkpt lat="44.25096870669797" lon="11.333025251533478"><ele>784.0</ele><time>2026-05-01T09:04:47.884Z</time></trkpt><trkpt lat="44.25082268244408" lon="11.333100546384928"><ele>784.0</ele><time>2026-05-01T09:04:48.884Z</time></trkpt><trkpt lat="44.25067793744299" lon="11.333190577266926"><ele>784.0</ele><time>2026-05-01T09:04:49.884Z</time></trkpt><trkpt lat="44.25053676592652" lon="11.33331160330843"><ele>784.0</ele><time>2026-05-01T09:04:50.884Z</time></trkpt><trkpt lat="44.25040811677228" lon="11.333440275329036"><ele>782.75</ele><time>2026-05-01T09:04:51.884Z</time></trkpt><trkpt lat="44.250295693015815" lon="11.333556565500437"><ele>781.5</ele><time>2026-05-01T09:04:52.884Z</time></trkpt><trkpt lat="44.250184334791086" lon="11.33362742703191"><ele>780.25</ele><time>2026-05-01T09:04:53.884Z</time></trkpt><trkpt lat="44.25010384191978" lon="11.333711459410598"><ele>779.0</ele><time>2026-05-01T09:04:54.884Z</time></trkpt><trkpt lat="44.2500338054466" lon="11.333803310792236"><ele>779.0</ele><time>2026-05-01T09:04:55.884Z</time></trkpt><trkpt lat="44.24995836987538" lon="11.333885632214516"><ele>779.0</ele><time>2026-05-01T09:04:56.884Z</time></trkpt><trkpt lat="44.24988089089266" lon="11.333964928337378"><ele>779.0</ele><time>2026-05-01T09:04:57.882Z</time></trkpt><trkpt lat="44.24986340316522" lon="11.334175884232515"><ele>779.0</ele><time>2026-05-01T09:04:58.882Z</time></trkpt><trkpt lat="44.24977666894494" lon="11.33424616295367"><ele>779.0</ele><time>2026-05-01T09:04:59.882Z</time></trkpt><trkpt lat="44.249665421401396" lon="11.33428692099854"><ele>779.75</ele><time>2026-05-01T09:05:00.882Z</time></trkpt><trkpt lat="44.249548482832076" lon="11.334276025854745"><ele>780.5</ele><time>2026-05-01T09:05:01.882Z</time></trkpt><trkpt lat="44.24942750174052" lon="11.334218938996553"><ele>781.25</ele><time>2026-05-01T09:05:02.882Z</time></trkpt><trkpt lat="44.24931160295535" lon="11.334154006745255"><ele>782.0</ele><time>2026-05-01T09:05:03.881Z</time></trkpt><trkpt lat="44.24919932748234" lon="11.33405930610998"><ele>782.0</ele><time>2026-05-01T09:05:04.882Z</time></trkpt><trkpt lat="44.24908956766421" lon="11.333938696258617"><ele>782.0</ele><time>2026-05-01T09:05:05.882Z</time></trkpt><trkpt lat="44.248981501756184" lon="11.333819196107564"><ele>782.0</ele><time>2026-05-01T09:05:06.882Z</time></trkpt><trkpt lat="44.24887148334371" lon="11.333701394243883"><ele>782.0</ele><time>2026-05-01T09:05:07.882Z</time></trkpt><trkpt lat="44.2487609948707" lon="11.333591071601631"><ele>785.8</ele><time>2026-05-01T09:05:08.882Z</time></trkpt><trkpt lat="44.248667591296055" lon="11.333497555114329"><ele>789.6</ele><time>2026-05-01T09:05:09.882Z</time></trkpt><trkpt lat="44.24858268230135" lon="11.333420348045758"><ele>793.4</ele><time>2026-05-01T09:05:10.881Z</time></trkpt><trkpt lat="44.248517905963084" lon="11.333344300163438"><ele>797.1999999999999</ele><time>2026-05-01T09:05:11.881Z</time></trkpt><trkpt lat="44.24844053659028" lon="11.333292856279419"><ele>801.0</ele><time>2026-05-01T09:05:12.881Z</time></trkpt><trkpt lat="44.24834131010944" lon="11.333308481848645"><ele>801.0</ele><time>2026-05-01T09:05:13.881Z</time></trkpt><trkpt lat="44.24823739531666" lon="11.333351556956908"><ele>801.0</ele><time>2026-05-01T09:05:14.881Z</time></trkpt><trkpt lat="44.24811713383307" lon="11.333404513966594"><ele>801.0</ele><time>2026-05-01T09:05:15.881Z</time></trkpt><trkpt lat="44.24797951974617" lon="11.333430267726046"><ele>801.0</ele><time>2026-05-01T09:05:16.881Z</time></trkpt><trkpt lat="44.247833857289514" lon="11.333417709850375"><ele>802.5</ele><time>2026-05-01T09:05:17.881Z</time></trkpt><trkpt lat="44.247706905554985" lon="11.33338996051427"><ele>804.0</ele><time>2026-05-01T09:05:18.881Z</time></trkpt><trkpt lat="44.24759516599205" lon="11.333394354203813"><ele>805.5</ele><time>2026-05-01T09:05:19.881Z</time></trkpt><trkpt lat="44.247488943717" lon="11.333423164528512"><ele>807.0</ele><time>2026-05-01T09:05:20.881Z</time></trkpt><trkpt lat="44.24738712875479" lon="11.333513792387308"><ele>807.75</ele><time>2026-05-01T09:05:21.881Z</time></trkpt><trkpt lat="44.24727730128489" lon="11.333629881500524"><ele>808.5</ele><time>2026-05-01T09:05:22.881Z</time></trkpt><trkpt lat="44.247165498565366" lon="11.333748027569415"><ele>809.25</ele><time>2026-05-01T09:05:23.881Z</time></trkpt><trkpt lat="44.24705774774312" lon="11.333875428197457"><ele>810.0</ele><time>2026-05-01T09:05:24.881Z</time></trkpt><trkpt lat="44.2469729587659" lon="11.334016520123816"><ele>810.0</ele><time>2026-05-01T09:05:25.881Z</time></trkpt><trkpt lat="44.24688115798334" lon="11.33416792228219"><ele>810.0</ele><time>2026-05-01T09:05:26.881Z</time></trkpt><trkpt lat="44.246766157865665" lon="11.334301942569498"><ele>810.0</ele><time>2026-05-01T09:05:27.881Z</time></trkpt><trkpt lat="44.24662808290351" lon="11.334407637097609"><ele>810.0</ele><time>2026-05-01T09:05:28.881Z</time></trkpt><trkpt lat="44.246478819534154" lon="11.334499522009882"><ele>809.5</ele><time>2026-05-01T09:05:29.881Z</time></trkpt><trkpt lat="44.24635415010858" lon="11.334543471275907"><ele>809.0</ele><time>2026-05-01T09:05:30.881Z</time></trkpt><trkpt lat="44.246231421489625" lon="11.334590737690574"><ele>808.5</ele><time>2026-05-01T09:05:31.881Z</time></trkpt><trkpt lat="44.2461169453019" lon="11.334651317581367"><ele>808.0</ele><time>2026-05-01T09:05:32.881Z</time></trkpt><trkpt lat="44.24600229177048" lon="11.334737678866356"><ele>809.5</ele><time>2026-05-01T09:05:33.881Z</time></trkpt><trkpt lat="44.24587833903152" lon="11.334821877137257"><ele>811.0</ele><time>2026-05-01T09:05:34.881Z</time></trkpt><trkpt lat="44.24575339306931" lon="11.334900324011516"><ele>812.5</ele><time>2026-05-01T09:05:35.881Z</time></trkpt><trkpt lat="44.24563967268458" lon="11.335000893231793"><ele>814.0</ele><time>2026-05-01T09:05:36.881Z</time></trkpt><trkpt lat="44.24553909621639" lon="11.335143725016637"><ele>814.0</ele><time>2026-05-01T09:05:37.881Z</time></trkpt><trkpt lat="44.24542925723364" lon="11.335313954402345"><ele>814.0</ele><time>2026-05-01T09:05:38.881Z</time></trkpt><trkpt lat="44.24532731890245" lon="11.335463987093851"><ele>814.0</ele><time>2026-05-01T09:05:39.881Z</time></trkpt><trkpt lat="44.245220618547435" lon="11.335558198911544"><ele>814.0</ele><time>2026-05-01T09:05:40.881Z</time></trkpt><trkpt lat="44.24510054728349" lon="11.335604957126817"><ele>814.0</ele><time>2026-05-01T09:05:41.881Z</time></trkpt><trkpt lat="44.24497306084428" lon="11.335592882509077"><ele>814.0</ele><time>2026-05-01T09:05:42.881Z</time></trkpt><trkpt lat="44.244839176537035" lon="11.335553634875783"><ele>814.0</ele><time>2026-05-01T09:05:43.881Z</time></trkpt><trkpt lat="44.24470219771061" lon="11.33549913431469"><ele>814.0</ele><time>2026-05-01T09:05:44.881Z</time></trkpt><trkpt lat="44.244551092207786" lon="11.335443157213273"><ele>816.6666666666666</ele><time>2026-05-01T09:05:45.881Z</time></trkpt><trkpt lat="44.24438471046951" lon="11.335389477556589"><ele>819.3333333333333</ele><time>2026-05-01T09:05:46.881Z</time></trkpt><trkpt lat="44.24421279535585" lon="11.335344881060397"><ele>822.0</ele><time>2026-05-01T09:05:47.881Z</time></trkpt><trkpt lat="44.24405851127373" lon="11.335286091815549"><ele>824.25</ele><time>2026-05-01T09:05:48.881Z</time></trkpt><trkpt lat="44.24391921139225" lon="11.335237071332996"><ele>826.5</ele><time>2026-05-01T09:05:49.881Z</time></trkpt><trkpt lat="44.24379290543103" lon="11.335218281822089"><ele>828.75</ele><time>2026-05-01T09:05:50.881Z</time></trkpt><trkpt lat="44.24367525401108" lon="11.33523234527309"><ele>831.0</ele><time>2026-05-01T09:05:51.881Z</time></trkpt><trkpt lat="44.24358890079934" lon="11.335284448662138"><ele>831.0</ele><time>2026-05-01T09:05:52.881Z</time></trkpt><trkpt lat="44.24351734289089" lon="11.33537090115183"><ele>831.0</ele><time>2026-05-01T09:05:53.881Z</time></trkpt><trkpt lat="44.243466032363195" lon="11.335480143289303"><ele>831.0</ele><time>2026-05-01T09:05:54.881Z</time></trkpt><trkpt lat="44.243439277010154" lon="11.335651135092023"><ele>831.0</ele><time>2026-05-01T09:05:55.881Z</time></trkpt><trkpt lat="44.24343744878634" lon="11.335835968571539"><ele>831.0</ele><time>2026-05-01T09:05:56.881Z</time></trkpt><trkpt lat="44.2434609770905" lon="11.336043066106184"><ele>833.6666666666667</ele><time>2026-05-01T09:05:57.881Z</time></trkpt><trkpt lat="44.243500509773085" lon="11.336257000232225"><ele>836.3333333333334</ele><time>2026-05-01T09:05:58.88Z</time></trkpt><trkpt lat="44.24353825415527" lon="11.336475040038595"><ele>839.0</ele><time>2026-05-01T09:05:59.88Z</time></trkpt><trkpt lat="44.243570832463625" lon="11.336694540656412"><ele>840.5</ele><time>2026-05-01T09:06:00.88Z</time></trkpt><trkpt lat="44.24359144813364" lon="11.336900669829229"><ele>842.0</ele><time>2026-05-01T09:06:01.88Z</time></trkpt><trkpt lat="44.24360548918434" lon="11.337077719232298"><ele>843.5</ele><time>2026-05-01T09:06:02.88Z</time></trkpt><trkpt lat="44.24361321262814" lon="11.337236308346565"><ele>845.0</ele><time>2026-05-01T09:06:03.88Z</time></trkpt><trkpt lat="44.24360469731655" lon="11.337393642372355"><ele>845.2</ele><time>2026-05-01T09:06:04.88Z</time></trkpt><trkpt lat="44.24355281239421" lon="11.3375365095252"><ele>845.4</ele><time>2026-05-01T09:06:05.88Z</time></trkpt><trkpt lat="44.24349190114684" lon="11.337662769421115"><ele>845.5999999999999</ele><time>2026-05-01T09:06:06.88Z</time></trkpt><trkpt lat="44.24341116687968" lon="11.337751748694764"><ele>845.8</ele><time>2026-05-01T09:06:07.88Z</time></trkpt><trkpt lat="44.24331418255177" lon="11.337801176470661"><ele>846.0</ele><time>2026-05-01T09:06:08.88Z</time></trkpt><trkpt lat="44.24319935738346" lon="11.337808497127364"><ele>846.0</ele><time>2026-05-01T09:06:09.88Z</time></trkpt><trkpt lat="44.24308211540649" lon="11.337788073090353"><ele>846.0</ele><time>2026-05-01T09:06:10.88Z</time></trkpt><trkpt lat="44.24293752449646" lon="11.337758980819219"><ele>846.0</ele><time>2026-05-01T09:06:11.88Z</time></trkpt><trkpt lat="44.242791780605074" lon="11.33771209298727"><ele>846.0</ele><time>2026-05-01T09:06:12.88Z</time></trkpt><trkpt lat="44.24264583337955" lon="11.33766736427548"><ele>846.0</ele><time>2026-05-01T09:06:13.88Z</time></trkpt><trkpt lat="44.24248842467988" lon="11.337616679067386"><ele>846.0</ele><time>2026-05-01T09:06:14.88Z</time></trkpt><trkpt lat="44.24232685277907" lon="11.337566128828508"><ele>846.0</ele><time>2026-05-01T09:06:15.88Z</time></trkpt><trkpt lat="44.242182975511696" lon="11.33752258688789"><ele>845.75</ele><time>2026-05-01T09:06:16.88Z</time></trkpt><trkpt lat="44.242056358173635" lon="11.337476523943343"><ele>845.5</ele><time>2026-05-01T09:06:17.88Z</time></trkpt><trkpt lat="44.24193822109053" lon="11.337460841296613"><ele>845.25</ele><time>2026-05-01T09:06:18.88Z</time></trkpt><trkpt lat="44.241836552298665" lon="11.33746251018362"><ele>845.0</ele><time>2026-05-01T09:06:19.88Z</time></trkpt><trkpt lat="44.241738059248235" lon="11.337489665661714"><ele>845.0</ele><time>2026-05-01T09:06:20.88Z</time></trkpt><trkpt lat="44.24165918465073" lon="11.337552020981626"><ele>845.0</ele><time>2026-05-01T09:06:21.88Z</time></trkpt><trkpt lat="44.24158673017278" lon="11.337670474796287"><ele>845.0</ele><time>2026-05-01T09:06:22.88Z</time></trkpt><trkpt lat="44.241523361697716" lon="11.33780627954775"><ele>845.0</ele><time>2026-05-01T09:06:23.88Z</time></trkpt><trkpt lat="44.24145439975959" lon="11.337939984815252"><ele>845.0</ele><time>2026-05-01T09:06:24.88Z</time></trkpt><trkpt lat="44.241360115680756" lon="11.338025452046475"><ele>845.25</ele><time>2026-05-01T09:06:25.88Z</time></trkpt><trkpt lat="44.24124161137658" lon="11.338060458958763"><ele>845.5</ele><time>2026-05-01T09:06:26.88Z</time></trkpt><trkpt lat="44.241084520811704" lon="11.338060303656338"><ele>845.75</ele><time>2026-05-01T09:06:27.88Z</time></trkpt><trkpt lat="44.240931637104154" lon="11.338025219471906"><ele>846.0</ele><time>2026-05-01T09:06:28.88Z</time></trkpt><trkpt lat="44.24076967020047" lon="11.337986772623461"><ele>847.3333333333333</ele><time>2026-05-01T09:06:29.88Z</time></trkpt><trkpt lat="44.24060012947275" lon="11.337948014996334"><ele>848.6666666666666</ele><time>2026-05-01T09:06:30.88Z</time></trkpt><trkpt lat="44.24041033863293" lon="11.337910168300189"><ele>850.0</ele><time>2026-05-01T09:06:31.88Z</time></trkpt><trkpt lat="44.24022989774632" lon="11.337877708951911"><ele>850.0</ele><time>2026-05-01T09:06:32.88Z</time></trkpt><trkpt lat="44.24002713674937" lon="11.337863918571943"><ele>850.0</ele><time>2026-05-01T09:06:33.88Z</time></trkpt><trkpt lat="44.23982126308237" lon="11.337816817190888"><ele>850.0</ele><time>2026-05-01T09:06:34.88Z</time></trkpt><trkpt lat="44.23966116254941" lon="11.337811286830828"><ele>851.6</ele><time>2026-05-01T09:06:36.88Z</time></trkpt><trkpt lat="44.23952343497145" lon="11.337788048546269"><ele>853.2</ele><time>2026-05-01T09:06:37.88Z</time></trkpt><trkpt lat="44.23942441191052" lon="11.337772230916546"><ele>854.8</ele><time>2026-05-01T09:06:38.88Z</time></trkpt><trkpt lat="44.239358092702986" lon="11.337757662638138"><ele>856.4</ele><time>2026-05-01T09:06:39.88Z</time></trkpt><trkpt lat="44.23927944214892" lon="11.337721220706454"><ele>858.0</ele><time>2026-05-01T09:06:42.88Z</time></trkpt><trkpt lat="44.239304991846005" lon="11.337858083727637"><ele>858.0</ele><time>2026-05-01T09:06:51.879Z</time></trkpt><trkpt lat="44.23932230579312" lon="11.337961768729688"><ele>858.0</ele><time>2026-05-01T09:06:52.879Z</time></trkpt><trkpt lat="44.23933167820446" lon="11.338086629268558"><ele>858.0</ele><time>2026-05-01T09:06:53.879Z</time></trkpt><trkpt lat="44.239326383620146" lon="11.338243255068654"><ele>858.0</ele><time>2026-05-01T09:06:54.879Z</time></trkpt><trkpt lat="44.23930176071084" lon="11.338402104517554"><ele>858.0</ele><time>2026-05-01T09:06:55.879Z</time></trkpt><trkpt lat="44.23926079628331" lon="11.33854505903163"><ele>858.4</ele><time>2026-05-01T09:06:56.879Z</time></trkpt><trkpt lat="44.239200337405784" lon="11.33868113324012"><ele>858.8</ele><time>2026-05-01T09:06:57.879Z</time></trkpt><trkpt lat="44.239135083499384" lon="11.338839651641676"><ele>859.2</ele><time>2026-05-01T09:06:58.879Z</time></trkpt><trkpt lat="44.23909441380215" lon="11.338938116183144"><ele>859.6</ele><time>2026-05-01T09:06:59.879Z</time></trkpt><trkpt lat="44.23909718162783" lon="11.339077841793397"><ele>860.0</ele><time>2026-05-01T09:07:01.879Z</time></trkpt><trkpt lat="44.23920455133708" lon="11.339217389511921"><ele>860.0</ele><time>2026-05-01T09:07:03.878Z</time></trkpt><trkpt lat="44.23929506672422" lon="11.339287100391847"><ele>860.0</ele><time>2026-05-01T09:07:04.878Z</time></trkpt><trkpt lat="44.23939626012931" lon="11.339339043477567"><ele>860.0</ele><time>2026-05-01T09:07:05.878Z</time></trkpt><trkpt lat="44.239510144442015" lon="11.339389270215214"><ele>860.0</ele><time>2026-05-01T09:07:06.878Z</time></trkpt><trkpt lat="44.239611815748766" lon="11.339433997910735"><ele>860.0</ele><time>2026-05-01T09:07:07.877Z</time></trkpt><trkpt lat="44.23971655993739" lon="11.339458465018948"><ele>857.2</ele><time>2026-05-01T09:07:08.877Z</time></trkpt><trkpt lat="44.23980087195179" lon="11.339517193686877"><ele>854.4</ele><time>2026-05-01T09:07:09.877Z</time></trkpt><trkpt lat="44.23990367114697" lon="11.339567737978648"><ele>851.5999999999999</ele><time>2026-05-01T09:07:10.878Z</time></trkpt><trkpt lat="44.240005472061775" lon="11.33964862341447"><ele>848.8</ele><time>2026-05-01T09:07:11.878Z</time></trkpt><trkpt lat="44.2401091154499" lon="11.339717111981047"><ele>846.0</ele><time>2026-05-01T09:07:12.877Z</time></trkpt><trkpt lat="44.24020229480052" lon="11.339807131337384"><ele>846.0</ele><time>2026-05-01T09:07:13.877Z</time></trkpt><trkpt lat="44.240297999272705" lon="11.339892752890018"><ele>846.0</ele><time>2026-05-01T09:07:14.877Z</time></trkpt><trkpt lat="44.240371753746565" lon="11.339999796024378"><ele>846.0</ele><time>2026-05-01T09:07:15.877Z</time></trkpt><trkpt lat="44.24044201528356" lon="11.340123890739005"><ele>846.0</ele><time>2026-05-01T09:07:16.877Z</time></trkpt><trkpt lat="44.240505339032715" lon="11.34027326683577"><ele>846.0</ele><time>2026-05-01T09:07:17.877Z</time></trkpt><trkpt lat="44.24056310463995" lon="11.340418930537874"><ele>846.0</ele><time>2026-05-01T09:07:18.877Z</time></trkpt><trkpt lat="44.240609194975015" lon="11.340543246247393"><ele>846.0</ele><time>2026-05-01T09:07:19.877Z</time></trkpt><trkpt lat="44.240649477833024" lon="11.340656815247154"><ele>846.0</ele><time>2026-05-01T09:07:20.877Z</time></trkpt><trkpt lat="44.24067194227358" lon="11.340779055914357"><ele>846.0</ele><time>2026-05-01T09:07:21.877Z</time></trkpt><trkpt lat="44.24067112156771" lon="11.34091616912574"><ele>841.5999999999999</ele><time>2026-05-01T09:07:22.877Z</time></trkpt><trkpt lat="44.24067986898464" lon="11.341044635678314"><ele>837.2</ele><time>2026-05-01T09:07:23.877Z</time></trkpt><trkpt lat="44.24072985163935" lon="11.341157949335269"><ele>832.8</ele><time>2026-05-01T09:07:24.877Z</time></trkpt><trkpt lat="44.24080304152711" lon="11.341257526162721"><ele>828.4000000000001</ele><time>2026-05-01T09:07:25.877Z</time></trkpt><trkpt lat="44.240886745449934" lon="11.34136350139169"><ele>824.0</ele><time>2026-05-01T09:07:26.877Z</time></trkpt><trkpt lat="44.24096471334047" lon="11.341465333495014"><ele>821.6</ele><time>2026-05-01T09:07:27.877Z</time></trkpt><trkpt lat="44.24103278006612" lon="11.341570924757791"><ele>819.2</ele><time>2026-05-01T09:07:28.877Z</time></trkpt><trkpt lat="44.24108333854914" lon="11.34172252148149"><ele>816.8000000000001</ele><time>2026-05-01T09:07:29.877Z</time></trkpt><trkpt lat="44.241095919563065" lon="11.34187976627872"><ele>814.4000000000001</ele><time>2026-05-01T09:07:30.877Z</time></trkpt><trkpt lat="44.24107479287936" lon="11.342036422495406"><ele>812.0</ele><time>2026-05-01T09:07:31.877Z</time></trkpt><trkpt lat="44.24104772718233" lon="11.342188558421618"><ele>809.4000000000001</ele><time>2026-05-01T09:07:32.877Z</time></trkpt><trkpt lat="44.241015828018696" lon="11.342316470096998"><ele>806.8000000000001</ele><time>2026-05-01T09:07:33.877Z</time></trkpt><trkpt lat="44.241003491482644" lon="11.342425883668076"><ele>804.2</ele><time>2026-05-01T09:07:34.877Z</time></trkpt><trkpt lat="44.24101359880322" lon="11.342532310910373"><ele>801.6</ele><time>2026-05-01T09:07:35.877Z</time></trkpt><trkpt lat="44.241051404595254" lon="11.342651387033163"><ele>799.0</ele><time>2026-05-01T09:07:36.877Z</time></trkpt><trkpt lat="44.2411067616311" lon="11.342780978567662"><ele>799.0</ele><time>2026-05-01T09:07:37.877Z</time></trkpt><trkpt lat="44.241148014520945" lon="11.342915630478696"><ele>799.0</ele><time>2026-05-01T09:07:38.877Z</time></trkpt><trkpt lat="44.24118833634571" lon="11.343080517697974"><ele>799.0</ele><time>2026-05-01T09:07:39.877Z</time></trkpt><trkpt lat="44.241199181648085" lon="11.34325400424747"><ele>799.0</ele><time>2026-05-01T09:07:40.877Z</time></trkpt><trkpt lat="44.24122653024534" lon="11.343415076482056"><ele>796.0</ele><time>2026-05-01T09:07:41.877Z</time></trkpt><trkpt lat="44.24127481727815" lon="11.343557072509114"><ele>793.0</ele><time>2026-05-01T09:07:42.877Z</time></trkpt><trkpt lat="44.24129305144781" lon="11.343688299856554"><ele>790.0</ele><time>2026-05-01T09:07:43.877Z</time></trkpt><trkpt lat="44.24127890909025" lon="11.343801410532325"><ele>787.0</ele><time>2026-05-01T09:07:44.877Z</time></trkpt><trkpt lat="44.24125919625166" lon="11.343891044372194"><ele>784.0</ele><time>2026-05-01T09:07:45.877Z</time></trkpt><trkpt lat="44.241296318242924" lon="11.344061559838849"><ele>785.4000000000001</ele><time>2026-05-01T09:07:47.877Z</time></trkpt><trkpt lat="44.241340308896795" lon="11.344143032171274"><ele>786.8</ele><time>2026-05-01T09:07:48.877Z</time></trkpt><trkpt lat="44.24142346699411" lon="11.344227146070882"><ele>788.2</ele><time>2026-05-01T09:07:49.877Z</time></trkpt><trkpt lat="44.24152459430335" lon="11.344295433157056"><ele>789.5999999999999</ele><time>2026-05-01T09:07:50.877Z</time></trkpt><trkpt lat="44.24160671147597" lon="11.34437277558212"><ele>791.0</ele><time>2026-05-01T09:07:51.876Z</time></trkpt><trkpt lat="44.24164498074055" lon="11.344486135809099"><ele>791.0000000000001</ele><time>2026-05-01T09:07:52.876Z</time></trkpt><trkpt lat="44.24163209982523" lon="11.344616647943354"><ele>791.0</ele><time>2026-05-01T09:07:53.876Z</time></trkpt><trkpt lat="44.24158621249943" lon="11.344728312472215"><ele>791.0</ele><time>2026-05-01T09:07:54.876Z</time></trkpt><trkpt lat="44.241523113508904" lon="11.344829634872392"><ele>791.0</ele><time>2026-05-01T09:07:55.876Z</time></trkpt><trkpt lat="44.24148796125455" lon="11.34491207742113"><ele>791.0000000000001</ele><time>2026-05-01T09:07:56.876Z</time></trkpt><trkpt lat="44.241473163447225" lon="11.34504555737006"><ele>791.0</ele><time>2026-05-01T09:07:58.876Z</time></trkpt><trkpt lat="44.24156326996948" lon="11.345213340729126"><ele>789.0</ele><time>2026-05-01T09:08:00.876Z</time></trkpt><trkpt lat="44.24167350666874" lon="11.345274966152019"><ele>787.0</ele><time>2026-05-01T09:08:01.876Z</time></trkpt><trkpt lat="44.24177258958724" lon="11.345320574350845"><ele>785.0</ele><time>2026-05-01T09:08:02.876Z</time></trkpt><trkpt lat="44.24189291122931" lon="11.345374684330125"><ele>783.0</ele><time>2026-05-01T09:08:03.876Z</time></trkpt><trkpt lat="44.2420048610831" lon="11.34542618449532"><ele>783.0</ele><time>2026-05-01T09:08:04.876Z</time></trkpt><trkpt lat="44.24211757371699" lon="11.34552592698236"><ele>783.0</ele><time>2026-05-01T09:08:05.876Z</time></trkpt><trkpt lat="44.2422193938384" lon="11.345630964872099"><ele>783.0</ele><time>2026-05-01T09:08:06.876Z</time></trkpt><trkpt lat="44.24230143553041" lon="11.345719785144698"><ele>783.0</ele><time>2026-05-01T09:08:07.876Z</time></trkpt><trkpt lat="44.24239561837164" lon="11.345823526375094"><ele>780.8</ele><time>2026-05-01T09:08:08.876Z</time></trkpt><trkpt lat="44.24248895437002" lon="11.345924010448547"><ele>778.5999999999999</ele><time>2026-05-01T09:08:09.876Z</time></trkpt><trkpt lat="44.24256823545442" lon="11.346016697279111"><ele>776.4000000000001</ele><time>2026-05-01T09:08:10.876Z</time></trkpt><trkpt lat="44.24263195501143" lon="11.34612637524508"><ele>774.2</ele><time>2026-05-01T09:08:11.876Z</time></trkpt><trkpt lat="44.24268376887759" lon="11.34626082175346"><ele>772.0</ele><time>2026-05-01T09:08:12.876Z</time></trkpt><trkpt lat="44.24272209500004" lon="11.34636816474213"><ele>770.75</ele><time>2026-05-01T09:08:13.876Z</time></trkpt><trkpt lat="44.24273707585479" lon="11.346464959771517"><ele>769.5</ele><time>2026-05-01T09:08:14.876Z</time></trkpt><trkpt lat="44.242808255731475" lon="11.346566295604749"><ele>768.25</ele><time>2026-05-01T09:08:16.875Z</time></trkpt><trkpt lat="44.242935874779846" lon="11.346644040002877"><ele>767.0</ele><time>2026-05-01T09:08:42.872Z</time></trkpt><trkpt lat="44.243062352350435" lon="11.346742739416568"><ele>764.25</ele><time>2026-05-01T09:08:44.871Z</time></trkpt><trkpt lat="44.243166740150265" lon="11.346812617955019"><ele>761.5</ele><time>2026-05-01T09:08:45.871Z</time></trkpt><trkpt lat="44.243261083100336" lon="11.346906357707784"><ele>758.75</ele><time>2026-05-01T09:08:46.871Z</time></trkpt><trkpt lat="44.24337933450146" lon="11.346985245902776"><ele>756.0</ele><time>2026-05-01T09:08:47.871Z</time></trkpt><trkpt lat="44.24350577588365" lon="11.347071443277967"><ele>756.0</ele><time>2026-05-01T09:08:48.871Z</time></trkpt><trkpt lat="44.243632448952475" lon="11.347174210617059"><ele>756.0</ele><time>2026-05-01T09:08:49.871Z</time></trkpt><trkpt lat="44.2437458238753" lon="11.347262800651183"><ele>756.0</ele><time>2026-05-01T09:08:50.871Z</time></trkpt><trkpt lat="44.243846689748835" lon="11.34732658487146"><ele>756.0</ele><time>2026-05-01T09:08:51.871Z</time></trkpt><trkpt lat="44.243913670951486" lon="11.347371285048935"><ele>755.4</ele><time>2026-05-01T09:08:52.871Z</time></trkpt><trkpt lat="44.243985276652865" lon="11.347425815205874"><ele>754.8</ele><time>2026-05-01T09:08:53.871Z</time></trkpt><trkpt lat="44.24405613392265" lon="11.347477603998717"><ele>754.1999999999999</ele><time>2026-05-01T09:08:54.871Z</time></trkpt><trkpt lat="44.244137697444344" lon="11.347558789329636"><ele>753.5999999999999</ele><time>2026-05-01T09:08:55.871Z</time></trkpt><trkpt lat="44.244218027299276" lon="11.347660783109207"><ele>753.0</ele><time>2026-05-01T09:08:56.871Z</time></trkpt><trkpt lat="44.24430210968461" lon="11.347750825380245"><ele>753.0</ele><time>2026-05-01T09:08:57.871Z</time></trkpt><trkpt lat="44.2443916872907" lon="11.347802051955581"><ele>753.0</ele><time>2026-05-01T09:08:58.871Z</time></trkpt><trkpt lat="44.24448455625539" lon="11.347827831478263"><ele>753.0</ele><time>2026-05-01T09:08:59.871Z</time></trkpt><trkpt lat="44.244574627620715" lon="11.347837844127271"><ele>753.0</ele><time>2026-05-01T09:09:00.871Z</time></trkpt><trkpt lat="44.24466827747457" lon="11.34785326328733"><ele>753.0</ele><time>2026-05-01T09:09:01.871Z</time></trkpt><trkpt lat="44.24476560266503" lon="11.347875930993606"><ele>750.8333333333334</ele><time>2026-05-01T09:09:02.871Z</time></trkpt><trkpt lat="44.24486063765967" lon="11.347890670222933"><ele>748.6666666666666</ele><time>2026-05-01T09:09:03.871Z</time></trkpt><trkpt lat="44.24495369602429" lon="11.347901943886312"><ele>746.5</ele><time>2026-05-01T09:09:04.871Z</time></trkpt><trkpt lat="44.24504054873088" lon="11.34789661417414"><ele>744.3333333333333</ele><time>2026-05-01T09:09:05.87Z</time></trkpt><trkpt lat="44.24512056954498" lon="11.347861026310529"><ele>742.1666666666666</ele><time>2026-05-01T09:09:06.87Z</time></trkpt><trkpt lat="44.24519768776592" lon="11.347814997029616"><ele>740.0</ele><time>2026-05-01T09:09:07.87Z</time></trkpt><trkpt lat="44.24525627252808" lon="11.347778372601217"><ele>740.0</ele><time>2026-05-01T09:09:08.87Z</time></trkpt><trkpt lat="44.24535361572977" lon="11.347784610591559"><ele>740.0</ele><time>2026-05-01T09:09:10.869Z</time></trkpt><trkpt lat="44.24541419398749" lon="11.347852227244863"><ele>740.0</ele><time>2026-05-01T09:09:11.869Z</time></trkpt><trkpt lat="44.24548333219681" lon="11.347935281377989"><ele>740.0</ele><time>2026-05-01T09:09:12.87Z</time></trkpt><trkpt lat="44.24554345939517" lon="11.348010894940462"><ele>740.0</ele><time>2026-05-01T09:09:13.869Z</time></trkpt><trkpt lat="44.24559853812924" lon="11.348093872365208"><ele>740.0</ele><time>2026-05-01T09:09:14.869Z</time></trkpt><trkpt lat="44.24564592328119" lon="11.348184845708174"><ele>738.0</ele><time>2026-05-01T09:09:15.87Z</time></trkpt><trkpt lat="44.24571284979706" lon="11.34828131376115"><ele>736.0</ele><time>2026-05-01T09:09:16.869Z</time></trkpt><trkpt lat="44.245772982887054" lon="11.34838788889379"><ele>734.0</ele><time>2026-05-01T09:09:17.869Z</time></trkpt><trkpt lat="44.24582459223495" lon="11.34848517194182"><ele>732.0</ele><time>2026-05-01T09:09:18.869Z</time></trkpt><trkpt lat="44.24587389245237" lon="11.348560906171848"><ele>730.0</ele><time>2026-05-01T09:09:19.869Z</time></trkpt><trkpt lat="44.24588103001771" lon="11.348657821912088"><ele>728.0</ele><time>2026-05-01T09:09:20.869Z</time></trkpt><trkpt lat="44.2458824481817" lon="11.348819580718692"><ele>727.8</ele><time>2026-05-01T09:09:22.868Z</time></trkpt><trkpt lat="44.24585818282653" lon="11.349003426062058"><ele>727.5999999999999</ele><time>2026-05-01T09:09:24.868Z</time></trkpt><trkpt lat="44.24585911179702" lon="11.34912661906964"><ele>727.4000000000001</ele><time>2026-05-01T09:09:25.868Z</time></trkpt><trkpt lat="44.24587251584485" lon="11.34926363334501"><ele>727.2</ele><time>2026-05-01T09:09:26.868Z</time></trkpt><trkpt lat="44.245892930829235" lon="11.349403575663745"><ele>727.0</ele><time>2026-05-01T09:09:27.868Z</time></trkpt><trkpt lat="44.24589897061322" lon="11.349559380461237"><ele>724.0</ele><time>2026-05-01T09:09:28.868Z</time></trkpt><trkpt lat="44.24586701139918" lon="11.349744900448863"><ele>721.0</ele><time>2026-05-01T09:09:29.868Z</time></trkpt><trkpt lat="44.245820978629574" lon="11.349921306943203"><ele>718.0</ele><time>2026-05-01T09:09:30.868Z</time></trkpt><trkpt lat="44.245775849972134" lon="11.350060284508844"><ele>715.0</ele><time>2026-05-01T09:09:31.868Z</time></trkpt><trkpt lat="44.24574718603859" lon="11.350189320085224"><ele>715.0</ele><time>2026-05-01T09:09:32.868Z</time></trkpt><trkpt lat="44.24573943849849" lon="11.350313584811143"><ele>715.0</ele><time>2026-05-01T09:09:33.868Z</time></trkpt><trkpt lat="44.2457575549061" lon="11.350413954776794"><ele>715.0</ele><time>2026-05-01T09:09:34.868Z</time></trkpt><trkpt lat="44.24581211376047" lon="11.350516287624165"><ele>715.0</ele><time>2026-05-01T09:09:35.868Z</time></trkpt><trkpt lat="44.245880533891956" lon="11.350611089553311"><ele>715.0</ele><time>2026-05-01T09:09:36.868Z</time></trkpt><trkpt lat="44.24596833358365" lon="11.35070692059867"><ele>714.6</ele><time>2026-05-01T09:09:37.868Z</time></trkpt><trkpt lat="44.24605348331084" lon="11.35081464934159"><ele>714.2</ele><time>2026-05-01T09:09:38.868Z</time></trkpt><trkpt lat="44.24611140883018" lon="11.350912241853592"><ele>713.8</ele><time>2026-05-01T09:09:39.868Z</time></trkpt><trkpt lat="44.24613919315311" lon="11.35102270710544"><ele>713.4</ele><time>2026-05-01T09:09:40.868Z</time></trkpt><trkpt lat="44.24615994407665" lon="11.351110964949672"><ele>713.0</ele><time>2026-05-01T09:09:41.868Z</time></trkpt><trkpt lat="44.24615375273656" lon="11.351246057255942"><ele>713.0</ele><time>2026-05-01T09:09:42.868Z</time></trkpt><trkpt lat="44.246114931316384" lon="11.351372816714282"><ele>713.0</ele><time>2026-05-01T09:09:43.868Z</time></trkpt><trkpt lat="44.24607105983072" lon="11.351496171308733"><ele>713.0</ele><time>2026-05-01T09:09:44.868Z</time></trkpt><trkpt lat="44.246013724366584" lon="11.351609841427145"><ele>713.0</ele><time>2026-05-01T09:09:45.868Z</time></trkpt><trkpt lat="44.24592397194142" lon="11.3517173281402"><ele>713.0</ele><time>2026-05-01T09:09:46.868Z</time></trkpt><trkpt lat="44.24587018089072" lon="11.351768177666123"><ele>712.25</ele><time>2026-05-01T09:09:47.868Z</time></trkpt><trkpt lat="44.24578225234546" lon="11.351930304120225"><ele>711.5</ele><time>2026-05-01T09:09:49.868Z</time></trkpt><trkpt lat="44.24575885271488" lon="11.352072449124723"><ele>710.75</ele><time>2026-05-01T09:09:50.868Z</time></trkpt><trkpt lat="44.24576958942842" lon="11.352246704712503"><ele>710.0</ele><time>2026-05-01T09:09:51.868Z</time></trkpt><trkpt lat="44.24574451124755" lon="11.352424958810673"><ele>710.8</ele><time>2026-05-01T09:09:52.868Z</time></trkpt><trkpt lat="44.24572356271373" lon="11.352592751166037"><ele>711.6</ele><time>2026-05-01T09:09:53.868Z</time></trkpt><trkpt lat="44.24568967466214" lon="11.352720948148916"><ele>712.4000000000001</ele><time>2026-05-01T09:09:54.868Z</time></trkpt><trkpt lat="44.24564547067548" lon="11.352846964615685"><ele>713.2</ele><time>2026-05-01T09:09:55.868Z</time></trkpt><trkpt lat="44.245611889858935" lon="11.35296533134758"><ele>714.0</ele><time>2026-05-01T09:09:56.868Z</time></trkpt><trkpt lat="44.24560500411642" lon="11.353067509135919"><ele>711.6666666666666</ele><time>2026-05-01T09:09:57.868Z</time></trkpt><trkpt lat="44.245605273130735" lon="11.353168082817021"><ele>709.3333333333334</ele><time>2026-05-01T09:09:58.868Z</time></trkpt><trkpt lat="44.24561895451583" lon="11.353254696029722"><ele>707.0</ele><time>2026-05-01T09:09:59.868Z</time></trkpt><trkpt lat="44.24563875531484" lon="11.353402253733535"><ele>704.6666666666667</ele><time>2026-05-01T09:10:01.867Z</time></trkpt><trkpt lat="44.245677147115124" lon="11.353526234455227"><ele>702.3333333333334</ele><time>2026-05-01T09:10:04.867Z</time></trkpt><trkpt lat="44.245702499245006" lon="11.353615001451281"><ele>700.0</ele><time>2026-05-01T09:10:12.867Z</time></trkpt><trkpt lat="44.24560650527487" lon="11.353697321414511"><ele>700.0</ele><time>2026-05-01T09:10:14.867Z</time></trkpt><trkpt lat="44.24554228433579" lon="11.353719434185665"><ele>700.0</ele><time>2026-05-01T09:10:16.867Z</time></trkpt><trkpt lat="44.245453657356464" lon="11.353743319559575"><ele>700.0</ele><time>2026-05-01T09:10:18.867Z</time></trkpt><trkpt lat="44.24536190256181" lon="11.35368870301866"><ele>700.0</ele><time>2026-05-01T09:10:20.867Z</time></trkpt><trkpt lat="44.24521359667682" lon="11.353678654099769"><ele>700.0</ele><time>2026-05-01T09:10:22.867Z</time></trkpt><trkpt lat="44.24512123602498" lon="11.353662537705567"><ele>700.0</ele><time>2026-05-01T09:10:23.867Z</time></trkpt><trkpt lat="44.245032078475575" lon="11.353680984137224"><ele>700.0</ele><time>2026-05-01T09:10:24.867Z</time></trkpt><trkpt lat="44.24494420210578" lon="11.353695462115121"><ele>700.0</ele><time>2026-05-01T09:10:25.867Z</time></trkpt><trkpt lat="44.24486369383339" lon="11.353714660417193"><ele>700.0</ele><time>2026-05-01T09:10:26.867Z</time></trkpt><trkpt lat="44.24479057900587" lon="11.353693915123179"><ele>700.0</ele><time>2026-05-01T09:10:27.867Z</time></trkpt><trkpt lat="44.244723615765885" lon="11.353658417249035"><ele>700.0</ele><time>2026-05-01T09:10:28.867Z</time></trkpt><trkpt lat="44.24465051855548" lon="11.353589519420277"><ele>696.0</ele><time>2026-05-01T09:10:29.867Z</time></trkpt><trkpt lat="44.244569045053204" lon="11.35351568700051"><ele>692.0</ele><time>2026-05-01T09:10:30.867Z</time></trkpt><trkpt lat="44.244512898612385" lon="11.353402841446929"><ele>688.0</ele><time>2026-05-01T09:10:31.867Z</time></trkpt><trkpt lat="44.24448672928833" lon="11.353270619428436"><ele>684.0</ele><time>2026-05-01T09:10:32.867Z</time></trkpt><trkpt lat="44.244428765948015" lon="11.353160024295835"><ele>680.0</ele><time>2026-05-01T09:10:33.867Z</time></trkpt><trkpt lat="44.24435428058425" lon="11.35305303521177"><ele>680.4</ele><time>2026-05-01T09:10:34.867Z</time></trkpt><trkpt lat="44.2442780632333" lon="11.352964697250728"><ele>680.8</ele><time>2026-05-01T09:10:35.867Z</time></trkpt><trkpt lat="44.24419605630328" lon="11.352889481249186"><ele>681.2</ele><time>2026-05-01T09:10:36.867Z</time></trkpt><trkpt lat="44.244106770173545" lon="11.35282437767929"><ele>681.6</ele><time>2026-05-01T09:10:37.867Z</time></trkpt><trkpt lat="44.24400896547649" lon="11.352779304552401"><ele>682.0</ele><time>2026-05-01T09:10:38.867Z</time></trkpt><trkpt lat="44.24392026052203" lon="11.352713593537219"><ele>682.0</ele><time>2026-05-01T09:10:39.867Z</time></trkpt><trkpt lat="44.24381591485372" lon="11.352661117123455"><ele>682.0</ele><time>2026-05-01T09:10:40.867Z</time></trkpt><trkpt lat="44.24371317464792" lon="11.352614842536015"><ele>682.0</ele><time>2026-05-01T09:10:41.867Z</time></trkpt><trkpt lat="44.2436184035239" lon="11.352580244619936"><ele>682.0</ele><time>2026-05-01T09:10:42.867Z</time></trkpt><trkpt lat="44.24352855813693" lon="11.352563894523383"><ele>682.0</ele><time>2026-05-01T09:10:43.867Z</time></trkpt><trkpt lat="44.24344391933861" lon="11.352568654768389"><ele>682.0</ele><time>2026-05-01T09:10:44.867Z</time></trkpt><trkpt lat="44.24336444459566" lon="11.352577742827068"><ele>682.0</ele><time>2026-05-01T09:10:45.867Z</time></trkpt><trkpt lat="44.24328481559277" lon="11.352590025437854"><ele>682.0</ele><time>2026-05-01T09:10:46.866Z</time></trkpt><trkpt lat="44.2432083461094" lon="11.352535941355082"><ele>682.0</ele><time>2026-05-01T09:10:47.866Z</time></trkpt><trkpt lat="44.24313452077533" lon="11.352455233360867"><ele>682.0</ele><time>2026-05-01T09:10:48.866Z</time></trkpt><trkpt lat="44.2430637337233" lon="11.35234693194013"><ele>682.0</ele><time>2026-05-01T09:10:49.866Z</time></trkpt><trkpt lat="44.243002763585466" lon="11.35224994635336"><ele>683.8333333333334</ele><time>2026-05-01T09:10:50.866Z</time></trkpt><trkpt lat="44.24294552401353" lon="11.352174355829172"><ele>685.6666666666667</ele><time>2026-05-01T09:10:51.866Z</time></trkpt><trkpt lat="44.24288201571279" lon="11.352131873104511"><ele>687.5</ele><time>2026-05-01T09:10:52.866Z</time></trkpt><trkpt lat="44.242820982538994" lon="11.352083686833517"><ele>689.3333333333334</ele><time>2026-05-01T09:10:53.866Z</time></trkpt><trkpt lat="44.24272353536283" lon="11.352088169706171"><ele>691.1666666666666</ele><time>2026-05-01T09:10:54.866Z</time></trkpt><trkpt lat="44.242630443114855" lon="11.352149443185263"><ele>693.0</ele><time>2026-05-01T09:10:55.866Z</time></trkpt><trkpt lat="44.24253215793994" lon="11.352187293652815"><ele>691.6666666666666</ele><time>2026-05-01T09:10:56.866Z</time></trkpt><trkpt lat="44.24244263812316" lon="11.35221041254827"><ele>690.3333333333334</ele><time>2026-05-01T09:10:57.866Z</time></trkpt><trkpt lat="44.24236290461644" lon="11.352238991926573"><ele>689.0</ele><time>2026-05-01T09:10:58.866Z</time></trkpt><trkpt lat="44.242283389289376" lon="11.352202587939463"><ele>687.6666666666667</ele><time>2026-05-01T09:10:59.866Z</time></trkpt><trkpt lat="44.242204204048825" lon="11.352176784969211"><ele>686.3333333333334</ele><time>2026-05-01T09:11:00.866Z</time></trkpt><trkpt lat="44.24212751040388" lon="11.352165469427934"><ele>685.0</ele><time>2026-05-01T09:11:01.866Z</time></trkpt><trkpt lat="44.24206718942148" lon="11.352134731711692"><ele>685.0</ele><time>2026-05-01T09:11:02.866Z</time></trkpt><trkpt lat="44.24195987613044" lon="11.35209239107144"><ele>685.0</ele><time>2026-05-01T09:11:04.866Z</time></trkpt><trkpt lat="44.24189923484081" lon="11.35206856181697"><ele>685.0</ele><time>2026-05-01T09:11:05.866Z</time></trkpt><trkpt lat="44.2418218606778" lon="11.352044009513767"><ele>685.0</ele><time>2026-05-01T09:11:06.866Z</time></trkpt><trkpt lat="44.24174163606315" lon="11.351992134700726"><ele>685.0</ele><time>2026-05-01T09:11:07.866Z</time></trkpt><trkpt lat="44.24165314895188" lon="11.351968342914223"><ele>685.0</ele><time>2026-05-01T09:11:08.866Z</time></trkpt><trkpt lat="44.24156937087861" lon="11.351935586207812"><ele>685.0</ele><time>2026-05-01T09:11:09.866Z</time></trkpt><trkpt lat="44.24149829627468" lon="11.351868686770297"><ele>685.0</ele><time>2026-05-01T09:11:10.866Z</time></trkpt><trkpt lat="44.24143972743802" lon="11.351806053228287"><ele>685.0</ele><time>2026-05-01T09:11:11.866Z</time></trkpt><trkpt lat="44.241378661444315" lon="11.351764737973308"><ele>685.0</ele><time>2026-05-01T09:11:12.866Z</time></trkpt><trkpt lat="44.2412808639085" lon="11.351757864344941"><ele>685.0</ele><time>2026-05-01T09:11:13.866Z</time></trkpt><trkpt lat="44.24119517811317" lon="11.35176096128865"><ele>685.0</ele><time>2026-05-01T09:11:14.866Z</time></trkpt><trkpt lat="44.24109469657629" lon="11.351757374717936"><ele>684.8333333333334</ele><time>2026-05-01T09:11:15.865Z</time></trkpt><trkpt lat="44.24100015945254" lon="11.35176226691218"><ele>684.6666666666667</ele><time>2026-05-01T09:11:16.865Z</time></trkpt><trkpt lat="44.240900039387846" lon="11.351755191605339"><ele>684.5</ele><time>2026-05-01T09:11:18.865Z</time></trkpt><trkpt lat="44.2408311764597" lon="11.351769814611648"><ele>684.3333333333334</ele><time>2026-05-01T09:11:20.865Z</time></trkpt><trkpt lat="44.24076480372868" lon="11.351815287734992"><ele>684.1666666666666</ele><time>2026-05-01T09:11:36.864Z</time></trkpt><trkpt lat="44.24066011208962" lon="11.351824606351586"><ele>684.0</ele><time>2026-05-01T09:11:38.864Z</time></trkpt><trkpt lat="44.24059766132283" lon="11.351857340014604"><ele>680.6666666666666</ele><time>2026-05-01T09:11:39.864Z</time></trkpt><trkpt lat="44.2405006067962" lon="11.351824748731607"><ele>677.3333333333334</ele><time>2026-05-01T09:11:41.864Z</time></trkpt><trkpt lat="44.2404338268045" lon="11.3518020721592"><ele>674.0</ele><time>2026-05-01T09:11:43.864Z</time></trkpt><trkpt lat="44.240382976611436" lon="11.3517437478319"><ele>670.6666666666667</ele><time>2026-05-01T09:11:55.863Z</time></trkpt><trkpt lat="44.240318217786296" lon="11.351670918365189"><ele>667.3333333333334</ele><time>2026-05-01T09:11:57.863Z</time></trkpt><trkpt lat="44.240242869800625" lon="11.351602356420551"><ele>664.0</ele><time>2026-05-01T09:11:59.863Z</time></trkpt><trkpt lat="44.24017931812597" lon="11.351463213620544"><ele>665.0</ele><time>2026-05-01T09:12:01.863Z</time></trkpt><trkpt lat="44.2401625685605" lon="11.351364934615752"><ele>666.0</ele><time>2026-05-01T09:12:02.863Z</time></trkpt><trkpt lat="44.240153346070656" lon="11.351266030976387"><ele>667.0</ele><time>2026-05-01T09:12:03.863Z</time></trkpt><trkpt lat="44.24013906771653" lon="11.351097820040863"><ele>668.0</ele><time>2026-05-01T09:12:05.863Z</time></trkpt><trkpt lat="44.24012525791817" lon="11.350983608315804"><ele>669.0</ele><time>2026-05-01T09:12:07.863Z</time></trkpt><trkpt lat="44.24010222794701" lon="11.350876985763664"><ele>670.0</ele><time>2026-05-01T09:12:09.863Z</time></trkpt><trkpt lat="44.240042105702905" lon="11.350747493298009"><ele>670.0</ele><time>2026-05-01T09:12:11.863Z</time></trkpt><trkpt lat="44.23999909322453" lon="11.350652002093096"><ele>670.0</ele><time>2026-05-01T09:12:13.863Z</time></trkpt><trkpt lat="44.239971104157455" lon="11.350566184722785"><ele>670.0</ele><time>2026-05-01T09:12:15.863Z</time></trkpt><trkpt lat="44.23990630110311" lon="11.350437252874615"><ele>670.0</ele><time>2026-05-01T09:12:17.863Z</time></trkpt><trkpt lat="44.23986201431295" lon="11.350263199776021"><ele>670.0</ele><time>2026-05-01T09:12:19.863Z</time></trkpt><trkpt lat="44.23981808652617" lon="11.350193009800094"><ele>667.4285714285713</ele><time>2026-05-01T09:12:20.863Z</time></trkpt><trkpt lat="44.23979447943003" lon="11.350109531790874"><ele>664.8571428571429</ele><time>2026-05-01T09:12:21.863Z</time></trkpt><trkpt lat="44.23976409212965" lon="11.350027006717898"><ele>662.2857142857142</ele><time>2026-05-01T09:12:22.863Z</time></trkpt><trkpt lat="44.23972909147125" lon="11.349932216581642"><ele>659.7142857142857</ele><time>2026-05-01T09:12:23.863Z</time></trkpt><trkpt lat="44.239697613387015" lon="11.349850473568555"><ele>657.1428571428571</ele><time>2026-05-01T09:12:24.863Z</time></trkpt><trkpt lat="44.23966780575209" lon="11.34977241055632"><ele>654.5714285714286</ele><time>2026-05-01T09:12:25.863Z</time></trkpt><trkpt lat="44.23964346820943" lon="11.349636725347695"><ele>652.0</ele><time>2026-05-01T09:12:28.863Z</time></trkpt><trkpt lat="44.239614053619505" lon="11.349529023249996"><ele>652.0</ele><time>2026-05-01T09:12:30.863Z</time></trkpt><trkpt lat="44.239687956501584" lon="11.349418348683304"><ele>652.0</ele><time>2026-05-01T09:12:33.863Z</time></trkpt><trkpt lat="44.239629427521905" lon="11.349488311301421"><ele>652.0</ele><time>2026-05-01T09:12:49.862Z</time></trkpt><trkpt lat="44.23961792726306" lon="11.349615842556897"><ele>652.0</ele><time>2026-05-01T09:12:52.862Z</time></trkpt><trkpt lat="44.239647356299514" lon="11.34972048246401"><ele>652.0</ele><time>2026-05-01T09:12:54.862Z</time></trkpt><trkpt lat="44.23969604035487" lon="11.349809643804411"><ele>652.0</ele><time>2026-05-01T09:12:56.862Z</time></trkpt><trkpt lat="44.23974018379985" lon="11.349926588414053"><ele>650.4000000000001</ele><time>2026-05-01T09:12:58.862Z</time></trkpt><trkpt lat="44.23978319785185" lon="11.350045109188335"><ele>648.8000000000001</ele><time>2026-05-01T09:13:00.862Z</time></trkpt><trkpt lat="44.23981493892682" lon="11.350132568410837"><ele>647.2</ele><time>2026-05-01T09:13:01.862Z</time></trkpt><trkpt lat="44.23985874795207" lon="11.350254154896765"><ele>645.6</ele><time>2026-05-01T09:13:03.862Z</time></trkpt><trkpt lat="44.23989056169684" lon="11.350389562501654"><ele>644.0</ele><time>2026-05-01T09:13:05.862Z</time></trkpt><trkpt lat="44.23993380355995" lon="11.35049891156956"><ele>649.2</ele><time>2026-05-01T09:13:07.862Z</time></trkpt><trkpt lat="44.23997230347188" lon="11.350619654049467"><ele>654.4000000000001</ele><time>2026-05-01T09:13:09.862Z</time></trkpt><trkpt lat="44.24003288802092" lon="11.350770951093528"><ele>659.6</ele><time>2026-05-01T09:13:11.862Z</time></trkpt><trkpt lat="44.240081821560885" lon="11.350910695384668"><ele>664.8</ele><time>2026-05-01T09:13:13.862Z</time></trkpt><trkpt lat="44.24016002607932" lon="11.350944562081159"><ele>670.0</ele><time>2026-05-01T09:13:15.862Z</time></trkpt><trkpt lat="44.24008424859364" lon="11.351179269734017"><ele>670.0</ele><time>2026-05-01T09:13:16.862Z</time></trkpt><trkpt lat="44.24009800826869" lon="11.351290114561628"><ele>670.0</ele><time>2026-05-01T09:13:17.862Z</time></trkpt><trkpt lat="44.240127627005265" lon="11.351434021380426"><ele>670.0</ele><time>2026-05-01T09:13:19.862Z</time></trkpt><trkpt lat="44.24017552417589" lon="11.35150777718478"><ele>670.0</ele><time>2026-05-01T09:13:21.861Z</time></trkpt><trkpt lat="44.240239582774336" lon="11.351581032785676"><ele>670.0</ele><time>2026-05-01T09:13:23.86Z</time></trkpt><trkpt lat="44.24031422750052" lon="11.351658515230888"><ele>670.0</ele><time>2026-05-01T09:13:25.86Z</time></trkpt><trkpt lat="44.24041773743837" lon="11.35170813457629"><ele>669.1428571428571</ele><time>2026-05-01T09:13:27.86Z</time></trkpt><trkpt lat="44.2405195218855" lon="11.351724613044244"><ele>668.2857142857142</ele><time>2026-05-01T09:13:29.86Z</time></trkpt><trkpt lat="44.24058857132325" lon="11.351734332231095"><ele>667.4285714285713</ele><time>2026-05-01T09:13:30.86Z</time></trkpt><trkpt lat="44.24065905781072" lon="11.351720563593195"><ele>666.5714285714286</ele><time>2026-05-01T09:13:31.86Z</time></trkpt><trkpt lat="44.24072456539154" lon="11.35172108873524"><ele>665.7142857142858</ele><time>2026-05-01T09:13:32.86Z</time></trkpt><trkpt lat="44.24079460960019" lon="11.35171629514849"><ele>664.8571428571428</ele><time>2026-05-01T09:13:33.86Z</time></trkpt><trkpt lat="44.24086129236795" lon="11.351726737181862"><ele>664.0</ele><time>2026-05-01T09:13:34.86Z</time></trkpt><trkpt lat="44.24093446641784" lon="11.351720436666955"><ele>668.0</ele><time>2026-05-01T09:13:35.86Z</time></trkpt><trkpt lat="44.24106267054681" lon="11.351733013593831"><ele>672.0</ele><time>2026-05-01T09:13:37.86Z</time></trkpt><trkpt lat="44.24115894879257" lon="11.351747322601843"><ele>676.0</ele><time>2026-05-01T09:13:39.86Z</time></trkpt><trkpt lat="44.241260945172435" lon="11.351781827077781"><ele>680.0</ele><time>2026-05-01T09:13:41.86Z</time></trkpt><trkpt lat="44.24131870566759" lon="11.351831728243605"><ele>684.0</ele><time>2026-05-01T09:13:42.86Z</time></trkpt><trkpt lat="44.24138205761662" lon="11.351872721333443"><ele>684.2</ele><time>2026-05-01T09:13:43.86Z</time></trkpt><trkpt lat="44.241484527010954" lon="11.351928787556075"><ele>684.4000000000001</ele><time>2026-05-01T09:13:45.86Z</time></trkpt><trkpt lat="44.24158336759646" lon="11.351983696189247"><ele>684.6</ele><time>2026-05-01T09:13:47.86Z</time></trkpt><trkpt lat="44.24167202679766" lon="11.352018455541186"><ele>684.8</ele><time>2026-05-01T09:13:49.86Z</time></trkpt><trkpt lat="44.24173813936429" lon="11.352042360046967"><ele>685.0</ele><time>2026-05-01T09:13:51.86Z</time></trkpt><trkpt lat="44.24168852854762" lon="11.352133443357333"><ele>685.0</ele><time>2026-05-01T09:13:55.86Z</time></trkpt><trkpt lat="44.24157336422428" lon="11.352177862170954"><ele>685.0</ele><time>2026-05-01T09:13:57.86Z</time></trkpt><trkpt lat="44.24148931613736" lon="11.352220661994538"><ele>685.0</ele><time>2026-05-01T09:13:58.86Z</time></trkpt><trkpt lat="44.24140388798697" lon="11.352259526710991"><ele>685.0</ele><time>2026-05-01T09:13:59.86Z</time></trkpt><trkpt lat="44.24131966301727" lon="11.352319030526303"><ele>685.0</ele><time>2026-05-01T09:14:00.86Z</time></trkpt><trkpt lat="44.24124614403403" lon="11.352412042129378"><ele>678.25</ele><time>2026-05-01T09:14:01.86Z</time></trkpt><trkpt lat="44.241185215875" lon="11.352526575031986"><ele>671.5</ele><time>2026-05-01T09:14:02.86Z</time></trkpt><trkpt lat="44.24112288243797" lon="11.352657810161931"><ele>664.75</ele><time>2026-05-01T09:14:03.86Z</time></trkpt><trkpt lat="44.24106140486606" lon="11.352801493759818"><ele>658.0</ele><time>2026-05-01T09:14:04.86Z</time></trkpt><trkpt lat="44.2409926580756" lon="11.352939062823525"><ele>654.75</ele><time>2026-05-01T09:14:05.86Z</time></trkpt><trkpt lat="44.24092402977948" lon="11.353078073648655"><ele>651.5</ele><time>2026-05-01T09:14:06.86Z</time></trkpt><trkpt lat="44.24087042925021" lon="11.353233563858321"><ele>648.25</ele><time>2026-05-01T09:14:07.86Z</time></trkpt><trkpt lat="44.24082584952245" lon="11.353405485534307"><ele>645.0</ele><time>2026-05-01T09:14:08.86Z</time></trkpt><trkpt lat="44.24078082951506" lon="11.353581775235627"><ele>645.0</ele><time>2026-05-01T09:14:09.86Z</time></trkpt><trkpt lat="44.24073589327181" lon="11.353750550368655"><ele>645.0</ele><time>2026-05-01T09:14:10.86Z</time></trkpt><trkpt lat="44.24069546889801" lon="11.353912648184611"><ele>645.0</ele><time>2026-05-01T09:14:11.86Z</time></trkpt><trkpt lat="44.240667903659485" lon="11.354084793940896"><ele>645.0</ele><time>2026-05-01T09:14:12.86Z</time></trkpt><trkpt lat="44.240656825895954" lon="11.354268318329611"><ele>641.4</ele><time>2026-05-01T09:14:13.86Z</time></trkpt><trkpt lat="44.24065040503554" lon="11.354436190354583"><ele>637.8</ele><time>2026-05-01T09:14:14.859Z</time></trkpt><trkpt lat="44.240647076769115" lon="11.354593479188292"><ele>634.2</ele><time>2026-05-01T09:14:15.859Z</time></trkpt><trkpt lat="44.24064241893029" lon="11.354722771905491"><ele>630.6</ele><time>2026-05-01T09:14:16.859Z</time></trkpt><trkpt lat="44.2406291624875" lon="11.354832188515827"><ele>627.0</ele><time>2026-05-01T09:14:17.859Z</time></trkpt><trkpt lat="44.240607011619836" lon="11.35491723601684"><ele>625.0</ele><time>2026-05-01T09:14:18.859Z</time></trkpt><trkpt lat="44.24055652859803" lon="11.355000673147732"><ele>623.0</ele><time>2026-05-01T09:14:19.859Z</time></trkpt><trkpt lat="44.24047748510238" lon="11.355078940962498"><ele>621.0</ele><time>2026-05-01T09:14:20.859Z</time></trkpt><trkpt lat="44.24039329779261" lon="11.3551357276896"><ele>619.0</ele><time>2026-05-01T09:14:21.859Z</time></trkpt><trkpt lat="44.24030474990977" lon="11.355206767851918"><ele>617.0</ele><time>2026-05-01T09:14:22.859Z</time></trkpt><trkpt lat="44.240234170609526" lon="11.35528813050122"><ele>617.0</ele><time>2026-05-01T09:14:23.859Z</time></trkpt><trkpt lat="44.24019205486713" lon="11.355354768330294"><ele>617.0</ele><time>2026-05-01T09:14:24.859Z</time></trkpt><trkpt lat="44.240071975847016" lon="11.355424886658646"><ele>617.0</ele><time>2026-05-01T09:14:26.859Z</time></trkpt><trkpt lat="44.239989361063294" lon="11.355372131368648"><ele>617.0</ele><time>2026-05-01T09:14:27.859Z</time></trkpt><trkpt lat="44.239921097878614" lon="11.355305024582693"><ele>617.0</ele><time>2026-05-01T09:14:28.859Z</time></trkpt><trkpt lat="44.23986531877893" lon="11.355222758086372"><ele>617.0</ele><time>2026-05-01T09:14:29.859Z</time></trkpt><trkpt lat="44.23979261413098" lon="11.355175075555547"><ele>613.5</ele><time>2026-05-01T09:14:30.859Z</time></trkpt><trkpt lat="44.23972190461362" lon="11.355159971187577"><ele>610.0</ele><time>2026-05-01T09:14:31.859Z</time></trkpt><trkpt lat="44.2396516854609" lon="11.355174464633158"><ele>606.5</ele><time>2026-05-01T09:14:32.859Z</time></trkpt><trkpt lat="44.23958035465199" lon="11.355227994902107"><ele>603.0</ele><time>2026-05-01T09:14:33.859Z</time></trkpt><trkpt lat="44.23950793717471" lon="11.355299906781546"><ele>599.5</ele><time>2026-05-01T09:14:34.859Z</time></trkpt><trkpt lat="44.239465891747436" lon="11.355394713102458"><ele>596.0</ele><time>2026-05-01T09:14:35.859Z</time></trkpt><trkpt lat="44.23942285706686" lon="11.355493052801492"><ele>595.6666666666666</ele><time>2026-05-01T09:14:36.859Z</time></trkpt><trkpt lat="44.23936888493041" lon="11.355594654369987"><ele>595.3333333333333</ele><time>2026-05-01T09:14:37.859Z</time></trkpt><trkpt lat="44.2393158225519" lon="11.355668449630734"><ele>595.0</ele><time>2026-05-01T09:14:38.859Z</time></trkpt><trkpt lat="44.23926143266428" lon="11.355723606454013"><ele>594.6666666666666</ele><time>2026-05-01T09:14:39.859Z</time></trkpt><trkpt lat="44.239172967922485" lon="11.355786608664312"><ele>594.3333333333334</ele><time>2026-05-01T09:14:40.859Z</time></trkpt><trkpt lat="44.23908473489336" lon="11.355854264582039"><ele>594.0</ele><time>2026-05-01T09:14:41.859Z</time></trkpt><trkpt lat="44.23899900560241" lon="11.355957205637669"><ele>592.5</ele><time>2026-05-01T09:14:42.859Z</time></trkpt><trkpt lat="44.23892436389011" lon="11.356059891074997"><ele>591.0</ele><time>2026-05-01T09:14:43.859Z</time></trkpt><trkpt lat="44.23884099254023" lon="11.35613936011395"><ele>589.5</ele><time>2026-05-01T09:14:44.859Z</time></trkpt><trkpt lat="44.238785970124226" lon="11.356242400889371"><ele>588.0</ele><time>2026-05-01T09:14:45.859Z</time></trkpt><trkpt lat="44.2387169797521" lon="11.356305260509496"><ele>586.5</ele><time>2026-05-01T09:14:46.859Z</time></trkpt><trkpt lat="44.23866137438465" lon="11.35636192526072"><ele>585.0</ele><time>2026-05-01T09:14:47.859Z</time></trkpt><trkpt lat="44.23860074667067" lon="11.35642560185653"><ele>585.0</ele><time>2026-05-01T09:14:49.859Z</time></trkpt><trkpt lat="44.23857142788853" lon="11.356503709492758"><ele>585.0</ele><time>2026-05-01T09:14:51.859Z</time></trkpt><trkpt lat="44.23848802410186" lon="11.356622493708473"><ele>585.0</ele><time>2026-05-01T09:14:53.859Z</time></trkpt><trkpt lat="44.23847383361982" lon="11.356737176076104"><ele>585.0</ele><time>2026-05-01T09:14:54.859Z</time></trkpt><trkpt lat="44.23841917501693" lon="11.356810604135086"><ele>585.0</ele><time>2026-05-01T09:14:55.859Z</time></trkpt><trkpt lat="44.2383558786598" lon="11.356879735025478"><ele>585.0</ele><time>2026-05-01T09:14:56.859Z</time></trkpt><trkpt lat="44.238280745865076" lon="11.356941656906915"><ele>585.0</ele><time>2026-05-01T09:14:57.859Z</time></trkpt><trkpt lat="44.23820305366357" lon="11.35700358232789"><ele>585.0</ele><time>2026-05-01T09:14:58.859Z</time></trkpt><trkpt lat="44.23811231350474" lon="11.357072071554558"><ele>585.0</ele><time>2026-05-01T09:14:59.859Z</time></trkpt><trkpt lat="44.23802061288662" lon="11.357137528085735"><ele>585.0</ele><time>2026-05-01T09:15:00.858Z</time></trkpt><trkpt lat="44.237933760286374" lon="11.357193479497312"><ele>585.0</ele><time>2026-05-01T09:15:01.858Z</time></trkpt><trkpt lat="44.23784882642375" lon="11.357240538279846"><ele>583.3333333333334</ele><time>2026-05-01T09:15:02.858Z</time></trkpt><trkpt lat="44.23775498551334" lon="11.35727075276056"><ele>581.6666666666666</ele><time>2026-05-01T09:15:03.858Z</time></trkpt><trkpt lat="44.237659692795305" lon="11.357285144808136"><ele>580.0</ele><time>2026-05-01T09:15:04.858Z</time></trkpt><trkpt lat="44.237570509460454" lon="11.357296874362097"><ele>578.3333333333333</ele><time>2026-05-01T09:15:05.858Z</time></trkpt><trkpt lat="44.23749086691213" lon="11.357341055346502"><ele>576.6666666666666</ele><time>2026-05-01T09:15:06.858Z</time></trkpt><trkpt lat="44.237429324037905" lon="11.357400044309006"><ele>575.0</ele><time>2026-05-01T09:15:07.858Z</time></trkpt><trkpt lat="44.23732298639444" lon="11.357474714005106"><ele>573.0</ele><time>2026-05-01T09:15:09.858Z</time></trkpt><trkpt lat="44.23725025043043" lon="11.357455351518572"><ele>571.0</ele><time>2026-05-01T09:15:10.858Z</time></trkpt><trkpt lat="44.23717417442638" lon="11.357421138791203"><ele>569.0</ele><time>2026-05-01T09:15:11.858Z</time></trkpt><trkpt lat="44.23711040536767" lon="11.357338320846898"><ele>567.0</ele><time>2026-05-01T09:15:12.858Z</time></trkpt><trkpt lat="44.237055969402185" lon="11.357251071345114"><ele>565.0</ele><time>2026-05-01T09:15:13.858Z</time></trkpt><trkpt lat="44.237015972065315" lon="11.357168268098281"><ele>563.0</ele><time>2026-05-01T09:15:14.858Z</time></trkpt><trkpt lat="44.23691199867866" lon="11.357129105935236"><ele>563.0</ele><time>2026-05-01T09:15:16.858Z</time></trkpt><trkpt lat="44.2368356586703" lon="11.35714833181098"><ele>563.0</ele><time>2026-05-01T09:15:17.858Z</time></trkpt><trkpt lat="44.23676265304219" lon="11.357193214944756"><ele>563.0</ele><time>2026-05-01T09:15:18.858Z</time></trkpt><trkpt lat="44.23672511397272" lon="11.3572944861918"><ele>563.0</ele><time>2026-05-01T09:15:19.858Z</time></trkpt><trkpt lat="44.236726415694136" lon="11.357422725444948"><ele>563.0</ele><time>2026-05-01T09:15:20.858Z</time></trkpt><trkpt lat="44.23673544556792" lon="11.35755335735469"><ele>563.0</ele><time>2026-05-01T09:15:21.858Z</time></trkpt><trkpt lat="44.236750707725705" lon="11.35769772224759"><ele>563.0</ele><time>2026-05-01T09:15:22.858Z</time></trkpt><trkpt lat="44.23674814344109" lon="11.357841906324204"><ele>563.0</ele><time>2026-05-01T09:15:23.858Z</time></trkpt><trkpt lat="44.236713483231995" lon="11.357981553674238"><ele>563.0</ele><time>2026-05-01T09:15:24.858Z</time></trkpt><trkpt lat="44.23667872529163" lon="11.358110002477503"><ele>563.0</ele><time>2026-05-01T09:15:25.858Z</time></trkpt><trkpt lat="44.236658586912675" lon="11.35825975675786"><ele>563.0</ele><time>2026-05-01T09:15:26.858Z</time></trkpt><trkpt lat="44.236669674064665" lon="11.358407482962948"><ele>562.0</ele><time>2026-05-01T09:15:27.856Z</time></trkpt><trkpt lat="44.23670786272146" lon="11.358546844230828"><ele>561.0</ele><time>2026-05-01T09:15:28.856Z</time></trkpt><trkpt lat="44.23677716773169" lon="11.358665460713375"><ele>560.0</ele><time>2026-05-01T09:15:29.856Z</time></trkpt><trkpt lat="44.23685524213533" lon="11.358784190409105"><ele>559.0</ele><time>2026-05-01T09:15:30.856Z</time></trkpt><trkpt lat="44.23693285399929" lon="11.358899818617658"><ele>558.0</ele><time>2026-05-01T09:15:31.856Z</time></trkpt><trkpt lat="44.23700485873307" lon="11.359021730475378"><ele>555.6</ele><time>2026-05-01T09:15:32.856Z</time></trkpt><trkpt lat="44.2370853468995" lon="11.359115127089996"><ele>553.1999999999999</ele><time>2026-05-01T09:15:33.856Z</time></trkpt><trkpt lat="44.23717284817506" lon="11.359195525852336"><ele>550.8</ele><time>2026-05-01T09:15:34.855Z</time></trkpt><trkpt lat="44.23726887168977" lon="11.359262490987119"><ele>548.4</ele><time>2026-05-01T09:15:35.855Z</time></trkpt><trkpt lat="44.237370019863306" lon="11.359318547197443"><ele>546.0</ele><time>2026-05-01T09:15:36.856Z</time></trkpt><trkpt lat="44.23746883533042" lon="11.359369691513658"><ele>546.0</ele><time>2026-05-01T09:15:37.855Z</time></trkpt><trkpt lat="44.23756754978661" lon="11.359416241495378"><ele>546.0</ele><time>2026-05-01T09:15:38.855Z</time></trkpt><trkpt lat="44.23766558644907" lon="11.35945050382509"><ele>546.0</ele><time>2026-05-01T09:15:39.855Z</time></trkpt><trkpt lat="44.23774735780709" lon="11.359497735459112"><ele>546.0</ele><time>2026-05-01T09:15:40.856Z</time></trkpt><trkpt lat="44.237807687186766" lon="11.359532556127004"><ele>546.0</ele><time>2026-05-01T09:15:41.856Z</time></trkpt><trkpt lat="44.23785446928556" lon="11.359591770005702"><ele>546.0</ele><time>2026-05-01T09:15:43.856Z</time></trkpt><trkpt lat="44.237781620786016" lon="11.35968010125961"><ele>546.0</ele><time>2026-05-01T09:15:46.856Z</time></trkpt><trkpt lat="44.2376917273928" lon="11.359627823027823"><ele>546.0</ele><time>2026-05-01T09:15:47.856Z</time></trkpt><trkpt lat="44.237620718436816" lon="11.359579335271127"><ele>546.0</ele><time>2026-05-01T09:15:48.856Z</time></trkpt><trkpt lat="44.23754779874283" lon="11.359561137540105"><ele>546.0</ele><time>2026-05-01T09:15:49.856Z</time></trkpt><trkpt lat="44.23745288285019" lon="11.3595560154532"><ele>546.0</ele><time>2026-05-01T09:15:50.856Z</time></trkpt><trkpt lat="44.23735192812809" lon="11.359579882007159"><ele>546.0</ele><time>2026-05-01T09:15:51.856Z</time></trkpt><trkpt lat="44.23725856191145" lon="11.35960968415739"><ele>545.5</ele><time>2026-05-01T09:15:52.856Z</time></trkpt><trkpt lat="44.23716990239656" lon="11.359654272068525"><ele>545.0</ele><time>2026-05-01T09:15:53.856Z</time></trkpt><trkpt lat="44.23709135539945" lon="11.359709066411765"><ele>544.5</ele><time>2026-05-01T09:15:54.856Z</time></trkpt><trkpt lat="44.237019547779035" lon="11.359772639181513"><ele>544.0</ele><time>2026-05-01T09:15:55.856Z</time></trkpt><trkpt lat="44.23695626111185" lon="11.359840877009288"><ele>543.5</ele><time>2026-05-01T09:15:56.855Z</time></trkpt><trkpt lat="44.23689199637282" lon="11.35990540146491"><ele>543.0</ele><time>2026-05-01T09:15:57.855Z</time></trkpt><trkpt lat="44.236821729297546" lon="11.359946504290821"><ele>543.0</ele><time>2026-05-01T09:15:58.855Z</time></trkpt><trkpt lat="44.236753241896594" lon="11.359964277449302"><ele>543.0</ele><time>2026-05-01T09:15:59.855Z</time></trkpt><trkpt lat="44.23668098755781" lon="11.359937298923514"><ele>543.0</ele><time>2026-05-01T09:16:00.855Z</time></trkpt><trkpt lat="44.23662148217529" lon="11.359882630307037"><ele>543.0</ele><time>2026-05-01T09:16:01.855Z</time></trkpt><trkpt lat="44.23657093752743" lon="11.35979481138251"><ele>543.0</ele><time>2026-05-01T09:16:02.855Z</time></trkpt><trkpt lat="44.236533645986704" lon="11.359692169159633"><ele>543.0</ele><time>2026-05-01T09:16:03.855Z</time></trkpt><trkpt lat="44.23650050076725" lon="11.359604709283365"><ele>539.3333333333334</ele><time>2026-05-01T09:16:04.855Z</time></trkpt><trkpt lat="44.236450131655225" lon="11.359524157511085"><ele>535.6666666666666</ele><time>2026-05-01T09:16:05.855Z</time></trkpt><trkpt lat="44.23639036488969" lon="11.359464434341925"><ele>532.0</ele><time>2026-05-01T09:16:06.855Z</time></trkpt><trkpt lat="44.236321065593856" lon="11.359424684004262"><ele>528.3333333333333</ele><time>2026-05-01T09:16:07.855Z</time></trkpt><trkpt lat="44.236239856816105" lon="11.359391888164687"><ele>524.6666666666666</ele><time>2026-05-01T09:16:08.855Z</time></trkpt><trkpt lat="44.236154343739365" lon="11.359364485725186"><ele>521.0</ele><time>2026-05-01T09:16:09.855Z</time></trkpt><trkpt lat="44.236059911831596" lon="11.359340666489453"><ele>521.0</ele><time>2026-05-01T09:16:10.855Z</time></trkpt><trkpt lat="44.23596284516972" lon="11.359318540621436"><ele>521.0</ele><time>2026-05-01T09:16:11.855Z</time></trkpt><trkpt lat="44.23585881192428" lon="11.359306289495615"><ele>521.0</ele><time>2026-05-01T09:16:12.855Z</time></trkpt><trkpt lat="44.23574913415924" lon="11.35930338824267"><ele>521.0</ele><time>2026-05-01T09:16:13.855Z</time></trkpt><trkpt lat="44.23564703325833" lon="11.359317794103495"><ele>521.0</ele><time>2026-05-01T09:16:14.855Z</time></trkpt><trkpt lat="44.23555735244521" lon="11.359342477612842"><ele>516.0</ele><time>2026-05-01T09:16:15.855Z</time></trkpt><trkpt lat="44.23547971718008" lon="11.359370824270304"><ele>511.0</ele><time>2026-05-01T09:16:16.855Z</time></trkpt><trkpt lat="44.235406662171705" lon="11.35937774071143"><ele>506.0</ele><time>2026-05-01T09:16:17.855Z</time></trkpt><trkpt lat="44.23532538127397" lon="11.359353418129242"><ele>501.0</ele><time>2026-05-01T09:16:18.855Z</time></trkpt><trkpt lat="44.23524054671383" lon="11.359264016562921"><ele>496.0</ele><time>2026-05-01T09:16:19.855Z</time></trkpt><trkpt lat="44.2351552363381" lon="11.359162348733136"><ele>496.0</ele><time>2026-05-01T09:16:20.855Z</time></trkpt><trkpt lat="44.235079135211706" lon="11.359073187179707"><ele>496.0</ele><time>2026-05-01T09:16:21.855Z</time></trkpt><trkpt lat="44.23499077463525" lon="11.358999921153991"><ele>496.0</ele><time>2026-05-01T09:16:22.855Z</time></trkpt><trkpt lat="44.23490936773163" lon="11.358937411179253"><ele>496.0</ele><time>2026-05-01T09:16:23.855Z</time></trkpt><trkpt lat="44.23485394714087" lon="11.358850471223928"><ele>496.0</ele><time>2026-05-01T09:16:24.855Z</time></trkpt><trkpt lat="44.234794078176684" lon="11.358743726349052"><ele>491.5</ele><time>2026-05-01T09:16:25.855Z</time></trkpt><trkpt lat="44.234743521843704" lon="11.358583597838459"><ele>487.0</ele><time>2026-05-01T09:16:26.855Z</time></trkpt><trkpt lat="44.234697534694824" lon="11.358421016876276"><ele>482.5</ele><time>2026-05-01T09:16:27.855Z</time></trkpt><trkpt lat="44.23464470432867" lon="11.358231896298589"><ele>478.0</ele><time>2026-05-01T09:16:28.855Z</time></trkpt><trkpt lat="44.234588792350195" lon="11.35803507213997"><ele>477.75</ele><time>2026-05-01T09:16:29.855Z</time></trkpt><trkpt lat="44.234539023416986" lon="11.357846343341235"><ele>477.5</ele><time>2026-05-01T09:16:30.855Z</time></trkpt><trkpt lat="44.23449036500434" lon="11.357668392884262"><ele>477.25</ele><time>2026-05-01T09:16:31.855Z</time></trkpt><trkpt lat="44.234453361248164" lon="11.357516257979489"><ele>477.0</ele><time>2026-05-01T09:16:32.855Z</time></trkpt><trkpt lat="44.23440774483866" lon="11.357375010342125"><ele>477.0</ele><time>2026-05-01T09:16:33.855Z</time></trkpt><trkpt lat="44.23435576968038" lon="11.357239124437925"><ele>477.0</ele><time>2026-05-01T09:16:34.855Z</time></trkpt><trkpt lat="44.234306655209224" lon="11.357123083749418"><ele>477.0</ele><time>2026-05-01T09:16:35.855Z</time></trkpt><trkpt lat="44.2342520353726" lon="11.357043268594884"><ele>477.0</ele><time>2026-05-01T09:16:36.855Z</time></trkpt><trkpt lat="44.23419061272319" lon="11.356979199955953"><ele>477.0</ele><time>2026-05-01T09:16:37.855Z</time></trkpt><trkpt lat="44.23411246027337" lon="11.356955039597182"><ele>477.0</ele><time>2026-05-01T09:16:38.855Z</time></trkpt><trkpt lat="44.234028984561185" lon="11.3569553918109"><ele>474.1666666666667</ele><time>2026-05-01T09:16:39.855Z</time></trkpt><trkpt lat="44.233952191873364" lon="11.356990521010385"><ele>471.33333333333337</ele><time>2026-05-01T09:16:40.855Z</time></trkpt><trkpt lat="44.23387276555526" lon="11.357033004874143"><ele>468.5</ele><time>2026-05-01T09:16:41.855Z</time></trkpt><trkpt lat="44.233797788598594" lon="11.357071424804692"><ele>465.6666666666667</ele><time>2026-05-01T09:16:42.854Z</time></trkpt><trkpt lat="44.23374270370813" lon="11.357135588938283"><ele>462.83333333333337</ele><time>2026-05-01T09:16:43.854Z</time></trkpt><trkpt lat="44.23369715243634" lon="11.357298554791276"><ele>460.0</ele><time>2026-05-01T09:16:45.854Z</time></trkpt><trkpt lat="44.233729939652655" lon="11.357378428347896"><ele>458.83333333333337</ele><time>2026-05-01T09:16:46.854Z</time></trkpt><trkpt lat="44.23376476538996" lon="11.357455231494448"><ele>457.6666666666667</ele><time>2026-05-01T09:16:47.854Z</time></trkpt><trkpt lat="44.23379039381877" lon="11.357535989450549"><ele>456.5</ele><time>2026-05-01T09:16:48.854Z</time></trkpt><trkpt lat="44.23381480851434" lon="11.357698388510164"><ele>455.33333333333337</ele><time>2026-05-01T09:16:50.854Z</time></trkpt><trkpt lat="44.233777841641775" lon="11.357793140924949"><ele>454.1666666666667</ele><time>2026-05-01T09:16:51.854Z</time></trkpt><trkpt lat="44.233728470168586" lon="11.357903693764657"><ele>453.0</ele><time>2026-05-01T09:16:52.854Z</time></trkpt><trkpt lat="44.23372517167907" lon="11.358058336931466"><ele>450.75</ele><time>2026-05-01T09:16:53.854Z</time></trkpt><trkpt lat="44.233699801939174" lon="11.358202362892268"><ele>448.5</ele><time>2026-05-01T09:16:54.854Z</time></trkpt><trkpt lat="44.23368922036704" lon="11.358351742833062"><ele>446.25</ele><time>2026-05-01T09:16:55.854Z</time></trkpt><trkpt lat="44.23368297686333" lon="11.358518186978493"><ele>444.0</ele><time>2026-05-01T09:16:56.854Z</time></trkpt><trkpt lat="44.23367550297519" lon="11.358685576824758"><ele>444.0</ele><time>2026-05-01T09:16:57.854Z</time></trkpt><trkpt lat="44.23367005218906" lon="11.358848029967094"><ele>444.0</ele><time>2026-05-01T09:16:58.854Z</time></trkpt><trkpt lat="44.233671985670924" lon="11.359020839617317"><ele>444.0</ele><time>2026-05-01T09:16:59.854Z</time></trkpt><trkpt lat="44.23367657874243" lon="11.35917659640162"><ele>444.0</ele><time>2026-05-01T09:17:00.854Z</time></trkpt><trkpt lat="44.23368806766518" lon="11.3593356595928"><ele>442.0</ele><time>2026-05-01T09:17:01.854Z</time></trkpt><trkpt lat="44.23369010299705" lon="11.359469993010427"><ele>440.0</ele><time>2026-05-01T09:17:02.854Z</time></trkpt><trkpt lat="44.23370541202305" lon="11.3595714437303"><ele>438.0</ele><time>2026-05-01T09:17:03.854Z</time></trkpt><trkpt lat="44.23375634978201" lon="11.359757714530502"><ele>436.0</ele><time>2026-05-01T09:17:05.854Z</time></trkpt><trkpt lat="44.23383997684827" lon="11.359847346555862"><ele>434.0</ele><time>2026-05-01T09:17:06.854Z</time></trkpt><trkpt lat="44.23393562405732" lon="11.35993636910415"><ele>438.0</ele><time>2026-05-01T09:17:07.854Z</time></trkpt><trkpt lat="44.23404205754464" lon="11.360019452899895"><ele>442.0</ele><time>2026-05-01T09:17:08.854Z</time></trkpt><trkpt lat="44.2341310967376" lon="11.360115169883764"><ele>446.0</ele><time>2026-05-01T09:17:09.854Z</time></trkpt><trkpt lat="44.234228506235695" lon="11.360242824751374"><ele>450.0</ele><time>2026-05-01T09:17:10.854Z</time></trkpt><trkpt lat="44.23432753602766" lon="11.360391184644355"><ele>444.25</ele><time>2026-05-01T09:17:11.854Z</time></trkpt><trkpt lat="44.234435021377635" lon="11.3605586776134"><ele>438.5</ele><time>2026-05-01T09:17:12.854Z</time></trkpt><trkpt lat="44.23452645264858" lon="11.36070020760781"><ele>432.75</ele><time>2026-05-01T09:17:13.854Z</time></trkpt><trkpt lat="44.234607231551834" lon="11.36083344403526"><ele>427.0</ele><time>2026-05-01T09:17:14.854Z</time></trkpt><trkpt lat="44.23469114340392" lon="11.360941957172031"><ele>427.0</ele><time>2026-05-01T09:17:15.854Z</time></trkpt><trkpt lat="44.234774050341876" lon="11.361055071101754"><ele>427.0</ele><time>2026-05-01T09:17:16.854Z</time></trkpt><trkpt lat="44.23487333647239" lon="11.361156941124"><ele>427.0</ele><time>2026-05-01T09:17:17.854Z</time></trkpt><trkpt lat="44.23496456357726" lon="11.361257953648115"><ele>427.0</ele><time>2026-05-01T09:17:18.854Z</time></trkpt><trkpt lat="44.23504703601733" lon="11.361361523680833"><ele>426.40000000000003</ele><time>2026-05-01T09:17:19.854Z</time></trkpt><trkpt lat="44.235106606711796" lon="11.361478791450576"><ele>425.80000000000007</ele><time>2026-05-01T09:17:20.854Z</time></trkpt><trkpt lat="44.23516476544525" lon="11.361619843278621"><ele>425.2</ele><time>2026-05-01T09:17:21.854Z</time></trkpt><trkpt lat="44.23520932650078" lon="11.361747240220216"><ele>424.6</ele><time>2026-05-01T09:17:22.854Z</time></trkpt><trkpt lat="44.23523780278717" lon="11.361858704396536"><ele>424.0</ele><time>2026-05-01T09:17:23.854Z</time></trkpt><trkpt lat="44.235280163480034" lon="11.361955447917202"><ele>424.0</ele><time>2026-05-01T09:17:24.854Z</time></trkpt><trkpt lat="44.23534514050162" lon="11.362035093680378"><ele>424.0</ele><time>2026-05-01T09:17:25.854Z</time></trkpt><trkpt lat="44.23542816698866" lon="11.362112512096868"><ele>424.0</ele><time>2026-05-01T09:17:26.854Z</time></trkpt><trkpt lat="44.235528907012736" lon="11.362188949634794"><ele>424.0</ele><time>2026-05-01T09:17:27.854Z</time></trkpt><trkpt lat="44.23563011001045" lon="11.36225255083004"><ele>424.0</ele><time>2026-05-01T09:17:28.853Z</time></trkpt><trkpt lat="44.235708977410916" lon="11.362311974069456"><ele>424.00000000000006</ele><time>2026-05-01T09:17:29.853Z</time></trkpt><trkpt lat="44.235764687034006" lon="11.362384371961463"><ele>424.0</ele><time>2026-05-01T09:17:30.853Z</time></trkpt><trkpt lat="44.23579707630098" lon="11.362465051920266"><ele>424.0</ele><time>2026-05-01T09:17:31.853Z</time></trkpt><trkpt lat="44.23580542162466" lon="11.362562831975563"><ele>424.0</ele><time>2026-05-01T09:17:32.852Z</time></trkpt><trkpt lat="44.235788508643815" lon="11.362656928108652"><ele>424.00000000000006</ele><time>2026-05-01T09:17:33.851Z</time></trkpt><trkpt lat="44.2357535545714" lon="11.362820206493494"><ele>424.0</ele><time>2026-05-01T09:17:35.851Z</time></trkpt><trkpt lat="44.23583422283873" lon="11.362939731637569"><ele>424.00000000000006</ele><time>2026-05-01T09:17:37.851Z</time></trkpt><trkpt lat="44.23588812316734" lon="11.363008712679695"><ele>424.0</ele><time>2026-05-01T09:17:38.851Z</time></trkpt><trkpt lat="44.235951603900354" lon="11.363056735135357"><ele>424.0</ele><time>2026-05-01T09:17:39.852Z</time></trkpt><trkpt lat="44.236016371994296" lon="11.363104396828707"><ele>424.0</ele><time>2026-05-01T09:17:41.851Z</time></trkpt><trkpt lat="44.23588843325429" lon="11.363102949815543"><ele>424.00000000000006</ele><time>2026-05-01T09:17:49.85Z</time></trkpt><trkpt lat="44.2358110057567" lon="11.363011175321498"><ele>424.0</ele><time>2026-05-01T09:17:50.85Z</time></trkpt><trkpt lat="44.23570934685451" lon="11.36293411335565"><ele>418.0</ele><time>2026-05-01T09:17:51.85Z</time></trkpt><trkpt lat="44.23557925539139" lon="11.362869625469186"><ele>412.0</ele><time>2026-05-01T09:17:52.85Z</time></trkpt><trkpt lat="44.23543366412378" lon="11.362783197841175"><ele>406.0</ele><time>2026-05-01T09:17:53.85Z</time></trkpt><trkpt lat="44.2352765230612" lon="11.362687726777324"><ele>406.0</ele><time>2026-05-01T09:17:54.85Z</time></trkpt><trkpt lat="44.235097624753585" lon="11.362599383556477"><ele>406.0</ele><time>2026-05-01T09:17:55.85Z</time></trkpt><trkpt lat="44.23489558056205" lon="11.36251830141342"><ele>406.0</ele><time>2026-05-01T09:17:56.85Z</time></trkpt><trkpt lat="44.23468941056752" lon="11.362432535929175"><ele>408.0</ele><time>2026-05-01T09:17:57.85Z</time></trkpt><trkpt lat="44.23449768471127" lon="11.3623166230494"><ele>410.0</ele><time>2026-05-01T09:17:58.85Z</time></trkpt><trkpt lat="44.23430311718629" lon="11.362236708366725"><ele>412.0</ele><time>2026-05-01T09:17:59.85Z</time></trkpt><trkpt lat="44.2340840260756" lon="11.362137153513622"><ele>405.0</ele><time>2026-05-01T09:18:00.85Z</time></trkpt><trkpt lat="44.23386043296842" lon="11.362025680127159"><ele>398.0</ele><time>2026-05-01T09:18:01.85Z</time></trkpt><trkpt lat="44.23365549830636" lon="11.361912151903319"><ele>398.0</ele><time>2026-05-01T09:18:02.85Z</time></trkpt><trkpt lat="44.233449746137026" lon="11.361804809117567"><ele>398.0</ele><time>2026-05-01T09:18:03.85Z</time></trkpt><trkpt lat="44.23326081227123" lon="11.361690618340822"><ele>398.0</ele><time>2026-05-01T09:18:04.85Z</time></trkpt><trkpt lat="44.233078293163594" lon="11.361579003955443"><ele>396.3333333333333</ele><time>2026-05-01T09:18:05.85Z</time></trkpt><trkpt lat="44.23290496861527" lon="11.36145961337419"><ele>394.66666666666663</ele><time>2026-05-01T09:18:06.85Z</time></trkpt><trkpt lat="44.2327318797265" lon="11.361305273483456"><ele>393.0</ele><time>2026-05-01T09:18:07.85Z</time></trkpt><trkpt lat="44.232577920443724" lon="11.361132694088475"><ele>393.0</ele><time>2026-05-01T09:18:08.85Z</time></trkpt><trkpt lat="44.232441813967306" lon="11.360964012161721"><ele>393.0</ele><time>2026-05-01T09:18:09.85Z</time></trkpt><trkpt lat="44.23231874011324" lon="11.36081445072837"><ele>393.0</ele><time>2026-05-01T09:18:10.85Z</time></trkpt><trkpt lat="44.232205927029845" lon="11.360683104654054"><ele>393.25</ele><time>2026-05-01T09:18:11.85Z</time></trkpt><trkpt lat="44.23209394117119" lon="11.36057447296689"><ele>393.5</ele><time>2026-05-01T09:18:12.85Z</time></trkpt><trkpt lat="44.231965671024376" lon="11.360488295215681"><ele>393.75</ele><time>2026-05-01T09:18:13.85Z</time></trkpt><trkpt lat="44.23180839442916" lon="11.360433463289414"><ele>394.0</ele><time>2026-05-01T09:18:14.85Z</time></trkpt><trkpt lat="44.23163398929177" lon="11.36042263236111"><ele>394.0</ele><time>2026-05-01T09:18:15.85Z</time></trkpt><trkpt lat="44.231477608418636" lon="11.360449411152402"><ele>394.0</ele><time>2026-05-01T09:18:16.85Z</time></trkpt><trkpt lat="44.231338824707684" lon="11.360492556317238"><ele>394.0</ele><time>2026-05-01T09:18:17.85Z</time></trkpt><trkpt lat="44.231205697243105" lon="11.360505322994651"><ele>394.0</ele><time>2026-05-01T09:18:18.85Z</time></trkpt><trkpt lat="44.231076390496256" lon="11.360483991210183"><ele>393.5</ele><time>2026-05-01T09:18:19.85Z</time></trkpt><trkpt lat="44.230960033446145" lon="11.360407323417746"><ele>393.0</ele><time>2026-05-01T09:18:20.85Z</time></trkpt><trkpt lat="44.230856875467886" lon="11.36028092476995"><ele>392.5</ele><time>2026-05-01T09:18:21.85Z</time></trkpt><trkpt lat="44.230786860231284" lon="11.36011190432186"><ele>392.0</ele><time>2026-05-01T09:18:22.85Z</time></trkpt><trkpt lat="44.23067839154063" lon="11.359961483471638"><ele>394.66666666666663</ele><time>2026-05-01T09:18:23.85Z</time></trkpt><trkpt lat="44.2305624522575" lon="11.359782790970048"><ele>397.33333333333337</ele><time>2026-05-01T09:18:24.85Z</time></trkpt><trkpt lat="44.230442724240696" lon="11.359598854141517"><ele>400.0</ele><time>2026-05-01T09:18:25.849Z</time></trkpt><trkpt lat="44.23032949132194" lon="11.359392135315975"><ele>400.0</ele><time>2026-05-01T09:18:26.849Z</time></trkpt><trkpt lat="44.23020131235778" lon="11.359237291571336"><ele>400.0</ele><time>2026-05-01T09:18:27.849Z</time></trkpt><trkpt lat="44.23006318792374" lon="11.359094950116743"><ele>400.0</ele><time>2026-05-01T09:18:28.849Z</time></trkpt><trkpt lat="44.22991887457209" lon="11.358969349784005"><ele>398.33333333333337</ele><time>2026-05-01T09:18:29.849Z</time></trkpt><trkpt lat="44.22975465973833" lon="11.358877941872471"><ele>396.66666666666663</ele><time>2026-05-01T09:18:30.849Z</time></trkpt><trkpt lat="44.22957644083375" lon="11.358823771023426"><ele>395.0</ele><time>2026-05-01T09:18:31.849Z</time></trkpt><trkpt lat="44.229377283435845" lon="11.358785969864053"><ele>395.0</ele><time>2026-05-01T09:18:32.849Z</time></trkpt><trkpt lat="44.22916886812633" lon="11.35877819709847"><ele>395.0</ele><time>2026-05-01T09:18:33.849Z</time></trkpt><trkpt lat="44.22895618439208" lon="11.358782423357109"><ele>395.0</ele><time>2026-05-01T09:18:34.849Z</time></trkpt><trkpt lat="44.22873837030006" lon="11.358790039956803"><ele>396.5</ele><time>2026-05-01T09:18:35.849Z</time></trkpt><trkpt lat="44.22851218190313" lon="11.358800799260598"><ele>398.0</ele><time>2026-05-01T09:18:36.849Z</time></trkpt><trkpt lat="44.22828060682591" lon="11.358808967431571"><ele>403.0</ele><time>2026-05-01T09:18:37.849Z</time></trkpt><trkpt lat="44.22804368262748" lon="11.358822890335608"><ele>408.0</ele><time>2026-05-01T09:18:38.849Z</time></trkpt><trkpt lat="44.22779116955936" lon="11.358833510166752"><ele>408.0</ele><time>2026-05-01T09:18:39.849Z</time></trkpt><trkpt lat="44.22754374009853" lon="11.358845722369981"><ele>408.0</ele><time>2026-05-01T09:18:40.849Z</time></trkpt><trkpt lat="44.22731850639491" lon="11.358843871603389"><ele>411.0</ele><time>2026-05-01T09:18:41.849Z</time></trkpt><trkpt lat="44.22711357017108" lon="11.35884337393302"><ele>414.0</ele><time>2026-05-01T09:18:42.849Z</time></trkpt><trkpt lat="44.22691012275839" lon="11.358828927348174"><ele>417.0</ele><time>2026-05-01T09:18:43.849Z</time></trkpt><trkpt lat="44.22671853617732" lon="11.358831435792235"><ele>417.0</ele><time>2026-05-01T09:18:44.849Z</time></trkpt><trkpt lat="44.2265540332537" lon="11.358843059297536"><ele>417.0</ele><time>2026-05-01T09:18:45.849Z</time></trkpt><trkpt lat="44.22641709932956" lon="11.358850512122949"><ele>417.0</ele><time>2026-05-01T09:18:46.849Z</time></trkpt><trkpt lat="44.2262891299446" lon="11.358844197311786"><ele>417.0</ele><time>2026-05-01T09:18:47.849Z</time></trkpt><trkpt lat="44.22617222919119" lon="11.358808598915072"><ele>419.75</ele><time>2026-05-01T09:18:48.849Z</time></trkpt><trkpt lat="44.226074122751285" lon="11.358708909151812"><ele>422.5</ele><time>2026-05-01T09:18:49.849Z</time></trkpt><trkpt lat="44.22601512533429" lon="11.358558508302728"><ele>425.25</ele><time>2026-05-01T09:18:50.849Z</time></trkpt><trkpt lat="44.226014861878745" lon="11.358376484326206"><ele>428.0</ele><time>2026-05-01T09:18:51.849Z</time></trkpt><trkpt lat="44.22599795808677" lon="11.358209001282956"><ele>428.0</ele><time>2026-05-01T09:18:52.849Z</time></trkpt><trkpt lat="44.22602004648701" lon="11.358054976104379"><ele>428.0</ele><time>2026-05-01T09:18:53.849Z</time></trkpt><trkpt lat="44.22607119924336" lon="11.357927656858482"><ele>428.0</ele><time>2026-05-01T09:18:54.849Z</time></trkpt><trkpt lat="44.226170278846524" lon="11.35784530577372"><ele>428.0</ele><time>2026-05-01T09:18:55.849Z</time></trkpt><trkpt lat="44.226286677887984" lon="11.357780536536913"><ele>430.25</ele><time>2026-05-01T09:18:56.849Z</time></trkpt><trkpt lat="44.226427646373665" lon="11.357717078306795"><ele>432.5</ele><time>2026-05-01T09:18:57.849Z</time></trkpt><trkpt lat="44.22656647979689" lon="11.357696539452187"><ele>434.75</ele><time>2026-05-01T09:18:58.849Z</time></trkpt><trkpt lat="44.22667242274046" lon="11.357652919473457"><ele>437.0</ele><time>2026-05-01T09:18:59.849Z</time></trkpt><trkpt lat="44.22677174154126" lon="11.357618066714714"><ele>437.0</ele><time>2026-05-01T09:19:00.849Z</time></trkpt><trkpt lat="44.22685581553242" lon="11.35752048455048"><ele>437.0</ele><time>2026-05-01T09:19:01.849Z</time></trkpt><trkpt lat="44.226929618491816" lon="11.357401669676229"><ele>437.0</ele><time>2026-05-01T09:19:02.849Z</time></trkpt><trkpt lat="44.226984254076235" lon="11.357257532541885"><ele>437.0</ele><time>2026-05-01T09:19:03.849Z</time></trkpt><trkpt lat="44.2270117909948" lon="11.357105733014864"><ele>438.0</ele><time>2026-05-01T09:19:04.849Z</time></trkpt><trkpt lat="44.2270125347352" lon="11.356935147172713"><ele>439.0</ele><time>2026-05-01T09:19:05.849Z</time></trkpt><trkpt lat="44.22699208148059" lon="11.356771525894008"><ele>440.0</ele><time>2026-05-01T09:19:06.849Z</time></trkpt><trkpt lat="44.22694219381861" lon="11.356601420536949"><ele>441.0</ele><time>2026-05-01T09:19:07.849Z</time></trkpt><trkpt lat="44.22686913415115" lon="11.35645867997572"><ele>438.5</ele><time>2026-05-01T09:19:08.849Z</time></trkpt><trkpt lat="44.22677807339451" lon="11.35633562098033"><ele>436.0</ele><time>2026-05-01T09:19:09.849Z</time></trkpt><trkpt lat="44.226655369945085" lon="11.35624903866156"><ele>433.5</ele><time>2026-05-01T09:19:10.849Z</time></trkpt><trkpt lat="44.226502171457554" lon="11.356196615654289"><ele>431.0</ele><time>2026-05-01T09:19:11.848Z</time></trkpt><trkpt lat="44.226336308349005" lon="11.356156022987843"><ele>431.0</ele><time>2026-05-01T09:19:12.848Z</time></trkpt><trkpt lat="44.2261559442587" lon="11.356107959682143"><ele>431.0</ele><time>2026-05-01T09:19:13.848Z</time></trkpt><trkpt lat="44.22596529097447" lon="11.356053757840835"><ele>431.0</ele><time>2026-05-01T09:19:14.848Z</time></trkpt><trkpt lat="44.22576050541939" lon="11.355989505418146"><ele>437.0</ele><time>2026-05-01T09:19:15.848Z</time></trkpt><trkpt lat="44.225554860830776" lon="11.355924983442877"><ele>443.0</ele><time>2026-05-01T09:19:16.848Z</time></trkpt><trkpt lat="44.22536715853636" lon="11.355865496325267"><ele>449.0</ele><time>2026-05-01T09:19:17.848Z</time></trkpt><trkpt lat="44.22519336231923" lon="11.35580644401444"><ele>449.0</ele><time>2026-05-01T09:19:18.848Z</time></trkpt><trkpt lat="44.225021077874175" lon="11.355751635840651"><ele>449.0</ele><time>2026-05-01T09:19:19.848Z</time></trkpt><trkpt lat="44.22487406118311" lon="11.35570108333398"><ele>449.0</ele><time>2026-05-01T09:19:20.848Z</time></trkpt><trkpt lat="44.2247526353478" lon="11.355598826809315"><ele>449.3333333333333</ele><time>2026-05-01T09:19:21.848Z</time></trkpt><trkpt lat="44.2246284024771" lon="11.35543627900839"><ele>449.66666666666663</ele><time>2026-05-01T09:19:22.848Z</time></trkpt><trkpt lat="44.22449907277645" lon="11.355246505891701"><ele>450.0</ele><time>2026-05-01T09:19:23.848Z</time></trkpt><trkpt lat="44.22437107382929" lon="11.355043695100342"><ele>450.0</ele><time>2026-05-01T09:19:24.848Z</time></trkpt><trkpt lat="44.22425827597204" lon="11.354849112839469"><ele>450.0</ele><time>2026-05-01T09:19:25.848Z</time></trkpt><trkpt lat="44.22415493932085" lon="11.354685438994155"><ele>450.0</ele><time>2026-05-01T09:19:26.848Z</time></trkpt><trkpt lat="44.22405827877609" lon="11.35453924484588"><ele>449.25</ele><time>2026-05-01T09:19:27.848Z</time></trkpt><trkpt lat="44.2239490190537" lon="11.354438595582911"><ele>448.5</ele><time>2026-05-01T09:19:28.848Z</time></trkpt><trkpt lat="44.22382408006907" lon="11.354382468086955"><ele>447.75</ele><time>2026-05-01T09:19:29.848Z</time></trkpt><trkpt lat="44.22369614150085" lon="11.35436770171929"><ele>447.0</ele><time>2026-05-01T09:19:30.848Z</time></trkpt><trkpt lat="44.2235736481085" lon="11.354394750950938"><ele>447.0</ele><time>2026-05-01T09:19:31.848Z</time></trkpt><trkpt lat="44.22345147223182" lon="11.35437077259769"><ele>447.0</ele><time>2026-05-01T09:19:32.848Z</time></trkpt><trkpt lat="44.22333008387939" lon="11.35430306722731"><ele>447.0</ele><time>2026-05-01T09:19:33.848Z</time></trkpt><trkpt lat="44.22324491553916" lon="11.354204662978773"><ele>447.0</ele><time>2026-05-01T09:19:34.848Z</time></trkpt><trkpt lat="44.223151833990194" lon="11.354052948410734"><ele>450.0</ele><time>2026-05-01T09:19:35.848Z</time></trkpt><trkpt lat="44.223073605959584" lon="11.353891048924895"><ele>453.0</ele><time>2026-05-01T09:19:36.848Z</time></trkpt><trkpt lat="44.22299651014074" lon="11.353770405547381"><ele>456.0</ele><time>2026-05-01T09:19:37.848Z</time></trkpt><trkpt lat="44.22292835991408" lon="11.35365188844425"><ele>459.0</ele><time>2026-05-01T09:19:38.847Z</time></trkpt><trkpt lat="44.22284924197252" lon="11.353544934677606"><ele>459.0</ele><time>2026-05-01T09:19:39.846Z</time></trkpt><trkpt lat="44.22273052793808" lon="11.353484656973913"><ele>459.0</ele><time>2026-05-01T09:19:40.846Z</time></trkpt><trkpt lat="44.22259750874103" lon="11.353476645042075"><ele>459.0</ele><time>2026-05-01T09:19:41.847Z</time></trkpt><trkpt lat="44.222471376930514" lon="11.353483010892534"><ele>459.0</ele><time>2026-05-01T09:19:42.846Z</time></trkpt><trkpt lat="44.222362524877894" lon="11.353408031110527"><ele>460.0</ele><time>2026-05-01T09:19:43.846Z</time></trkpt><trkpt lat="44.22227687333808" lon="11.353299991096662"><ele>461.0</ele><time>2026-05-01T09:19:44.846Z</time></trkpt><trkpt lat="44.22220771483488" lon="11.353192785874258"><ele>462.0</ele><time>2026-05-01T09:19:45.846Z</time></trkpt><trkpt lat="44.22217945427407" lon="11.353055718929285"><ele>463.0</ele><time>2026-05-01T09:19:46.846Z</time></trkpt><trkpt lat="44.22215889350514" lon="11.35291316900232"><ele>464.0</ele><time>2026-05-01T09:19:47.846Z</time></trkpt><trkpt lat="44.22216781956109" lon="11.352758471232852"><ele>464.0</ele><time>2026-05-01T09:19:48.847Z</time></trkpt><trkpt lat="44.22218712140319" lon="11.35261418602556"><ele>464.0</ele><time>2026-05-01T09:19:49.847Z</time></trkpt><trkpt lat="44.22219227785825" lon="11.352462859452258"><ele>464.0</ele><time>2026-05-01T09:19:50.846Z</time></trkpt><trkpt lat="44.222151944490754" lon="11.352280971291808"><ele>464.0</ele><time>2026-05-01T09:19:51.846Z</time></trkpt><trkpt lat="44.22211742062684" lon="11.35213051296462"><ele>462.2</ele><time>2026-05-01T09:19:52.846Z</time></trkpt><trkpt lat="44.22208163936504" lon="11.3519868824099"><ele>460.4</ele><time>2026-05-01T09:19:53.846Z</time></trkpt><trkpt lat="44.222063237584614" lon="11.351835149813077"><ele>458.6</ele><time>2026-05-01T09:19:54.846Z</time></trkpt><trkpt lat="44.222069982646694" lon="11.351675565036514"><ele>456.8</ele><time>2026-05-01T09:19:55.846Z</time></trkpt><trkpt lat="44.22208280265546" lon="11.351530526400804"><ele>455.0</ele><time>2026-05-01T09:19:56.846Z</time></trkpt><trkpt lat="44.22207914200372" lon="11.351401822016378"><ele>455.0</ele><time>2026-05-01T09:19:57.846Z</time></trkpt><trkpt lat="44.22207168409671" lon="11.351294811839352"><ele>455.0</ele><time>2026-05-01T09:19:58.846Z</time></trkpt><trkpt lat="44.222113982723826" lon="11.351165569153641"><ele>455.0</ele><time>2026-05-01T09:20:00.846Z</time></trkpt><trkpt lat="44.222232786003275" lon="11.351212185130802"><ele>455.0</ele><time>2026-05-01T09:20:02.846Z</time></trkpt><trkpt lat="44.22222504290615" lon="11.351337941825578"><ele>455.0</ele><time>2026-05-01T09:20:03.846Z</time></trkpt><trkpt lat="44.222240338969705" lon="11.351478477344333"><ele>455.0</ele><time>2026-05-01T09:20:04.846Z</time></trkpt><trkpt lat="44.22226877673394" lon="11.351645660044761"><ele>455.0</ele><time>2026-05-01T09:20:05.846Z</time></trkpt><trkpt lat="44.22229386170438" lon="11.351797504361434"><ele>455.0</ele><time>2026-05-01T09:20:06.846Z</time></trkpt><trkpt lat="44.22234149649379" lon="11.351933711188863"><ele>455.0</ele><time>2026-05-01T09:20:07.846Z</time></trkpt><trkpt lat="44.22242095294253" lon="11.352043361270914"><ele>452.25</ele><time>2026-05-01T09:20:08.846Z</time></trkpt><trkpt lat="44.22253199541141" lon="11.352122005520217"><ele>449.5</ele><time>2026-05-01T09:20:09.846Z</time></trkpt><trkpt lat="44.22267067648092" lon="11.352172573230709"><ele>446.75</ele><time>2026-05-01T09:20:10.846Z</time></trkpt><trkpt lat="44.22280426698297" lon="11.352224083517886"><ele>444.0</ele><time>2026-05-01T09:20:11.846Z</time></trkpt><trkpt lat="44.22292625441175" lon="11.352284741403459"><ele>444.0</ele><time>2026-05-01T09:20:12.846Z</time></trkpt><trkpt lat="44.22303863235871" lon="11.3523549481487"><ele>444.0</ele><time>2026-05-01T09:20:13.846Z</time></trkpt><trkpt lat="44.22313821152508" lon="11.352462763266967"><ele>444.0</ele><time>2026-05-01T09:20:14.846Z</time></trkpt><trkpt lat="44.22324037526364" lon="11.352596189550393"><ele>444.0</ele><time>2026-05-01T09:20:15.846Z</time></trkpt><trkpt lat="44.223347735692776" lon="11.35275669784038"><ele>442.6</ele><time>2026-05-01T09:20:16.846Z</time></trkpt><trkpt lat="44.223443820626976" lon="11.352912932222285"><ele>441.2</ele><time>2026-05-01T09:20:17.846Z</time></trkpt><trkpt lat="44.223520437333384" lon="11.353038873050588"><ele>439.80000000000007</ele><time>2026-05-01T09:20:18.846Z</time></trkpt><trkpt lat="44.22359411097929" lon="11.353131555801372"><ele>438.40000000000003</ele><time>2026-05-01T09:20:19.846Z</time></trkpt><trkpt lat="44.2236655120359" lon="11.353192714347678"><ele>437.0</ele><time>2026-05-01T09:20:20.846Z</time></trkpt><trkpt lat="44.223748493488316" lon="11.353228362861222"><ele>437.0</ele><time>2026-05-01T09:20:21.846Z</time></trkpt><trkpt lat="44.223836165062615" lon="11.35321554989018"><ele>437.00000000000006</ele><time>2026-05-01T09:20:22.846Z</time></trkpt><trkpt lat="44.22394644466224" lon="11.35316219190904"><ele>437.00000000000006</ele><time>2026-05-01T09:20:23.846Z</time></trkpt><trkpt lat="44.22405094253021" lon="11.35305940856914"><ele>437.0</ele><time>2026-05-01T09:20:24.846Z</time></trkpt><trkpt lat="44.224130347053304" lon="11.35294454233236"><ele>437.0</ele><time>2026-05-01T09:20:25.846Z</time></trkpt><trkpt lat="44.22421034741021" lon="11.352858743708122"><ele>434.40000000000003</ele><time>2026-05-01T09:20:26.846Z</time></trkpt><trkpt lat="44.22429766513816" lon="11.352824843445692"><ele>431.80000000000007</ele><time>2026-05-01T09:20:27.845Z</time></trkpt><trkpt lat="44.22440232911063" lon="11.352840422922693"><ele>429.2</ele><time>2026-05-01T09:20:28.845Z</time></trkpt><trkpt lat="44.224502948927125" lon="11.35291421319999"><ele>426.6</ele><time>2026-05-01T09:20:29.845Z</time></trkpt><trkpt lat="44.22460819905963" lon="11.353021191347668"><ele>424.0</ele><time>2026-05-01T09:20:30.845Z</time></trkpt><trkpt lat="44.22472409636788" lon="11.35313591149333"><ele>426.25</ele><time>2026-05-01T09:20:31.845Z</time></trkpt><trkpt lat="44.22484140298599" lon="11.353243510133778"><ele>428.5</ele><time>2026-05-01T09:20:32.845Z</time></trkpt><trkpt lat="44.22496721859653" lon="11.35336278538323"><ele>430.75</ele><time>2026-05-01T09:20:33.845Z</time></trkpt><trkpt lat="44.22509319611499" lon="11.353492733826418"><ele>433.0</ele><time>2026-05-01T09:20:34.845Z</time></trkpt><trkpt lat="44.225215907586765" lon="11.353623175385733"><ele>433.0</ele><time>2026-05-01T09:20:35.845Z</time></trkpt><trkpt lat="44.22531689381421" lon="11.353770735954354"><ele>433.0</ele><time>2026-05-01T09:20:36.845Z</time></trkpt><trkpt lat="44.225410986696936" lon="11.353929143378435"><ele>433.0</ele><time>2026-05-01T09:20:37.845Z</time></trkpt><trkpt lat="44.22548023008257" lon="11.354061629261091"><ele>433.0</ele><time>2026-05-01T09:20:38.845Z</time></trkpt><trkpt lat="44.22553214975754" lon="11.354175005870239"><ele>434.00000000000006</ele><time>2026-05-01T09:20:39.845Z</time></trkpt><trkpt lat="44.225600958092215" lon="11.354251084548048"><ele>435.0</ele><time>2026-05-01T09:20:40.845Z</time></trkpt><trkpt lat="44.225654707178194" lon="11.354297744289143"><ele>436.0</ele><time>2026-05-01T09:20:41.845Z</time></trkpt><trkpt lat="44.225737920479204" lon="11.354338950859123"><ele>437.0</ele><time>2026-05-01T09:20:42.845Z</time></trkpt><trkpt lat="44.225847988858156" lon="11.354287925320188"><ele>438.00000000000006</ele><time>2026-05-01T09:20:43.845Z</time></trkpt><trkpt lat="44.22589077336351" lon="11.354183200966057"><ele>439.0</ele><time>2026-05-01T09:20:44.845Z</time></trkpt><trkpt lat="44.22581080532574" lon="11.35398735477886"><ele>439.0</ele><time>2026-05-01T09:20:46.845Z</time></trkpt><trkpt lat="44.225752457083274" lon="11.353887443107773"><ele>439.0</ele><time>2026-05-01T09:20:47.845Z</time></trkpt><trkpt lat="44.22569782808095" lon="11.353761198528296"><ele>439.0</ele><time>2026-05-01T09:20:48.845Z</time></trkpt><trkpt lat="44.22567255576147" lon="11.353623520358216"><ele>439.0</ele><time>2026-05-01T09:20:49.845Z</time></trkpt><trkpt lat="44.225680087412734" lon="11.353486951633993"><ele>439.0</ele><time>2026-05-01T09:20:50.845Z</time></trkpt><trkpt lat="44.22571559214247" lon="11.35334910622871"><ele>441.25</ele><time>2026-05-01T09:20:51.845Z</time></trkpt><trkpt lat="44.22578603770523" lon="11.353237901793582"><ele>443.5</ele><time>2026-05-01T09:20:52.845Z</time></trkpt><trkpt lat="44.225845269223406" lon="11.353109077804701"><ele>445.75</ele><time>2026-05-01T09:20:53.845Z</time></trkpt><trkpt lat="44.22586530947247" lon="11.352937572979208"><ele>448.0</ele><time>2026-05-01T09:20:54.845Z</time></trkpt><trkpt lat="44.22586771452386" lon="11.352748067331817"><ele>449.33333333333337</ele><time>2026-05-01T09:20:55.845Z</time></trkpt><trkpt lat="44.225847934164484" lon="11.352540437101169"><ele>450.66666666666663</ele><time>2026-05-01T09:20:56.845Z</time></trkpt><trkpt lat="44.225823576350514" lon="11.352306149872193"><ele>452.0</ele><time>2026-05-01T09:20:57.845Z</time></trkpt><trkpt lat="44.22578611347043" lon="11.352082334458425"><ele>450.3333333333333</ele><time>2026-05-01T09:20:58.845Z</time></trkpt><trkpt lat="44.225747310955974" lon="11.351846208945396"><ele>448.66666666666663</ele><time>2026-05-01T09:20:59.845Z</time></trkpt><trkpt lat="44.225682042110044" lon="11.35162016225639"><ele>447.0</ele><time>2026-05-01T09:21:00.845Z</time></trkpt><trkpt lat="44.22558573809378" lon="11.351412571622799"><ele>452.66666666666663</ele><time>2026-05-01T09:21:01.845Z</time></trkpt><trkpt lat="44.22546761361152" lon="11.351228626758035"><ele>458.3333333333333</ele><time>2026-05-01T09:21:02.845Z</time></trkpt><trkpt lat="44.22532368182827" lon="11.351075828190721"><ele>464.0</ele><time>2026-05-01T09:21:03.845Z</time></trkpt><trkpt lat="44.22516870968099" lon="11.350910766190797"><ele>464.0</ele><time>2026-05-01T09:21:04.845Z</time></trkpt><trkpt lat="44.225037574944075" lon="11.350770159572857"><ele>464.0</ele><time>2026-05-01T09:21:05.845Z</time></trkpt><trkpt lat="44.224932932925185" lon="11.350633938392873"><ele>464.0</ele><time>2026-05-01T09:21:06.845Z</time></trkpt><trkpt lat="44.22482300695296" lon="11.35050237527629"><ele>463.75</ele><time>2026-05-01T09:21:07.845Z</time></trkpt><trkpt lat="44.22472860493235" lon="11.35036325210948"><ele>463.5</ele><time>2026-05-01T09:21:08.845Z</time></trkpt><trkpt lat="44.22464281649748" lon="11.350197719775176"><ele>463.25</ele><time>2026-05-01T09:21:09.845Z</time></trkpt><trkpt lat="44.22455807818856" lon="11.350013962145516"><ele>463.0</ele><time>2026-05-01T09:21:10.845Z</time></trkpt><trkpt lat="44.22447663957651" lon="11.349859117870952"><ele>463.0</ele><time>2026-05-01T09:21:11.845Z</time></trkpt><trkpt lat="44.2244107582045" lon="11.349730857200095"><ele>463.0</ele><time>2026-05-01T09:21:12.845Z</time></trkpt><trkpt lat="44.22436272462313" lon="11.349598441876593"><ele>463.0</ele><time>2026-05-01T09:21:13.844Z</time></trkpt><trkpt lat="44.2243416862958" lon="11.349436330772127"><ele>463.0</ele><time>2026-05-01T09:21:14.844Z</time></trkpt><trkpt lat="44.224348382118144" lon="11.349243127842957"><ele>466.5</ele><time>2026-05-01T09:21:15.844Z</time></trkpt><trkpt lat="44.2243600009583" lon="11.349050301533309"><ele>470.0</ele><time>2026-05-01T09:21:16.844Z</time></trkpt><trkpt lat="44.22433557156354" lon="11.348868937828806"><ele>473.5</ele><time>2026-05-01T09:21:17.844Z</time></trkpt><trkpt lat="44.22428992308855" lon="11.348678589517156"><ele>477.0</ele><time>2026-05-01T09:21:18.844Z</time></trkpt><trkpt lat="44.224213964789804" lon="11.348497364851303"><ele>477.75</ele><time>2026-05-01T09:21:19.844Z</time></trkpt><trkpt lat="44.2241213478869" lon="11.348322327032887"><ele>478.5</ele><time>2026-05-01T09:21:20.844Z</time></trkpt><trkpt lat="44.22403555176931" lon="11.34817597242542"><ele>479.25</ele><time>2026-05-01T09:21:21.844Z</time></trkpt><trkpt lat="44.2239349452371" lon="11.348079364915666"><ele>480.0</ele><time>2026-05-01T09:21:22.844Z</time></trkpt><trkpt lat="44.223824022002695" lon="11.347984469482626"><ele>484.33333333333337</ele><time>2026-05-01T09:21:23.844Z</time></trkpt><trkpt lat="44.22366202501398" lon="11.347927950083216"><ele>488.6666666666667</ele><time>2026-05-01T09:21:24.844Z</time></trkpt><trkpt lat="44.223485752593334" lon="11.347916440266076"><ele>493.0</ele><time>2026-05-01T09:21:25.844Z</time></trkpt><trkpt lat="44.223339623518854" lon="11.347877239231169"><ele>493.0</ele><time>2026-05-01T09:21:26.844Z</time></trkpt><trkpt lat="44.223207213170646" lon="11.347856157143111"><ele>492.99999999999994</ele><time>2026-05-01T09:21:27.844Z</time></trkpt><trkpt lat="44.22311988526302" lon="11.347838409231201"><ele>492.99999999999994</ele><time>2026-05-01T09:21:28.844Z</time></trkpt><trkpt lat="44.223024948288135" lon="11.34779552499127"><ele>493.0</ele><time>2026-05-01T09:21:30.844Z</time></trkpt><trkpt lat="44.22302261955051" lon="11.347699540708883"><ele>493.0</ele><time>2026-05-01T09:21:31.844Z</time></trkpt><trkpt lat="44.22305396623247" lon="11.347588599020343"><ele>493.0</ele><time>2026-05-01T09:21:32.844Z</time></trkpt><trkpt lat="44.223142125094064" lon="11.347554470720901"><ele>492.99999999999994</ele><time>2026-05-01T09:21:33.844Z</time></trkpt><trkpt lat="44.223239665301804" lon="11.347521511697554"><ele>492.99999999999994</ele><time>2026-05-01T09:21:34.844Z</time></trkpt><trkpt lat="44.22336529060522" lon="11.347507190881078"><ele>493.0</ele><time>2026-05-01T09:21:35.844Z</time></trkpt><trkpt lat="44.223493250887884" lon="11.347475206486866"><ele>493.0</ele><time>2026-05-01T09:21:36.844Z</time></trkpt><trkpt lat="44.2236404117004" lon="11.34742132268413"><ele>493.0</ele><time>2026-05-01T09:21:37.844Z</time></trkpt><trkpt lat="44.22379144037976" lon="11.347379946876014"><ele>493.0</ele><time>2026-05-01T09:21:38.844Z</time></trkpt><trkpt lat="44.22394493417564" lon="11.347340942516158"><ele>493.0</ele><time>2026-05-01T09:21:39.844Z</time></trkpt><trkpt lat="44.22407074543303" lon="11.347302556518482"><ele>493.0</ele><time>2026-05-01T09:21:40.844Z</time></trkpt><trkpt lat="44.22420367816162" lon="11.347261363476369"><ele>494.0</ele><time>2026-05-01T09:21:41.844Z</time></trkpt><trkpt lat="44.22432912661191" lon="11.347231364095766"><ele>495.0</ele><time>2026-05-01T09:21:42.844Z</time></trkpt><trkpt lat="44.22445460080938" lon="11.347224508767797"><ele>496.0</ele><time>2026-05-01T09:21:43.844Z</time></trkpt><trkpt lat="44.22456919195318" lon="11.347267294861426"><ele>497.0</ele><time>2026-05-01T09:21:44.842Z</time></trkpt><trkpt lat="44.22465934762621" lon="11.347343035856483"><ele>497.0</ele><time>2026-05-01T09:21:45.842Z</time></trkpt><trkpt lat="44.22470051064328" lon="11.347485295494863"><ele>497.00000000000006</ele><time>2026-05-01T09:21:46.842Z</time></trkpt><trkpt lat="44.22471095420096" lon="11.347622984616573"><ele>497.00000000000006</ele><time>2026-05-01T09:21:47.842Z</time></trkpt><trkpt lat="44.22469065182966" lon="11.3477597177683"><ele>497.0</ele><time>2026-05-01T09:21:48.842Z</time></trkpt><trkpt lat="44.22465234222551" lon="11.347901409555961"><ele>497.0</ele><time>2026-05-01T09:21:49.842Z</time></trkpt><trkpt lat="44.22461450442079" lon="11.348061751584014"><ele>495.0</ele><time>2026-05-01T09:21:50.842Z</time></trkpt><trkpt lat="44.22458661133077" lon="11.348213320760363"><ele>493.00000000000006</ele><time>2026-05-01T09:21:51.842Z</time></trkpt><trkpt lat="44.224587910151264" lon="11.348381353796956"><ele>491.00000000000006</ele><time>2026-05-01T09:21:52.842Z</time></trkpt><trkpt lat="44.22463118927238" lon="11.348502730478014"><ele>489.0</ele><time>2026-05-01T09:21:53.841Z</time></trkpt><trkpt lat="44.22470599504848" lon="11.348591533990064"><ele>487.0</ele><time>2026-05-01T09:21:54.842Z</time></trkpt><trkpt lat="44.22480116939492" lon="11.348608426506269"><ele>492.25</ele><time>2026-05-01T09:21:55.842Z</time></trkpt><trkpt lat="44.2248897733298" lon="11.34859256143086"><ele>497.5</ele><time>2026-05-01T09:21:56.841Z</time></trkpt><trkpt lat="44.22499711979538" lon="11.348544056283242"><ele>502.75</ele><time>2026-05-01T09:21:57.842Z</time></trkpt><trkpt lat="44.22511669118397" lon="11.348484624580776"><ele>508.0</ele><time>2026-05-01T09:21:58.842Z</time></trkpt><trkpt lat="44.22524694872546" lon="11.348438722147307"><ele>508.0</ele><time>2026-05-01T09:21:59.842Z</time></trkpt><trkpt lat="44.22539022220759" lon="11.348396697727594"><ele>508.0</ele><time>2026-05-01T09:22:00.842Z</time></trkpt><trkpt lat="44.22553087953569" lon="11.348365323008599"><ele>508.0</ele><time>2026-05-01T09:22:01.842Z</time></trkpt><trkpt lat="44.22568038432712" lon="11.34835656206796"><ele>508.0</ele><time>2026-05-01T09:22:02.842Z</time></trkpt><trkpt lat="44.225824284756925" lon="11.348367268623718"><ele>510.75</ele><time>2026-05-01T09:22:03.842Z</time></trkpt><trkpt lat="44.22595674922738" lon="11.348420743715328"><ele>513.5</ele><time>2026-05-01T09:22:04.842Z</time></trkpt><trkpt lat="44.22607060260021" lon="11.348506460344812"><ele>516.25</ele><time>2026-05-01T09:22:05.842Z</time></trkpt><trkpt lat="44.22616877744431" lon="11.34863613796679"><ele>519.0</ele><time>2026-05-01T09:22:06.842Z</time></trkpt><trkpt lat="44.226241967746724" lon="11.348798384881645"><ele>517.8</ele><time>2026-05-01T09:22:07.842Z</time></trkpt><trkpt lat="44.22627837786527" lon="11.348946621317587"><ele>516.5999999999999</ele><time>2026-05-01T09:22:08.842Z</time></trkpt><trkpt lat="44.22630282915886" lon="11.349080747733527"><ele>515.4</ele><time>2026-05-01T09:22:09.842Z</time></trkpt><trkpt lat="44.2263414503352" lon="11.349195731973392"><ele>514.1999999999999</ele><time>2026-05-01T09:22:10.842Z</time></trkpt><trkpt lat="44.22640482748317" lon="11.349248110702787"><ele>513.0</ele><time>2026-05-01T09:22:11.842Z</time></trkpt><trkpt lat="44.22647940121703" lon="11.34926377875344"><ele>513.0</ele><time>2026-05-01T09:22:12.842Z</time></trkpt><trkpt lat="44.22656240721204" lon="11.349270642419757"><ele>513.0</ele><time>2026-05-01T09:22:13.842Z</time></trkpt><trkpt lat="44.226645574159846" lon="11.349201183669686"><ele>513.0</ele><time>2026-05-01T09:22:14.842Z</time></trkpt><trkpt lat="44.22670643776367" lon="11.349092945823713"><ele>513.0</ele><time>2026-05-01T09:22:15.842Z</time></trkpt><trkpt lat="44.22673460148664" lon="11.348948394583305"><ele>513.0</ele><time>2026-05-01T09:22:16.842Z</time></trkpt><trkpt lat="44.226802920583374" lon="11.348828999823834"><ele>516.8</ele><time>2026-05-01T09:22:17.842Z</time></trkpt><trkpt lat="44.22688435804853" lon="11.348732548563111"><ele>520.5999999999999</ele><time>2026-05-01T09:22:18.842Z</time></trkpt><trkpt lat="44.22698448171266" lon="11.348701366173502"><ele>524.4000000000001</ele><time>2026-05-01T09:22:19.842Z</time></trkpt><trkpt lat="44.227076612891494" lon="11.348746365587713"><ele>528.2</ele><time>2026-05-01T09:22:20.842Z</time></trkpt><trkpt lat="44.22719518360768" lon="11.348786788750745"><ele>532.0</ele><time>2026-05-01T09:22:21.842Z</time></trkpt><trkpt lat="44.22732007161289" lon="11.34886537545319"><ele>529.0</ele><time>2026-05-01T09:22:22.842Z</time></trkpt><trkpt lat="44.22744781485755" lon="11.348941104694385"><ele>526.0</ele><time>2026-05-01T09:22:23.842Z</time></trkpt><trkpt lat="44.22757186945023" lon="11.349008463520782"><ele>523.0</ele><time>2026-05-01T09:22:24.842Z</time></trkpt><trkpt lat="44.227677204299255" lon="11.349070906883291"><ele>520.0</ele><time>2026-05-01T09:22:25.842Z</time></trkpt><trkpt lat="44.22776253070114" lon="11.349103703274157"><ele>520.0</ele><time>2026-05-01T09:22:26.842Z</time></trkpt><trkpt lat="44.227835943758784" lon="11.349114286841761"><ele>520.0</ele><time>2026-05-01T09:22:27.842Z</time></trkpt><trkpt lat="44.227910509464905" lon="11.349071596550203"><ele>520.0</ele><time>2026-05-01T09:22:28.842Z</time></trkpt><trkpt lat="44.227962810971945" lon="11.348974753093266"><ele>520.0</ele><time>2026-05-01T09:22:29.841Z</time></trkpt><trkpt lat="44.227947604398125" lon="11.348852672677708"><ele>520.0</ele><time>2026-05-01T09:22:30.841Z</time></trkpt><trkpt lat="44.227930349769956" lon="11.348753339386835"><ele>520.0</ele><time>2026-05-01T09:22:31.841Z</time></trkpt><trkpt lat="44.227845505487174" lon="11.348689435435677"><ele>524.5</ele><time>2026-05-01T09:22:32.841Z</time></trkpt><trkpt lat="44.227740043768115" lon="11.348633796740012"><ele>529.0</ele><time>2026-05-01T09:22:33.841Z</time></trkpt><trkpt lat="44.22763575548343" lon="11.348553429527579"><ele>533.5</ele><time>2026-05-01T09:22:34.841Z</time></trkpt><trkpt lat="44.227523744699766" lon="11.348472007823995"><ele>538.0</ele><time>2026-05-01T09:22:35.841Z</time></trkpt><trkpt lat="44.22739609182984" lon="11.34838211481688"><ele>536.5</ele><time>2026-05-01T09:22:36.841Z</time></trkpt><trkpt lat="44.22727552024227" lon="11.348296031522622"><ele>535.0</ele><time>2026-05-01T09:22:37.841Z</time></trkpt><trkpt lat="44.227159417707206" lon="11.348190386477937"><ele>533.5</ele><time>2026-05-01T09:22:38.841Z</time></trkpt><trkpt lat="44.227060980847796" lon="11.348067315115914"><ele>532.0</ele><time>2026-05-01T09:22:39.841Z</time></trkpt><trkpt lat="44.226981700485894" lon="11.347962514452167"><ele>535.8000000000001</ele><time>2026-05-01T09:22:40.841Z</time></trkpt><trkpt lat="44.22690791362031" lon="11.34787164335743"><ele>539.6</ele><time>2026-05-01T09:22:41.841Z</time></trkpt><trkpt lat="44.22687493092089" lon="11.347784714998733"><ele>543.4000000000001</ele><time>2026-05-01T09:22:42.841Z</time></trkpt><trkpt lat="44.22694607800321" lon="11.347655494055122"><ele>547.2</ele><time>2026-05-01T09:22:44.841Z</time></trkpt><trkpt lat="44.22701461629718" lon="11.347601060181816"><ele>551.0</ele><time>2026-05-01T09:22:45.841Z</time></trkpt><trkpt lat="44.227113544202034" lon="11.34752919722937"><ele>551.0</ele><time>2026-05-01T09:22:46.841Z</time></trkpt><trkpt lat="44.22722674319827" lon="11.347517252333002"><ele>551.0</ele><time>2026-05-01T09:22:47.841Z</time></trkpt><trkpt lat="44.22733564879515" lon="11.347559416636704"><ele>551.0</ele><time>2026-05-01T09:22:48.841Z</time></trkpt><trkpt lat="44.22743498322251" lon="11.347596553120527"><ele>551.0</ele><time>2026-05-01T09:22:49.841Z</time></trkpt><trkpt lat="44.2275199629324" lon="11.347625557717846"><ele>551.0</ele><time>2026-05-01T09:22:50.841Z</time></trkpt><trkpt lat="44.22759923078987" lon="11.34763796648689"><ele>550.0</ele><time>2026-05-01T09:22:51.841Z</time></trkpt><trkpt lat="44.227681698423254" lon="11.34760385873523"><ele>550.0</ele><time>2026-05-01T09:22:52.841Z</time></trkpt><trkpt lat="44.22773830347799" lon="11.347513522711107"><ele>550.0</ele><time>2026-05-01T09:22:53.841Z</time></trkpt><trkpt lat="44.22777452990352" lon="11.347399101741512"><ele>550.0</ele><time>2026-05-01T09:22:54.841Z</time></trkpt><trkpt lat="44.22779694052196" lon="11.347296994635576"><ele>550.0</ele><time>2026-05-01T09:22:55.841Z</time></trkpt><trkpt lat="44.227816634855905" lon="11.347190567776664"><ele>563.0</ele><time>2026-05-01T09:22:57.841Z</time></trkpt></trkseg></trk></gpx>